[[[{"header":{"parameterUnit":"kt","parameterCategory":2,"dx":1,"dy":1,"la1":29.587661999999998,"la2":31.0,"lo1":-88.76705300000003,"lo2":-86.6583820000003,"nx":115,"ny":88,"refTime":"2022-11-01T18:00:00:Z","depth":0,"parameterNumber":1,"parameterNumberName":"U-component_of_WINDS"},"data":[-5.8433,-5.89,-5.9601,-6.0173,-6.0744,-6.1315,-6.1575,-6.1575,-6.1575,-6.1575,-6.1575,-6.1575,-6.1575,-6.1575,-6.1575,-6.1575,-6.1575,-6.1575,-6.1575,-6.1757,-6.264,-6.3055,-6.3471,-6.4016,-6.4561,-6.4795,-6.4873,-6.4821,-6.4613,-6.4665,-6.4717,-6.451,-6.4042,-6.3912,-6.3756,-6.3211,-6.2536,-6.238,-6.2016,-6.1653,-6.1575,-6.1575,-6.1575,-6.1575,-6.1575,-6.1575,-6.1575,-6.1575,-6.1575,-6.1575,-6.1575,-6.1575,-6.1575,-6.1575,-6.1575,-6.1575,-6.1575,-6.1575,-6.1575,-6.1575,-5.891,-5.6075,-5.4373,-5.0563,-4.4017,-3.9503,-3.6265,-3.1694,-3.0049,-2.9733,-2.9654,-2.9535,-2.9509,-2.9509,-2.9509,-2.9509,-2.9509,-2.9509,-2.9509,-2.9509,-2.9509,-2.9509,-2.9509,-2.9509,-2.9509,-2.9509,-2.9509,-2.9509,-2.9509,-2.9509,-2.9509,-2.9509,-2.9509,-2.9509,-2.9509,-2.9509,-2.9509,-2.9509,-2.9509,-2.9509,-2.9509,-2.9509,-2.9509,-2.9509,-2.9509,-2.9509,-2.9509,-2.9509,-2.9509,-2.9509,-2.9509,-2.9509,-2.9509,-2.9509,-2.9509,-5.8199,-5.8433,-5.9419,-6.0173,-6.0744,-6.1315,-6.1575,-6.1575,-6.1575,-6.1575,-6.1575,-6.1575,-6.1575,-6.1575,-6.1575,-6.1575,-6.1575,-6.1575,-6.1861,-6.212,-6.2458,-6.277,-6.3133,-6.3661,-6.3886,-6.425,-6.4561,-6.4458,-6.4224,-6.4172,-6.399,-6.3549,-6.3419,-6.3367,-6.3185,-6.277,-6.2328,-6.2146,-6.1913,-6.1627,-6.1575,-6.1575,-6.1575,-6.1575,-6.1575,-6.1575,-6.1575,-6.1575,-6.1575,-6.1575,-6.1575,-6.1575,-6.1575,-6.1575,-6.1575,-6.1575,-6.1575,-6.1575,-6.1575,-6.139,-5.8329,-5.512,-5.456,-4.9978,-4.1762,-3.7494,-3.4985,-3.2191,-3.0338,-2.9561,-2.9548,-2.9509,-2.9509,-2.9509,-2.9509,-2.9509,-2.9509,-2.9509,-2.9509,-2.9509,-2.9509,-2.9509,-2.9509,-2.9509,-2.9509,-2.9509,-2.9509,-2.9509,-2.9509,-2.9509,-2.9509,-2.9509,-2.9509,-2.9509,-2.9509,-2.9509,-2.9509,-2.9509,-2.9509,-2.9509,-2.9509,-2.9509,-2.9509,-2.9509,-2.9509,-2.9509,-2.9509,-2.9509,-2.9509,-2.9509,-2.9509,-2.9509,-2.9509,-2.9509,-2.9509,-5.8147,-5.8303,-5.9393,-5.9991,-6.038,-6.1185,-6.1575,-6.1575,-6.1575,-6.1575,-6.1575,-6.1575,-6.1575,-6.1575,-6.1575,-6.1575,-6.1575,-6.1575,-6.1783,-6.2016,-6.2224,-6.2536,-6.2821,-6.3159,-6.3393,-6.3549,-6.3886,-6.3964,-6.3678,-6.3601,-6.3739,-6.3505,-6.2925,-6.277,-6.2692,-6.2276,-6.1913,-6.1938,-6.1705,-6.1575,-6.1575,-6.1575,-6.1575,-6.1575,-6.1575,-6.1575,-6.1575,-6.1575,-6.1575,-6.1575,-6.1575,-6.1575,-6.1575,-6.1575,-6.1575,-6.1575,-6.1575,-6.1575,-6.1575,-6.0415,-5.7772,-5.2084,-4.9644,-4.5281,-3.767,-3.4719,-3.2229,-3.1679,-2.9837,-2.9522,-2.9509,-2.9509,-2.9509,-2.9509,-2.9509,-2.9509,-2.9509,-2.9509,-2.9509,-2.9509,-2.9509,-2.9509,-2.9509,-2.9509,-2.9509,-2.9509,-2.9509,-2.9509,-2.9509,-2.9509,-2.9509,-2.9509,-2.9509,-2.9509,-2.9509,-2.9509,-2.9509,-2.9509,-2.9509,-2.9509,-2.9509,-2.9509,-2.9509,-2.9509,-2.9509,-2.9509,-2.9509,-2.9509,-2.9509,-2.9509,-2.9509,-2.9509,-2.9509,-2.9509,-2.9509,-5.8147,-5.8225,-5.9082,-5.9627,-5.9991,-6.1081,-6.1575,-6.1575,-6.1575,-6.1575,-6.1575,-6.1575,-6.1575,-6.1575,-6.1575,-6.1575,-6.1575,-6.1575,-6.1575,-6.1757,-6.1938,-6.2146,-6.2302,-6.251,-6.2847,-6.3003,-6.3081,-6.3185,-6.3237,-6.3133,-6.3003,-6.2958,-6.2484,-6.2198,-6.2172,-6.1913,-6.1653,-6.1679,-6.1575,-6.1575,-6.1575,-6.1575,-6.1575,-6.1575,-6.1575,-6.1575,-6.1575,-6.1575,-6.1575,-6.1575,-6.1575,-6.1575,-6.1575,-6.1575,-6.1575,-6.1575,-6.1575,-6.1575,-6.1575,-6.0995,-5.6447,-5.0584,-4.5605,-3.9537,-3.4779,-3.1872,-3.026,-2.9917,-2.9667,-2.9575,-2.9509,-2.9509,-2.9509,-2.9509,-2.9509,-2.9509,-2.9509,-2.9509,-2.9509,-2.9509,-2.9509,-2.9509,-2.9509,-2.9509,-2.9509,-2.9509,-2.9509,-2.9509,-2.9509,-2.9509,-2.9509,-2.9509,-2.9509,-2.9509,-2.9509,-2.9509,-2.9509,-2.9509,-2.9509,-2.9509,-2.9509,-2.9509,-2.9509,-2.9509,-2.9509,-2.9509,-2.9509,-2.9509,-2.9509,-2.9509,-2.9509,-2.9509,-2.9509,-2.9509,-2.9509,-5.8147,-5.8173,-5.8251,-5.8952,-5.9939,-6.1081,-6.1575,-6.1575,-6.1575,-6.1575,-6.1575,-6.1575,-6.1575,-6.1575,-6.1575,-6.1575,-6.1575,-6.1575,-6.1575,-6.1601,-6.1757,-6.1757,-6.1757,-6.1731,-6.2172,-6.238,-6.251,-6.2614,-6.2925,-6.2744,-6.225,-6.1705,-6.1705,-6.1757,-6.1783,-6.1601,-6.1575,-6.1575,-6.1575,-6.1575,-6.1575,-6.1575,-6.1575,-6.1575,-6.1575,-6.1575,-6.1575,-6.1575,-6.1575,-6.1575,-6.1575,-6.1575,-6.1575,-6.1575,-6.1575,-6.1575,-6.1575,-6.1575,-6.1575,-6.0626,-5.512,-4.9999,-4.6211,-3.9933,-3.456,-3.0902,-3.0102,-2.9746,-2.9627,-2.9535,-2.9509,-2.9509,-2.9509,-2.9509,-2.9509,-2.9509,-2.9509,-2.9509,-2.9509,-2.9509,-2.9509,-2.9509,-2.9509,-2.9509,-2.9509,-2.9509,-2.9509,-2.9509,-2.9509,-2.9509,-2.9509,-2.9509,-2.9509,-2.9509,-2.9509,-2.9509,-2.9509,-2.9509,-2.9509,-2.9509,-2.9509,-2.9509,-2.9509,-2.9509,-2.9509,-2.9509,-2.9509,-2.9509,-2.9509,-2.9509,-2.9509,-2.9509,-2.9509,-2.9509,-2.9509,-5.8147,-5.8147,-5.8147,-5.8822,-5.9939,-6.1056,-6.1575,-6.1575,-6.1575,-6.1575,-6.1575,-6.1575,-6.1575,-6.1575,-6.1575,-6.1575,-6.1575,-6.1575,-6.1575,-6.1575,-6.1601,-6.1575,-6.1575,-6.1627,-6.1731,-6.1783,-6.1938,-6.2094,-6.2068,-6.1913,-6.1861,-6.1575,-6.1575,-6.1575,-6.1575,-6.1575,-6.1575,-6.1575,-6.1575,-6.1575,-6.1575,-6.1575,-6.1575,-6.1575,-6.1575,-6.1575,-6.1575,-6.1575,-6.1575,-6.1575,-6.1575,-6.1575,-6.1575,-6.1575,-6.1575,-6.1575,-6.1575,-6.1575,-6.118,-5.928,-5.3417,-4.7929,-4.337,-3.816,-3.3336,-3.0458,-3.0063,-2.9667,-2.9575,-2.9509,-2.9509,-2.9509,-2.9509,-2.9509,-2.9509,-2.9509,-2.9509,-2.9509,-2.9509,-2.9509,-2.9509,-2.9509,-2.9509,-2.9509,-2.9509,-2.9509,-2.9509,-2.9509,-2.9509,-2.9509,-2.9509,-2.9509,-2.9509,-2.9509,-2.9509,-2.9509,-2.9509,-2.9509,-2.9509,-2.9509,-2.9509,-2.9509,-2.9509,-2.9509,-2.9509,-2.9509,-2.9509,-2.9509,-2.9509,-2.9509,-2.9509,-2.9509,-2.9509,-2.9509,-2.9509,-5.8147,-5.8147,-5.8147,-5.8718,-5.9705,-6.064,-6.1289,-6.1549,-6.1575,-6.1575,-6.1575,-6.1575,-6.1575,-6.1575,-6.1575,-6.1575,-6.1575,-6.1575,-6.1575,-6.1575,-6.1575,-6.1575,-6.1575,-6.1575,-6.1575,-6.1601,-6.1601,-6.1653,-6.1627,-6.1601,-6.1601,-6.1575,-6.1575,-6.1575,-6.1575,-6.1575,-6.1575,-6.1575,-6.1575,-6.1575,-6.1575,-6.1575,-6.1575,-6.1575,-6.1575,-6.1575,-6.1575,-6.1575,-6.1575,-6.1575,-6.1575,-6.1575,-6.1575,-6.1575,-6.1575,-6.1575,-6.1575,-6.1364,-6.0811,-5.7029,-5.1919,-4.6986,-4.0171,-3.4883,-3.2089,-3.0339,-3.0128,-2.9759,-2.9522,-2.9509,-2.9509,-2.9509,-2.9509,-2.9509,-2.9509,-2.9509,-2.9509,-2.9509,-2.9509,-2.9509,-2.9509,-2.9509,-2.9509,-2.9509,-2.9509,-2.9509,-2.9509,-2.9509,-2.9509,-2.9509,-2.9509,-2.9509,-2.9509,-2.9509,-2.9509,-2.9509,-2.9509,-2.9509,-2.9509,-2.9509,-2.9509,-2.9509,-2.9509,-2.9509,-2.9509,-2.9509,-2.9509,-2.9509,-2.9509,-2.9509,-2.9509,-2.9509,-2.9509,-2.9509,-2.9509,-5.8147,-5.8147,-5.8147,-5.851,-5.9108,-5.9757,-6.0588,-6.1497,-6.1549,-6.1575,-6.1575,-6.1575,-6.1575,-6.1575,-6.1575,-6.1575,-6.1575,-6.1575,-6.1575,-6.1575,-6.1575,-6.1575,-6.1575,-6.1575,-6.1575,-6.1575,-6.1575,-6.1575,-6.1575,-6.1575,-6.1575,-6.1575,-6.1575,-6.1575,-6.1575,-6.1575,-6.1575,-6.1575,-6.1575,-6.1575,-6.1575,-6.1575,-6.1575,-6.1575,-6.1575,-6.1575,-6.1575,-6.1575,-6.1575,-6.1575,-6.1575,-6.1575,-6.1575,-6.1575,-6.1575,-6.1575,-6.1575,-6.118,-6.0046,-5.5702,-5.0772,-4.4906,-3.7305,-3.2789,-3.0577,-3.0326,-3.0036,-2.9707,-2.9509,-2.9509,-2.9509,-2.9509,-2.9509,-2.9509,-2.9509,-2.9509,-2.9509,-2.9509,-2.9509,-2.9509,-2.9509,-2.9509,-2.9509,-2.9509,-2.9509,-2.9509,-2.9509,-2.9509,-2.9509,-2.9509,-2.9509,-2.9509,-2.9509,-2.9509,-2.9509,-2.9509,-2.9509,-2.9509,-2.9509,-2.9509,-2.9509,-2.9509,-2.9509,-2.9509,-2.9509,-2.9509,-2.9509,-2.9509,-2.9509,-2.9509,-2.9509,-2.9509,-2.9509,-2.9509,-2.9377,-5.8147,-5.8147,-5.8147,-5.8484,-5.9056,-5.9601,-6.0043,-6.051,-6.1237,-6.1575,-6.1575,-6.1575,-6.1575,-6.1575,-6.1575,-6.1575,-6.1575,-6.1575,-6.1575,-6.1575,-6.1575,-6.1575,-6.1575,-6.1575,-6.1575,-6.1575,-6.1575,-6.1575,-6.1575,-6.1575,-6.1575,-6.1575,-6.1575,-6.1575,-6.1575,-6.1575,-6.1575,-6.1575,-6.1575,-6.1575,-6.1575,-6.1575,-6.1575,-6.1575,-6.1575,-6.1575,-6.1575,-6.1575,-6.1575,-6.1575,-6.1575,-6.1575,-6.1575,-6.1575,-6.1575,-6.1575,-6.1364,-5.9861,-5.6819,-5.2459,-4.7303,-4.2177,-3.5399,-3.1359,-3.0498,-3.0234,-2.9904,-2.9667,-2.9535,-2.9509,-2.9509,-2.9509,-2.9509,-2.9509,-2.9509,-2.9509,-2.9509,-2.9509,-2.9509,-2.9509,-2.9509,-2.9509,-2.9509,-2.9509,-2.9509,-2.9509,-2.9509,-2.9509,-2.9509,-2.9509,-2.9509,-2.9509,-2.9509,-2.9509,-2.9509,-2.9509,-2.9509,-2.9509,-2.9509,-2.9509,-2.9509,-2.9509,-2.9509,-2.9509,-2.9509,-2.9509,-2.9509,-2.9509,-2.9509,-2.9509,-2.9482,-2.9469,-2.9509,-2.939,-2.9219,-5.8147,-5.8147,-5.8147,-5.8381,-5.8796,-5.9523,-5.9861,-6.0069,-6.1004,-6.1575,-6.1575,-6.1575,-6.1575,-6.1575,-6.1575,-6.1575,-6.1575,-6.1575,-6.1575,-6.1575,-6.1575,-6.1575,-6.1575,-6.1575,-6.1575,-6.1575,-6.1575,-6.1575,-6.1575,-6.1575,-6.1575,-6.1575,-6.1575,-6.1575,-6.1575,-6.1575,-6.1575,-6.1575,-6.1575,-6.1575,-6.1575,-6.1575,-6.1575,-6.1575,-6.1575,-6.1575,-6.1575,-6.1575,-6.1575,-6.1575,-6.1575,-6.1575,-6.1575,-6.1575,-6.1575,-6.1575,-6.1575,-5.9861,-5.6423,-4.9455,-4.3564,-3.816,-3.402,-3.2787,-3.0487,-3.0049,-2.9825,-2.9601,-2.9522,-2.9509,-2.9509,-2.9509,-2.9509,-2.9509,-2.9509,-2.9509,-2.9509,-2.9509,-2.9509,-2.9509,-2.9509,-2.9509,-2.9509,-2.9509,-2.9509,-2.9509,-2.9509,-2.9509,-2.9509,-2.9509,-2.9509,-2.9509,-2.9509,-2.9509,-2.9509,-2.9509,-2.9509,-2.9509,-2.9509,-2.9509,-2.9509,-2.9509,-2.9509,-2.9509,-2.9509,-2.9509,-2.9509,-2.9509,-2.9509,-2.9443,-2.9351,-2.9311,-2.9271,-2.9153,-2.8981,-5.8147,-5.8147,-5.8147,-5.8147,-5.8329,-5.9367,-5.9835,-5.9991,-6.0978,-6.1497,-6.1549,-6.1575,-6.1575,-6.1575,-6.1575,-6.1575,-6.1575,-6.1575,-6.1575,-6.1575,-6.1575,-6.1575,-6.1575,-6.1575,-6.1575,-6.1575,-6.1575,-6.1575,-6.1575,-6.1575,-6.1575,-6.1575,-6.1575,-6.1575,-6.1575,-6.1575,-6.1575,-6.1575,-6.1575,-6.1575,-6.1575,-6.1575,-6.1575,-6.1575,-6.1575,-6.1575,-6.1575,-6.1575,-6.1575,-6.1575,-6.1575,-6.1575,-6.1575,-6.1575,-6.1575,-6.1364,-6.118,-6.0811,-6.002,-5.0714,-4.1407,-3.3684,-3.4005,-3.3309,-3.0806,-2.9904,-2.9772,-2.9561,-2.9509,-2.9509,-2.9509,-2.9509,-2.9509,-2.9509,-2.9509,-2.9509,-2.9509,-2.9509,-2.9509,-2.9509,-2.9509,-2.9509,-2.9509,-2.9509,-2.9509,-2.9509,-2.9509,-2.9509,-2.9509,-2.9509,-2.9509,-2.9509,-2.9509,-2.9509,-2.9509,-2.9509,-2.9509,-2.9509,-2.9509,-2.9509,-2.9509,-2.9509,-2.9509,-2.9509,-2.9509,-2.9509,-2.9509,-2.9509,-2.943,-2.9364,-2.9245,-2.9113,-2.9008,-2.8889,-2.8652,-5.8147,-5.8147,-5.8147,-5.8147,-5.8251,-5.8952,-5.9497,-5.9939,-6.0666,-6.1159,-6.1549,-6.1575,-6.1575,-6.1575,-6.1575,-6.1575,-6.1575,-6.1575,-6.1575,-6.1575,-6.1575,-6.1575,-6.1575,-6.1575,-6.1575,-6.1575,-6.1575,-6.1575,-6.1575,-6.1575,-6.1575,-6.1575,-6.1575,-6.1575,-6.1575,-6.1575,-6.1575,-6.1575,-6.1575,-6.1575,-6.1575,-6.1575,-6.1575,-6.1575,-6.1575,-6.1575,-6.1575,-6.1575,-6.1575,-6.1575,-6.1575,-6.1575,-6.1575,-6.1575,-6.1575,-6.0415,-5.8724,-5.6261,-5.3581,-4.6995,-3.8018,-3.2838,-3.3121,-3.2061,-3.0354,-2.9759,-2.968,-2.9509,-2.9509,-2.9509,-2.9509,-2.9509,-2.9509,-2.9509,-2.9509,-2.9509,-2.9509,-2.9509,-2.9509,-2.9509,-2.9509,-2.9509,-2.9509,-2.9509,-2.9509,-2.9509,-2.9509,-2.9509,-2.9509,-2.9509,-2.9509,-2.9509,-2.9509,-2.9509,-2.9509,-2.9509,-2.9509,-2.9509,-2.9509,-2.9509,-2.9509,-2.9509,-2.9509,-2.9509,-2.9509,-2.9509,-2.9496,-2.9456,-2.9377,-2.9271,-2.9126,-2.8995,-2.8849,-2.8559,-2.8322,-5.8147,-5.8147,-5.8147,-5.8147,-5.8199,-5.877,-5.9341,-5.9913,-6.0458,-6.103,-6.1575,-6.1575,-6.1575,-6.1575,-6.1575,-6.1575,-6.1575,-6.1575,-6.1575,-6.1575,-6.1575,-6.1575,-6.1575,-6.1575,-6.1575,-6.1575,-6.1575,-6.1575,-6.1575,-6.1575,-6.1575,-6.1575,-6.1575,-6.1575,-6.1575,-6.1575,-6.1575,-6.1575,-6.1575,-6.1575,-6.1575,-6.1575,-6.1575,-6.1575,-6.1575,-6.1575,-6.1575,-6.1575,-6.1575,-6.1575,-6.1575,-6.1575,-6.1575,-6.1575,-6.1575,-6.118,-5.7029,-5.4933,-5.2668,-4.3162,-3.5956,-3.2782,-3.2878,-3.1965,-2.9957,-2.9627,-2.9535,-2.9509,-2.9509,-2.9509,-2.9509,-2.9509,-2.9509,-2.9509,-2.9509,-2.9509,-2.9509,-2.9509,-2.9509,-2.9509,-2.9509,-2.9509,-2.9509,-2.9509,-2.9509,-2.9509,-2.9509,-2.9509,-2.9509,-2.9509,-2.9509,-2.9509,-2.9509,-2.9509,-2.9509,-2.9509,-2.9509,-2.9509,-2.9509,-2.9509,-2.9509,-2.9509,-2.9509,-2.9509,-2.9509,-2.9509,-2.9482,-2.9416,-2.9311,-2.9166,-2.9021,-2.8836,-2.8546,-2.8256,-2.8098,-5.8147,-5.8147,-5.8147,-5.8147,-5.8199,-5.8744,-5.929,-5.9887,-6.0406,-6.0952,-6.1497,-6.1575,-6.1575,-6.1575,-6.1575,-6.1575,-6.1575,-6.1575,-6.1575,-6.1575,-6.1575,-6.1575,-6.1575,-6.1575,-6.1575,-6.1575,-6.1575,-6.1575,-6.1575,-6.1575,-6.1575,-6.1575,-6.1575,-6.1575,-6.1575,-6.1575,-6.1575,-6.1575,-6.1575,-6.1575,-6.1575,-6.1575,-6.1575,-6.1575,-6.1575,-6.1575,-6.1575,-6.1575,-6.1575,-6.1575,-6.1575,-6.1575,-6.1364,-6.0441,-5.9675,-5.8329,-5.4164,-5.0772,-4.8306,-3.993,-3.4532,-3.547,-3.5515,-3.3023,-2.9981,-2.9522,-2.9509,-2.9509,-2.9509,-2.9509,-2.9509,-2.9509,-2.9509,-2.9509,-2.9509,-2.9509,-2.9509,-2.9509,-2.9509,-2.9509,-2.9509,-2.9509,-2.9509,-2.9509,-2.9509,-2.9509,-2.9509,-2.9509,-2.9509,-2.9509,-2.9509,-2.9509,-2.9509,-2.9509,-2.9509,-2.9509,-2.9509,-2.9509,-2.9509,-2.9509,-2.9509,-2.9509,-2.9509,-2.9509,-2.9509,-2.9509,-2.9496,-2.9311,-2.9153,-2.9034,-2.8823,-2.8533,-2.8243,-2.8058,-2.794,-5.8147,-5.8147,-5.8147,-5.8147,-5.8173,-5.8303,-5.8926,-5.9809,-6.0043,-6.064,-6.1341,-6.1575,-6.1575,-6.1575,-6.1575,-6.1575,-6.1575,-6.1575,-6.1575,-6.1575,-6.1575,-6.1575,-6.1575,-6.1575,-6.1575,-6.1575,-6.1575,-6.1575,-6.1575,-6.1575,-6.1575,-6.1575,-6.1575,-6.1575,-6.1575,-6.1575,-6.1575,-6.1575,-6.1575,-6.1575,-6.1575,-6.1575,-6.1575,-6.1575,-6.1575,-6.1575,-6.1575,-6.1575,-6.1575,-6.1575,-6.1575,-6.1575,-6.0995,-5.8724,-5.6843,-5.512,-4.772,-4.3578,-4.0743,-3.7097,-3.2943,-3.2241,-3.184,-3.1738,-2.9627,-2.9509,-2.9509,-2.9509,-2.9509,-2.9509,-2.9509,-2.9509,-2.9509,-2.9509,-2.9509,-2.9509,-2.9509,-2.9509,-2.9509,-2.9509,-2.9509,-2.9509,-2.9509,-2.9509,-2.9509,-2.9509,-2.9509,-2.9509,-2.9509,-2.9509,-2.9509,-2.9509,-2.9509,-2.9509,-2.9509,-2.9509,-2.9509,-2.9509,-2.9509,-2.9509,-2.9509,-2.9509,-2.9509,-2.9509,-2.9509,-2.9482,-2.9403,-2.9192,-2.8995,-2.8731,-2.8467,-2.8203,-2.8045,-2.7913,-2.7821,-5.8147,-5.8147,-5.8147,-5.8147,-5.8147,-5.8147,-5.8796,-5.9679,-5.9861,-6.051,-6.1419,-6.1575,-6.1575,-6.1575,-6.1575,-6.1575,-6.1575,-6.1575,-6.1575,-6.1575,-6.1575,-6.1575,-6.1575,-6.1575,-6.1575,-6.1575,-6.1575,-6.1575,-6.1575,-6.1575,-6.1575,-6.1575,-6.1575,-6.1575,-6.1575,-6.1575,-6.1575,-6.1575,-6.1575,-6.1575,-6.1575,-6.1575,-6.1575,-6.1575,-6.1575,-6.1575,-6.1575,-6.1575,-6.1575,-6.1575,-6.1575,-6.1575,-6.0415,-5.7215,-5.3813,-5.2878,-4.2629,-3.6186,-3.5433,-3.2974,-3.1574,-3.0899,-3.0458,-3.0128,-2.968,-2.9509,-2.9509,-2.9509,-2.9509,-2.9509,-2.9509,-2.9509,-2.9509,-2.9509,-2.9509,-2.9509,-2.9509,-2.9509,-2.9509,-2.9509,-2.9509,-2.9509,-2.9509,-2.9509,-2.9509,-2.9509,-2.9509,-2.9509,-2.9509,-2.9509,-2.9509,-2.9509,-2.9509,-2.9509,-2.9509,-2.9509,-2.9509,-2.9509,-2.9509,-2.9509,-2.9509,-2.9509,-2.9509,-2.9509,-2.9482,-2.939,-2.9298,-2.9074,-2.8744,-2.8428,-2.8124,-2.8019,-2.7913,-2.7795,-2.7795,-5.8147,-5.8147,-5.8147,-5.8147,-5.8147,-5.8147,-5.8796,-5.9783,-5.9861,-6.051,-6.1549,-6.1575,-6.1575,-6.1575,-6.1575,-6.1575,-6.1575,-6.1575,-6.1575,-6.1575,-6.1575,-6.1575,-6.1575,-6.1575,-6.1575,-6.1575,-6.1575,-6.1575,-6.1575,-6.1575,-6.1575,-6.1575,-6.1575,-6.1575,-6.1575,-6.1575,-6.1575,-6.1575,-6.1575,-6.1575,-6.1575,-6.1575,-6.1575,-6.1575,-6.1575,-6.1575,-6.1575,-6.1575,-6.1575,-6.1575,-6.1575,-6.1575,-6.0626,-5.6447,-5.3626,-4.8326,-4.0761,-3.1456,-3.1829,-3.1443,-3.1051,-3.0577,-3.0419,-3.0076,-2.9707,-2.9509,-2.9509,-2.9509,-2.9509,-2.9509,-2.9509,-2.9509,-2.9509,-2.9509,-2.9509,-2.9509,-2.9509,-2.9509,-2.9509,-2.9509,-2.9509,-2.9509,-2.9509,-2.9509,-2.9509,-2.9509,-2.9509,-2.9509,-2.9509,-2.9509,-2.9509,-2.9509,-2.9509,-2.9509,-2.9509,-2.9509,-2.9509,-2.9509,-2.9509,-2.9509,-2.9509,-2.9509,-2.9509,-2.9456,-2.9416,-2.9351,-2.9021,-2.8731,-2.8493,-2.8243,-2.8019,-2.7887,-2.7795,-2.7795,-2.7795,-5.8147,-5.8147,-5.8147,-5.8147,-5.8147,-5.8147,-5.8796,-5.9705,-5.9861,-6.051,-6.1471,-6.1575,-6.1575,-6.1575,-6.1575,-6.1575,-6.1575,-6.1575,-6.1575,-6.1575,-6.1575,-6.1575,-6.1575,-6.1575,-6.1575,-6.1575,-6.1575,-6.1575,-6.1575,-6.1575,-6.1575,-6.1575,-6.1575,-6.1575,-6.1575,-6.1575,-6.1575,-6.1575,-6.1575,-6.1575,-6.1575,-6.1575,-6.1575,-6.1575,-6.1575,-6.1575,-6.1575,-6.1575,-6.1575,-6.1575,-6.1575,-6.1575,-6.0046,-5.302,-4.6211,-4.1678,-3.5448,-3.2022,-3.1249,-3.1236,-3.0959,-3.0405,-3.0392,-3.0063,-2.9693,-2.9509,-2.9509,-2.9509,-2.9509,-2.9509,-2.9509,-2.9509,-2.9509,-2.9509,-2.9509,-2.9509,-2.9509,-2.9509,-2.9509,-2.9509,-2.9509,-2.9509,-2.9509,-2.9509,-2.9509,-2.9509,-2.9509,-2.9509,-2.9509,-2.9509,-2.9509,-2.9509,-2.9509,-2.9509,-2.9509,-2.9509,-2.9509,-2.9509,-2.9509,-2.9509,-2.9509,-2.9509,-2.9443,-2.939,-2.9311,-2.9047,-2.8625,-2.8283,-2.8203,-2.8085,-2.79,-2.7795,-2.7795,-2.7795,-2.7795,-5.8147,-5.8147,-5.8147,-5.8147,-5.8147,-5.8147,-5.8796,-5.9757,-5.9887,-6.0484,-6.1289,-6.1575,-6.1575,-6.1575,-6.1575,-6.1575,-6.1575,-6.1575,-6.1575,-6.1575,-6.1575,-6.1575,-6.1575,-6.1575,-6.1575,-6.1575,-6.1575,-6.1575,-6.1575,-6.1575,-6.1575,-6.1575,-6.1575,-6.1575,-6.1575,-6.1575,-6.1575,-6.1575,-6.1575,-6.1575,-6.1575,-6.1575,-6.1575,-6.1575,-6.1575,-6.1575,-6.1575,-6.1575,-6.1575,-6.1575,-6.1575,-6.023,-5.6633,-5.075,-4.4337,-3.9408,-3.4294,-3.121,-3.1065,-3.1025,-3.0788,-3.0287,-3.0181,-2.9957,-2.9654,-2.9509,-2.9509,-2.9509,-2.9509,-2.9509,-2.9509,-2.9509,-2.9509,-2.9509,-2.9509,-2.9509,-2.9509,-2.9509,-2.9509,-2.9509,-2.9509,-2.9509,-2.9509,-2.9509,-2.9509,-2.9509,-2.9509,-2.9509,-2.9509,-2.9509,-2.9509,-2.9509,-2.9509,-2.9509,-2.9509,-2.9509,-2.9509,-2.9509,-2.9509,-2.9509,-2.9509,-2.9509,-2.9443,-2.9219,-2.8981,-2.8744,-2.8401,-2.8164,-2.8019,-2.7887,-2.7834,-2.7795,-2.7795,-2.7795,-2.7795,-5.8147,-5.8147,-5.8147,-5.8147,-5.8147,-5.8147,-5.8796,-5.9731,-5.9861,-6.051,-6.1471,-6.1575,-6.1575,-6.1575,-6.1575,-6.1575,-6.1575,-6.1575,-6.1575,-6.1575,-6.1575,-6.1575,-6.1575,-6.1575,-6.1575,-6.1575,-6.1575,-6.1575,-6.1575,-6.1575,-6.1575,-6.1575,-6.1575,-6.1575,-6.1575,-6.1575,-6.1575,-6.1575,-6.1575,-6.1575,-6.1575,-6.1575,-6.1575,-6.1575,-6.1575,-6.1575,-6.1575,-6.1575,-6.1575,-6.1575,-6.1575,-5.7772,-5.171,-4.7175,-4.2195,-3.7401,-3.3027,-3.1012,-3.0801,-3.0748,-3.0471,-3.0115,-2.9983,-2.9825,-2.9614,-2.9509,-2.9509,-2.9509,-2.9509,-2.9509,-2.9509,-2.9509,-2.9509,-2.9509,-2.9509,-2.9509,-2.9509,-2.9509,-2.9509,-2.9509,-2.9509,-2.9509,-2.9509,-2.9509,-2.9509,-2.9509,-2.9509,-2.9509,-2.9509,-2.9509,-2.9509,-2.9509,-2.9509,-2.9509,-2.9509,-2.9509,-2.9509,-2.9509,-2.9496,-2.9496,-2.9416,-2.9443,-2.9232,-2.8849,-2.8573,-2.8414,-2.8296,-2.8137,-2.7979,-2.7861,-2.7821,-2.7795,-2.7795,-2.7795,-2.7795,-5.8147,-5.8147,-5.8147,-5.8147,-5.8147,-5.8147,-5.8796,-5.9757,-5.9861,-6.0458,-6.1419,-6.1575,-6.1575,-6.1575,-6.1575,-6.1575,-6.1575,-6.1575,-6.1575,-6.1575,-6.1575,-6.1575,-6.1575,-6.1575,-6.1575,-6.1575,-6.1575,-6.1575,-6.1575,-6.1575,-6.1575,-6.1575,-6.1575,-6.1575,-6.1575,-6.1575,-6.1575,-6.1575,-6.1575,-6.1575,-6.1575,-6.1575,-6.1575,-6.1575,-6.1575,-6.1575,-6.1575,-6.1575,-6.139,-6.1575,-6.1575,-5.4141,-4.5265,-3.9947,-3.7783,-3.2789,-3.1835,-3.0748,-3.0524,-3.0432,-3.0326,-3.001,-2.9944,-2.9799,-2.9588,-2.9509,-2.9509,-2.9509,-2.9509,-2.9509,-2.9509,-2.9509,-2.9509,-2.9509,-2.9509,-2.9509,-2.9509,-2.9509,-2.9509,-2.9509,-2.9509,-2.9509,-2.9509,-2.9509,-2.9509,-2.9509,-2.9509,-2.9509,-2.9509,-2.9509,-2.9509,-2.9509,-2.9509,-2.9509,-2.9509,-2.9509,-2.9509,-2.9509,-2.9482,-2.9377,-2.9219,-2.9113,-2.8876,-2.848,-2.8243,-2.8124,-2.8006,-2.7966,-2.7927,-2.7847,-2.7795,-2.7795,-2.7795,-2.7795,-2.7768,-5.8147,-5.8147,-5.8147,-5.8147,-5.8147,-5.8173,-5.864,-5.9367,-5.9705,-6.0328,-6.103,-6.1445,-6.1575,-6.1575,-6.1575,-6.1575,-6.1575,-6.1575,-6.1575,-6.1575,-6.1575,-6.1575,-6.1575,-6.1575,-6.1575,-6.1575,-6.1575,-6.1575,-6.1575,-6.1575,-6.1575,-6.1575,-6.1575,-6.1575,-6.1575,-6.1575,-6.1575,-6.1575,-6.1575,-6.1575,-6.1575,-6.1575,-6.1575,-6.1575,-6.1575,-6.1575,-6.1575,-6.1575,-6.0046,-5.7586,-5.4724,-4.8662,-4.0709,-3.8654,-3.6055,-3.193,-3.0695,-3.0458,-3.0247,-3.0142,-3.0036,-2.9733,-2.972,-2.9627,-2.9561,-2.9509,-2.9509,-2.9509,-2.9509,-2.9509,-2.9509,-2.9509,-2.9509,-2.9509,-2.9509,-2.9509,-2.9509,-2.9509,-2.9509,-2.9509,-2.9509,-2.9509,-2.9509,-2.9509,-2.9509,-2.9509,-2.9509,-2.9509,-2.9509,-2.9509,-2.9509,-2.9509,-2.9509,-2.9509,-2.9509,-2.9509,-2.9509,-2.9456,-2.9377,-2.9179,-2.8981,-2.8757,-2.852,-2.8256,-2.8006,-2.7874,-2.7874,-2.7834,-2.7808,-2.7795,-2.7795,-2.7795,-2.7781,-2.7729,-2.7702,-5.8147,-5.8147,-5.8147,-5.8147,-5.8147,-5.8147,-5.8484,-5.9233,-5.9471,-6.0043,-6.0692,-6.1159,-6.1419,-6.1575,-6.1575,-6.1575,-6.1575,-6.1575,-6.1575,-6.1575,-6.1575,-6.1575,-6.1575,-6.1575,-6.1575,-6.1575,-6.1575,-6.1575,-6.1575,-6.1575,-6.1575,-6.1575,-6.1575,-6.1575,-6.1575,-6.1575,-6.1575,-6.1575,-6.1575,-6.1575,-6.1575,-6.1575,-6.1575,-6.1575,-6.1575,-6.1575,-6.1549,-6.06,-5.7586,-5.2833,-4.86,-4.4338,-3.8431,-3.7635,-3.5732,-3.1859,-3.0392,-3.0168,-2.9931,-2.9852,-2.9759,-2.9561,-2.9548,-2.9509,-2.9509,-2.9509,-2.9509,-2.9509,-2.9509,-2.9509,-2.9509,-2.9509,-2.9509,-2.9509,-2.9509,-2.9509,-2.9509,-2.9509,-2.9509,-2.9509,-2.9509,-2.9509,-2.9509,-2.9509,-2.9509,-2.9509,-2.9509,-2.9509,-2.9509,-2.9509,-2.9509,-2.9509,-2.9509,-2.9509,-2.9509,-2.9509,-2.9443,-2.9351,-2.914,-2.8929,-2.8718,-2.8493,-2.823,-2.7992,-2.7795,-2.7795,-2.7821,-2.7795,-2.7795,-2.7795,-2.7795,-2.7716,-2.765,-2.7663,-2.761,-5.8147,-5.8147,-5.8147,-5.8147,-5.8147,-5.8147,-5.8459,-5.8952,-5.9108,-5.9705,-6.0484,-6.0744,-6.1081,-6.1575,-6.1523,-6.1575,-6.1575,-6.1575,-6.1575,-6.1575,-6.1575,-6.1575,-6.1575,-6.1575,-6.1575,-6.1575,-6.1575,-6.1575,-6.1575,-6.1575,-6.1575,-6.1575,-6.1575,-6.1575,-6.1575,-6.1575,-6.1575,-6.1575,-6.1575,-6.1575,-6.1575,-6.1575,-6.1575,-6.1575,-6.1575,-6.1575,-6.0626,-5.7401,-5.323,-4.7741,-4.6213,-4.1031,-3.4035,-3.6,-3.4601,-3.106,-3.0049,-2.9878,-2.9627,-2.9601,-2.9548,-2.9522,-2.9509,-2.9509,-2.9509,-2.9509,-2.9509,-2.9509,-2.9509,-2.9509,-2.9509,-2.9509,-2.9509,-2.9509,-2.9509,-2.9509,-2.9509,-2.9509,-2.9509,-2.9509,-2.9509,-2.9509,-2.9509,-2.9509,-2.9509,-2.9509,-2.9509,-2.9509,-2.9509,-2.9509,-2.9509,-2.9509,-2.9509,-2.9509,-2.9482,-2.9482,-2.9337,-2.9166,-2.8902,-2.8691,-2.848,-2.8217,-2.7953,-2.7821,-2.7808,-2.7795,-2.7795,-2.7795,-2.7795,-2.7781,-2.7689,-2.7597,-2.7491,-2.7491,-2.732,-5.8147,-5.8147,-5.8147,-5.8147,-5.8147,-5.8147,-5.8303,-5.8536,-5.8848,-5.9316,-5.9783,-6.038,-6.0822,-6.1081,-6.1419,-6.1575,-6.1575,-6.1575,-6.1575,-6.1575,-6.1575,-6.1575,-6.1575,-6.1575,-6.1575,-6.1575,-6.1575,-6.1575,-6.1575,-6.1575,-6.1575,-6.1575,-6.1575,-6.1575,-6.1575,-6.1575,-6.1575,-6.1575,-6.1575,-6.1575,-6.1575,-6.1575,-6.1575,-6.1575,-6.1575,-6.1575,-6.0995,-5.6819,-5.3252,-5.029,-4.4713,-3.9627,-3.565,-3.4288,-3.2106,-3.0341,-2.9786,-2.9654,-2.9535,-2.9509,-2.9509,-2.9509,-2.9509,-2.9509,-2.9509,-2.9509,-2.9509,-2.9509,-2.9509,-2.9509,-2.9509,-2.9509,-2.9509,-2.9509,-2.9509,-2.9509,-2.9509,-2.9509,-2.9509,-2.9509,-2.9509,-2.9509,-2.9509,-2.9509,-2.9509,-2.9509,-2.9509,-2.9509,-2.9509,-2.9509,-2.9509,-2.9509,-2.9509,-2.9377,-2.9311,-2.9258,-2.914,-2.8902,-2.8665,-2.8493,-2.8243,-2.794,-2.7821,-2.7808,-2.7795,-2.7795,-2.7795,-2.7795,-2.7768,-2.7689,-2.7584,-2.7491,-2.736,-2.7294,-2.7017,-5.8147,-5.8147,-5.8147,-5.8147,-5.8147,-5.8147,-5.8147,-5.8225,-5.8614,-5.8848,-5.9186,-5.9913,-6.0354,-6.0718,-6.1159,-6.1419,-6.1523,-6.1575,-6.1575,-6.1575,-6.1575,-6.1575,-6.1575,-6.1575,-6.1575,-6.1575,-6.1575,-6.1575,-6.1575,-6.1575,-6.1575,-6.1575,-6.1575,-6.1575,-6.1575,-6.1575,-6.1575,-6.1575,-6.1575,-6.1575,-6.1575,-6.1575,-6.1575,-6.1575,-6.1575,-6.1575,-6.118,-5.7958,-5.5655,-5.3422,-4.4819,-3.9695,-3.7744,-3.4315,-3.164,-3.0154,-2.9641,-2.9509,-2.9509,-2.9509,-2.9509,-2.9509,-2.9509,-2.9509,-2.9509,-2.9509,-2.9509,-2.9509,-2.9509,-2.9509,-2.9509,-2.9509,-2.9509,-2.9509,-2.9509,-2.9509,-2.9509,-2.9509,-2.9509,-2.9509,-2.9509,-2.9509,-2.9509,-2.9509,-2.9509,-2.9509,-2.9509,-2.9509,-2.9509,-2.9509,-2.943,-2.9456,-2.9364,-2.9219,-2.9087,-2.9021,-2.8876,-2.8625,-2.8428,-2.8243,-2.8019,-2.7808,-2.7795,-2.7795,-2.7781,-2.7781,-2.7781,-2.7742,-2.7689,-2.7623,-2.7465,-2.7267,-2.7162,-2.699,-2.6713,-5.8147,-5.8147,-5.8147,-5.8147,-5.8147,-5.8147,-5.8147,-5.8147,-5.8225,-5.8536,-5.8926,-5.9186,-5.9731,-6.051,-6.0666,-6.103,-6.1471,-6.1497,-6.1471,-6.1471,-6.1575,-6.1575,-6.1575,-6.1575,-6.1575,-6.1575,-6.1575,-6.1575,-6.1575,-6.1575,-6.1575,-6.1575,-6.1575,-6.1575,-6.1575,-6.1575,-6.1575,-6.1575,-6.1575,-6.1575,-6.1575,-6.1575,-6.1575,-6.1575,-6.1575,-6.1575,-6.1549,-6.0734,-5.8242,-5.3431,-4.8237,-4.2905,-3.8356,-3.6747,-3.3516,-2.9744,-2.9535,-2.9509,-2.9509,-2.9509,-2.9509,-2.9509,-2.9509,-2.9509,-2.9509,-2.9509,-2.9509,-2.9509,-2.9509,-2.9509,-2.9509,-2.9509,-2.9509,-2.9509,-2.9509,-2.9509,-2.9509,-2.9509,-2.9509,-2.9509,-2.9509,-2.9509,-2.9509,-2.9509,-2.9509,-2.9509,-2.9482,-2.9456,-2.9456,-2.9364,-2.9337,-2.9245,-2.9126,-2.8955,-2.8731,-2.8665,-2.8573,-2.8335,-2.8124,-2.7992,-2.7847,-2.7795,-2.7795,-2.7781,-2.7768,-2.7768,-2.7742,-2.7636,-2.7557,-2.7412,-2.7215,-2.7043,-2.6859,-2.6661,-2.6423,-5.8147,-5.8147,-5.8147,-5.8147,-5.8147,-5.8147,-5.8147,-5.8147,-5.8147,-5.8277,-5.8536,-5.8848,-5.9264,-5.9653,-6.0017,-6.0484,-6.0978,-6.103,-6.1004,-6.1056,-6.1341,-6.1549,-6.1575,-6.1575,-6.1575,-6.1575,-6.1575,-6.1575,-6.1575,-6.1575,-6.1575,-6.1575,-6.1575,-6.1575,-6.1575,-6.1575,-6.1575,-6.1575,-6.1575,-6.1575,-6.1575,-6.1575,-6.1575,-6.1575,-6.1575,-6.1575,-6.1523,-6.1211,-5.9833,-5.7435,-5.5391,-5.003,-4.2115,-3.564,-3.1487,-2.9874,-2.9509,-2.9509,-2.9509,-2.9509,-2.9509,-2.9509,-2.9509,-2.9509,-2.9509,-2.9509,-2.9509,-2.9509,-2.9509,-2.9509,-2.9509,-2.9509,-2.9509,-2.9509,-2.9509,-2.9509,-2.9509,-2.9509,-2.9509,-2.9509,-2.9509,-2.9509,-2.9509,-2.9509,-2.9509,-2.9482,-2.9364,-2.9258,-2.9219,-2.91,-2.8968,-2.8863,-2.881,-2.8665,-2.8428,-2.8322,-2.8243,-2.8072,-2.7887,-2.7834,-2.7795,-2.7795,-2.7755,-2.7742,-2.7636,-2.761,-2.7491,-2.7425,-2.7307,-2.7096,-2.6898,-2.6753,-2.6621,-2.6397,-2.6226,-5.8147,-5.8147,-5.8147,-5.8147,-5.8147,-5.8147,-5.8147,-5.8147,-5.8147,-5.8147,-5.8225,-5.8562,-5.8848,-5.9082,-5.9393,-5.9913,-6.0406,-6.025,-6.038,-6.0718,-6.1107,-6.1367,-6.1523,-6.1575,-6.1575,-6.1575,-6.1575,-6.1575,-6.1575,-6.1575,-6.1575,-6.1575,-6.1575,-6.1575,-6.1575,-6.1575,-6.1575,-6.1575,-6.1575,-6.1575,-6.1575,-6.1575,-6.1575,-6.1575,-6.1575,-6.1367,-6.103,-6.0666,-6.0173,-5.9627,-5.9601,-5.4933,-4.4877,-3.5031,-2.9691,-2.9509,-2.9509,-2.9509,-2.9509,-2.9509,-2.9509,-2.9509,-2.9509,-2.9509,-2.9509,-2.9509,-2.9509,-2.9509,-2.9509,-2.9509,-2.9509,-2.9509,-2.9509,-2.9509,-2.9509,-2.9509,-2.9509,-2.9509,-2.9509,-2.9509,-2.9509,-2.9509,-2.9509,-2.939,-2.9364,-2.9337,-2.9126,-2.8968,-2.8942,-2.881,-2.8652,-2.852,-2.848,-2.8414,-2.8203,-2.8058,-2.8019,-2.7913,-2.7834,-2.7795,-2.7795,-2.7781,-2.7716,-2.7636,-2.7478,-2.736,-2.7228,-2.7096,-2.6977,-2.6793,-2.6674,-2.6529,-2.6384,-2.6212,-2.6054,-5.8147,-5.8147,-5.8147,-5.8147,-5.8147,-5.8147,-5.8147,-5.8147,-5.8147,-5.8147,-5.8147,-5.8173,-5.851,-5.89,-5.8978,-5.9316,-5.9653,-5.9393,-5.9679,-6.0484,-6.0666,-6.0978,-6.1393,-6.1393,-6.1367,-6.1393,-6.1523,-6.1549,-6.1575,-6.1575,-6.1575,-6.1575,-6.1575,-6.1575,-6.1575,-6.1575,-6.1575,-6.1575,-6.1575,-6.1575,-6.1575,-6.1575,-6.1549,-6.1497,-6.1445,-6.0952,-5.9939,-5.9887,-5.9601,-5.9108,-5.903,-5.4225,-4.432,-3.4741,-2.9509,-2.9509,-2.9509,-2.9509,-2.9509,-2.9509,-2.9509,-2.9509,-2.9509,-2.9509,-2.9509,-2.9509,-2.9509,-2.9509,-2.9509,-2.9509,-2.9509,-2.9509,-2.9509,-2.9509,-2.9509,-2.9509,-2.9509,-2.9509,-2.9509,-2.9469,-2.9416,-2.9482,-2.9443,-2.9258,-2.91,-2.9047,-2.8849,-2.8652,-2.8639,-2.8573,-2.848,-2.8296,-2.8203,-2.8151,-2.7966,-2.7795,-2.7795,-2.7795,-2.7768,-2.7742,-2.7716,-2.7676,-2.7597,-2.7399,-2.7241,-2.7122,-2.6977,-2.6766,-2.6634,-2.6542,-2.6489,-2.6371,-2.6186,-2.6015,-2.5856,-5.8147,-5.8147,-5.8147,-5.8147,-5.8147,-5.8147,-5.8147,-5.8147,-5.8147,-5.8147,-5.8147,-5.8147,-5.8251,-5.8407,-5.8433,-5.8536,-5.8692,-5.8952,-5.9212,-5.9575,-5.9965,-6.0224,-6.038,-6.0406,-6.0406,-6.0458,-6.0796,-6.1185,-6.1523,-6.1575,-6.1575,-6.1549,-6.1575,-6.1575,-6.1575,-6.1575,-6.1575,-6.1575,-6.1575,-6.1549,-6.1575,-6.1575,-6.1367,-6.0978,-6.0614,-6.0043,-5.9341,-5.929,-5.903,-5.851,-5.8433,-5.4041,-4.4221,-3.4725,-2.9509,-2.9509,-2.9509,-2.9509,-2.9509,-2.9509,-2.9509,-2.9509,-2.9509,-2.9509,-2.9509,-2.9509,-2.9509,-2.9509,-2.9509,-2.9509,-2.9509,-2.9509,-2.9509,-2.9509,-2.9509,-2.9509,-2.9509,-2.9496,-2.9416,-2.9245,-2.9087,-2.8955,-2.8915,-2.8849,-2.881,-2.8797,-2.8546,-2.8362,-2.8322,-2.8203,-2.8019,-2.7953,-2.7953,-2.7887,-2.7795,-2.7702,-2.7676,-2.7689,-2.7676,-2.7623,-2.7571,-2.7505,-2.7386,-2.7149,-2.699,-2.6872,-2.67,-2.6463,-2.6318,-2.6226,-2.6173,-2.6094,-2.5909,-2.5764,-2.5593,-5.8147,-5.8147,-5.8147,-5.8147,-5.8147,-5.8147,-5.8147,-5.8147,-5.8147,-5.8147,-5.8147,-5.8147,-5.8147,-5.8147,-5.8147,-5.8147,-5.8173,-5.851,-5.8822,-5.9233,-5.9393,-5.9653,-5.9835,-5.9861,-5.9861,-5.9913,-6.0224,-6.0588,-6.0926,-6.0952,-6.0952,-6.0952,-6.0952,-6.0952,-6.0952,-6.0952,-6.0952,-6.0926,-6.0952,-6.0952,-6.0926,-6.0952,-6.0666,-6.0095,-5.9731,-5.929,-5.8718,-5.8692,-5.8536,-5.8173,-5.8147,-5.3673,-4.4558,-3.7944,-3.329,-3.0056,-2.9509,-2.9509,-2.9509,-2.9509,-2.9509,-2.9509,-2.9509,-2.9509,-2.9509,-2.9509,-2.9509,-2.9509,-2.9509,-2.9443,-2.9403,-2.9364,-2.9324,-2.9232,-2.9205,-2.9179,-2.9192,-2.9192,-2.914,-2.8955,-2.8784,-2.8652,-2.8665,-2.8559,-2.8493,-2.8467,-2.8243,-2.8085,-2.8032,-2.7927,-2.7821,-2.7795,-2.7795,-2.7768,-2.7676,-2.7571,-2.7491,-2.7491,-2.7478,-2.736,-2.7294,-2.7215,-2.7083,-2.6845,-2.6766,-2.6648,-2.6423,-2.6199,-2.6081,-2.5975,-2.5883,-2.5764,-2.5514,-2.5474,-2.5329,-5.8147,-5.8147,-5.8147,-5.8147,-5.8147,-5.8147,-5.8147,-5.8147,-5.8147,-5.8147,-5.8147,-5.8147,-5.8147,-5.8147,-5.8147,-5.8147,-5.8147,-5.8173,-5.8484,-5.89,-5.8978,-5.9264,-5.9757,-5.9783,-5.9757,-5.9627,-5.9757,-5.9835,-5.9861,-5.9887,-5.9861,-5.9887,-5.9965,-5.9913,-5.9939,-5.9965,-5.9887,-5.9991,-5.9991,-5.9913,-5.9913,-5.9835,-5.9523,-5.9082,-5.8978,-5.8744,-5.8251,-5.8147,-5.8147,-5.8147,-5.8147,-5.4024,-4.5449,-4.4043,-3.9564,-3.1501,-2.9691,-2.9509,-2.9509,-2.9509,-2.9509,-2.9509,-2.9509,-2.9509,-2.9509,-2.9509,-2.9509,-2.9509,-2.9456,-2.9324,-2.9126,-2.9074,-2.8968,-2.8744,-2.8691,-2.8691,-2.8678,-2.8744,-2.8665,-2.8639,-2.8612,-2.8559,-2.8559,-2.8362,-2.8217,-2.8151,-2.7979,-2.7821,-2.7834,-2.7821,-2.7795,-2.7795,-2.7755,-2.7663,-2.7373,-2.7215,-2.703,-2.703,-2.7096,-2.6951,-2.6911,-2.6859,-2.6713,-2.6582,-2.6502,-2.6357,-2.6146,-2.5975,-2.5856,-2.5764,-2.5672,-2.5474,-2.5224,-2.5184,-2.5039,-5.8147,-5.8147,-5.8147,-5.8147,-5.8147,-5.8147,-5.8147,-5.8147,-5.8147,-5.8147,-5.8147,-5.8147,-5.8147,-5.8147,-5.8147,-5.8147,-5.8147,-5.8147,-5.8251,-5.8355,-5.8407,-5.8484,-5.8614,-5.8614,-5.8614,-5.8692,-5.9056,-5.9238,-5.929,-5.9627,-5.9861,-5.9861,-5.9861,-5.9861,-5.9861,-5.9861,-5.9861,-5.9835,-5.9861,-5.9861,-5.9731,-5.9056,-5.8536,-5.8407,-5.8381,-5.8329,-5.8147,-5.8147,-5.8147,-5.8147,-5.8147,-5.5276,-4.9374,-4.902,-4.4736,-3.5795,-3.1487,-2.9509,-2.9509,-2.9509,-2.9509,-2.9509,-2.9509,-2.9509,-2.9509,-2.9509,-2.9509,-2.9469,-2.9126,-2.8889,-2.8784,-2.877,-2.8744,-2.8665,-2.8652,-2.8652,-2.8639,-2.8652,-2.8546,-2.8362,-2.8335,-2.8269,-2.8072,-2.7979,-2.7913,-2.7913,-2.7834,-2.7795,-2.7795,-2.7768,-2.7768,-2.7795,-2.7597,-2.7373,-2.7096,-2.6911,-2.6758,-2.6732,-2.6692,-2.6793,-2.6648,-2.6621,-2.6516,-2.6252,-2.6199,-2.6094,-2.5949,-2.5804,-2.5659,-2.558,-2.5434,-2.521,-2.4933,-2.4868,-2.4736,-5.8147,-5.8147,-5.8147,-5.8147,-5.8147,-5.8147,-5.8147,-5.8147,-5.8147,-5.8147,-5.8147,-5.8147,-5.8147,-5.8147,-5.8147,-5.8147,-5.8147,-5.8147,-5.8147,-5.8147,-5.8147,-5.8147,-5.8147,-5.8147,-5.8147,-5.8199,-5.8484,-5.8666,-5.8718,-5.9004,-5.916,-5.916,-5.916,-5.916,-5.916,-5.916,-5.916,-5.916,-5.916,-5.916,-5.9082,-5.8484,-5.8147,-5.8147,-5.8147,-5.8147,-5.8147,-5.8147,-5.8147,-5.8147,-5.8147,-5.6001,-5.1162,-5.0986,-4.6694,-3.7567,-3.3985,-3.1668,-2.9691,-2.9509,-2.9469,-2.9351,-2.9337,-2.9285,-2.9179,-2.9153,-2.9166,-2.9126,-2.8849,-2.8599,-2.8493,-2.8467,-2.8428,-2.8322,-2.8296,-2.8296,-2.8309,-2.8296,-2.8243,-2.8085,-2.8045,-2.7966,-2.7834,-2.7795,-2.7742,-2.7623,-2.7491,-2.7399,-2.7425,-2.7439,-2.7439,-2.7399,-2.7188,-2.6938,-2.6779,-2.6648,-2.6555,-2.6542,-2.6555,-2.6529,-2.6344,-2.6318,-2.6212,-2.5922,-2.5883,-2.5843,-2.5751,-2.554,-2.5434,-2.5369,-2.521,-2.492,-2.4617,-2.4472,-2.4287,-5.8147,-5.8147,-5.8147,-5.8147,-5.8147,-5.8147,-5.8147,-5.8147,-5.8147,-5.8147,-5.8147,-5.8147,-5.8147,-5.8147,-5.8147,-5.8147,-5.8147,-5.8147,-5.8147,-5.8147,-5.8147,-5.8147,-5.8147,-5.8147,-5.8147,-5.8147,-5.8173,-5.8199,-5.8199,-5.8199,-5.8173,-5.8147,-5.8147,-5.8199,-5.8173,-5.8173,-5.8173,-5.8147,-5.8147,-5.8147,-5.8147,-5.8147,-5.8147,-5.8147,-5.8147,-5.8147,-5.8147,-5.8147,-5.8147,-5.8147,-5.8147,-5.6176,-5.2219,-5.1645,-4.734,-3.8236,-3.7825,-3.5338,-3.0144,-2.943,-2.9311,-2.91,-2.906,-2.8955,-2.8704,-2.8612,-2.8573,-2.8573,-2.8573,-2.8428,-2.8203,-2.8177,-2.8072,-2.7834,-2.7781,-2.7742,-2.7716,-2.7716,-2.7716,-2.7716,-2.7676,-2.7716,-2.765,-2.7636,-2.7571,-2.7333,-2.7135,-2.7004,-2.7004,-2.7004,-2.699,-2.6819,-2.6634,-2.6476,-2.6437,-2.6212,-2.6133,-2.6041,-2.6015,-2.5988,-2.5949,-2.5922,-2.5883,-2.5619,-2.5566,-2.55,-2.5329,-2.5158,-2.5158,-2.5105,-2.4907,-2.4617,-2.4327,-2.4063,-2.3786,-5.8147,-5.8147,-5.8147,-5.8147,-5.8147,-5.8147,-5.8147,-5.8147,-5.8147,-5.8147,-5.8147,-5.8147,-5.8147,-5.8147,-5.8147,-5.8147,-5.8147,-5.8147,-5.8147,-5.8147,-5.8147,-5.8147,-5.8147,-5.8147,-5.8147,-5.8147,-5.8147,-5.8147,-5.8147,-5.8147,-5.8147,-5.8147,-5.8147,-5.8147,-5.8147,-5.8147,-5.8147,-5.8147,-5.8147,-5.8147,-5.8147,-5.8147,-5.8147,-5.8147,-5.8147,-5.8147,-5.8147,-5.8147,-5.8147,-5.8147,-5.8147,-5.7624,-5.6525,-5.6146,-5.1658,-4.3471,-4.4768,-4.1445,-3.0248,-2.8849,-2.8823,-2.8757,-2.8757,-2.8731,-2.8625,-2.8256,-2.7992,-2.7992,-2.7992,-2.7966,-2.7887,-2.7887,-2.7768,-2.7505,-2.7452,-2.7373,-2.7149,-2.7109,-2.7109,-2.7109,-2.7096,-2.7122,-2.7109,-2.7109,-2.7083,-2.703,-2.6951,-2.6732,-2.6732,-2.6732,-2.67,-2.6397,-2.6199,-2.6146,-2.6146,-2.6067,-2.5949,-2.5725,-2.5711,-2.5632,-2.5487,-2.5408,-2.5342,-2.5316,-2.5289,-2.5237,-2.5184,-2.4999,-2.4841,-2.4802,-2.4577,-2.4301,-2.4037,-2.376,-2.347,-5.8147,-5.8147,-5.8147,-5.8147,-5.8147,-5.8147,-5.8147,-5.8147,-5.8147,-5.8147,-5.8147,-5.8147,-5.8147,-5.8147,-5.8147,-5.8147,-5.8147,-5.8147,-5.8147,-5.8147,-5.8147,-5.8147,-5.8147,-5.8147,-5.8147,-5.8147,-5.8147,-5.8147,-5.8147,-5.8147,-5.8147,-5.8147,-5.8147,-5.8147,-5.8147,-5.8147,-5.8147,-5.8121,-5.7394,-5.6978,-5.6978,-5.6719,-5.6563,-5.6589,-5.7108,-5.7368,-5.7368,-5.7368,-5.7264,-5.7004,-5.7004,-5.6978,-5.6978,-5.6693,-5.3501,-4.6731,-4.8263,-4.4125,-3.2483,-3.1616,-3.0677,-2.8643,-2.8454,-2.8296,-2.79,-2.7557,-2.7386,-2.7386,-2.7386,-2.7386,-2.7386,-2.7386,-2.732,-2.7162,-2.7149,-2.7083,-2.6938,-2.6732,-2.6732,-2.6732,-2.6732,-2.6732,-2.6732,-2.6732,-2.6705,-2.6727,-2.6713,-2.6648,-2.6516,-2.6502,-2.6384,-2.612,-2.5936,-2.5856,-2.5843,-2.5751,-2.5606,-2.5461,-2.5421,-2.5355,-2.5237,-2.5353,-2.5144,-2.5026,-2.4986,-2.4947,-2.4775,-2.4551,-2.4393,-2.4327,-2.4116,-2.3905,-2.3734,-2.3575,-2.3298,-5.7913,-5.7913,-5.7913,-5.7913,-5.7939,-5.7991,-5.8043,-5.8017,-5.7939,-5.7965,-5.8043,-5.8043,-5.8095,-5.8147,-5.8147,-5.8147,-5.8147,-5.8147,-5.8147,-5.8147,-5.8147,-5.8147,-5.8147,-5.8147,-5.8147,-5.8147,-5.8147,-5.8147,-5.8147,-5.8147,-5.8147,-5.8147,-5.8147,-5.8147,-5.8147,-5.8147,-5.8121,-5.8017,-5.6589,-5.5862,-5.5836,-5.5342,-5.5091,-5.4831,-5.5732,-5.6251,-5.5991,-5.6121,-5.5913,-5.529,-5.5238,-5.5238,-5.5238,-5.516,-5.3347,-4.9476,-4.9623,-4.5811,-3.669,-3.6516,-3.484,-3.0269,-2.9218,-2.8545,-2.7743,-2.7702,-2.7397,-2.6898,-2.6938,-2.6732,-2.6732,-2.6758,-2.6911,-2.6859,-2.6845,-2.6832,-2.6753,-2.6753,-2.674,-2.674,-2.6779,-2.6766,-2.6727,-2.674,-2.6648,-2.6489,-2.6423,-2.6344,-2.6146,-2.5988,-2.5936,-2.5896,-2.5711,-2.5566,-2.5527,-2.5342,-2.5237,-2.5144,-2.5131,-2.5105,-2.5167,-2.4986,-2.4894,-2.467,-2.4591,-2.4485,-2.4235,-2.3984,-2.3879,-2.3852,-2.3694,-2.347,-2.3404,-2.3325,-2.3153,-5.6744,-5.6744,-5.6574,-5.6744,-5.677,-5.7264,-5.7472,-5.742,-5.6952,0.0,0.0,-5.7472,-5.7731,-5.8147,-5.8147,-5.8147,-5.8147,-5.8147,-5.8147,-5.8147,-5.8147,-5.8147,-5.8147,-5.8147,-5.8147,-5.8147,-5.8147,-5.8147,-5.8147,-5.8147,-5.8147,-5.8147,-5.8147,-5.8147,-5.8147,-5.8147,-5.7913,-5.7472,-5.716,-5.7004,-5.7004,-5.69,-5.5939,-5.4044,-5.5134,-5.5082,-5.3706,-5.4511,-5.4537,-5.3524,-5.3472,-5.3472,-5.3446,-5.3005,-5.1084,-4.7867,-5.0548,-4.8336,-3.9602,-4.2253,-4.2376,-3.7841,-3.4238,-3.2056,-3.1422,-3.182,-3.0686,-2.7064,-2.6732,-2.6898,-2.6732,-2.6898,-2.6819,-2.6595,-2.6568,-2.6463,-2.6239,-2.6199,-2.6199,-2.6199,-2.6199,-2.6199,-2.6199,-2.6199,-2.6173,-2.6133,-2.6107,-2.6094,-2.6015,-2.5659,-2.5395,-2.5395,-2.5342,-2.5419,-2.525,-2.5184,-2.5105,-2.4854,-2.4815,-2.4736,-2.4538,-2.4459,-2.434,-2.4103,-2.405,-2.3931,-2.3681,-2.3575,-2.3681,-2.3523,-2.3628,-2.3378,-2.3127,-2.2903,-2.2731,-5.629,-5.629,-5.629,-5.629,0.0,-5.6744,-5.6719,-5.6459,-5.6433,-5.6589,-5.6874,-5.6874,-5.703,-5.729,-5.729,-5.729,-5.7316,-5.7601,-5.7731,-5.7757,-5.8017,-5.8147,-5.8147,-5.8147,-5.8147,-5.8147,-5.8147,-5.8147,-5.8147,-5.8147,-5.8017,-5.7731,-5.7731,-5.729,-5.6459,-5.7004,-5.6848,-5.6159,-5.5706,-5.555,-5.5524,-5.529,-5.4589,-5.3498,-5.4537,0.0,0.0,0.0,0.0,0.0,0.0,0.0,0.0,-5.1914,0.0,-4.902,-4.9806,-4.7576,-4.1433,-4.2871,-4.2446,-3.8475,-3.6304,-3.5549,-3.6503,-3.5133,-3.3364,-3.1347,-3.1336,-3.1671,-3.1849,-3.2025,-3.196,-3.1639,-2.9897,-2.8743,-2.8437,-2.6858,-2.5619,-2.5619,-2.5619,-2.5619,-2.5606,-2.5606,-2.5619,-2.5619,-2.5619,-2.5606,-2.558,-2.5369,-2.5353,-2.534,-2.5078,-2.4973,-2.496,-2.4868,-2.463,-2.4393,-2.4314,-2.4195,-2.3918,-2.3865,-2.3826,-2.3707,-2.3668,-2.3628,-2.347,-2.3312,-2.3219,-2.3206,-2.3101,-2.2942,-2.2824,-2.2679,-2.2586,-5.6017,-5.6121,-5.6121,-5.6121,-5.6095,-5.5991,-5.5706,-5.5316,-5.5862,-5.6121,-5.6121,-5.6225,-5.6355,-5.6264,-5.629,-5.629,-5.6485,-5.6952,-5.716,-5.716,-5.7627,-5.7835,-5.7835,-5.7835,-5.7835,-5.7835,-5.7835,-5.7835,-5.7835,-5.7835,-5.7601,-5.716,-5.716,-5.6381,-5.5169,0.0,0.0,0.0,-5.4251,-5.4173,-5.4147,-5.3732,-5.329,-5.2875,-5.4101,0.0,-5.4101,-5.4096,-5.3862,-5.3109,-5.3031,0.0,0.0,0.0,0.0,0.0,0.0,0.0,0.0,0.0,0.0,0.0,-3.8575,-3.9478,-4.1516,-3.8381,-3.5778,-3.4989,-3.5636,-3.6209,-3.6383,-3.6461,-3.6709,-3.6635,-3.3913,-3.1823,-3.1121,-2.9008,-2.6726,-2.5651,-2.5963,-2.6118,-2.5522,-2.5353,-2.5197,-2.538,-2.5353,-2.5766,-2.719,-2.7749,-2.7455,-2.7287,-2.7593,-2.6797,-2.6603,-2.591,-2.5522,-2.4751,-2.4535,-2.372,-2.3536,-2.347,-2.3457,-2.3364,-2.3364,-2.3351,-2.3272,-2.3088,-2.2916,-2.2774,-2.2745,-2.2586,-2.2586,-2.2547,-2.2507,-5.4459,-5.5091,-5.5091,-5.4927,-5.4901,-5.4381,-5.4147,-5.4122,-5.4693,-5.5091,-5.5143,-5.5498,-5.5991,-5.6264,-5.629,-5.629,-5.629,-5.6537,-5.6563,-5.6563,-5.6641,-5.6667,-5.6667,-5.6497,-5.6667,-5.6667,-5.6667,-5.6667,-5.6667,-5.6667,-5.6615,-5.6563,-5.6537,-5.6199,-5.5498,-5.5108,-5.4355,-5.3265,-5.4641,-5.5368,-5.5394,-5.5316,-5.4303,-5.2407,-5.3342,-5.3031,-5.1288,-5.194,-5.1732,-5.0252,-5.0148,-5.0096,-5.0018,-4.9369,-4.8953,0.0,-4.8304,0.0,0.0,0.0,0.0,0.0,0.0,0.0,0.0,-4.2281,-3.8246,-3.4145,-3.5308,-3.5713,-3.4874,-3.5142,-3.5655,-3.6151,-3.5759,-3.425,-3.1686,-3.3714,-3.2812,-2.5963,-2.8249,-2.9008,-2.6077,-2.5353,-2.534,-2.5766,-2.5867,-2.7741,-3.2995,-3.417,-3.4021,-3.4781,-3.4295,-3.2812,-3.2378,-3.0201,-2.8277,-2.7941,-2.6079,-2.3642,-2.3562,-2.3562,-2.3496,-2.3127,-2.3061,-2.2982,-2.2731,-2.2679,-2.2652,-2.2652,-2.2586,-2.2547,-2.2521,-2.2362,-2.2217,-5.3524,-5.3758,-5.3919,-5.3919,-5.3919,-5.3498,-5.3368,-5.3394,-5.3815,-5.3758,-5.3784,-5.4044,-5.4303,-5.4537,-5.4537,-5.4537,-5.4563,-5.4875,-5.5005,-5.503,-5.5316,-5.5472,-5.5498,-5.5836,-5.5965,-5.5991,-5.6303,-5.629,-5.629,-5.629,-5.6303,-5.5991,-5.5991,-5.4745,-5.2382,-5.2615,-5.2719,-5.2537,-5.329,-5.3836,-5.4147,-5.4147,-5.368,-5.2667,-5.3109,-5.2901,-5.1914,-5.2356,-5.2278,-5.1525,-5.1499,-5.1187,-5.0564,-4.8824,-4.7681,0.0,0.0,0.0,0.0,0.0,0.0,0.0,0.0,0.0,0.0,0.0,-4.0955,-3.8839,-4.0186,-4.1035,-4.046,-4.062,-4.0852,-4.0783,-3.8789,-3.6891,-3.5361,-3.5164,-3.3722,-3.0399,-3.1406,-3.1985,-3.0935,-3.0537,-3.0537,-3.1253,-3.0157,-3.054,-3.3632,-3.4457,-3.4755,-3.4755,-3.4774,-3.4593,-3.4418,-3.2959,-3.1197,-2.9318,-2.911,-2.7785,-2.3835,-2.4644,-2.5293,-2.322,-2.2771,-2.2731,-2.2613,-2.2586,-2.2586,-2.2547,-2.2323,-2.2112,-2.2099,-2.198,-2.1901,-5.2875,-5.2953,-5.2407,-5.2252,-5.2407,-5.2537,-5.2667,-5.2797,-5.2927,-5.2927,-5.2797,-5.2953,-5.2693,-5.2174,-5.2044,-5.22,-5.2615,-5.3057,-5.3368,-5.3654,-5.4096,-5.4466,-5.4492,-5.4771,-5.4979,-5.5005,-5.542,-5.5628,-5.5628,-5.5498,-5.5082,-5.4407,-5.4381,-5.2771,-4.9759,-5.059,-5.1447,-5.2122,-5.2278,-5.2563,-5.3138,-5.3164,-5.3164,-5.3164,-5.3164,-5.3112,-5.2797,-5.2667,-5.2537,-5.2407,-5.2018,-5.1343,-5.0304,-4.7837,0.0,0.0,0.0,0.0,0.0,0.0,0.0,0.0,0.0,-4.2979,-4.0565,0.0,-4.2591,0.0,-4.4071,-4.4928,-4.4928,-4.4798,0.0,0.0,-4.1419,-3.9214,-3.839,-3.705,-3.5539,-3.3603,-3.4295,-3.4832,-3.4618,-3.4282,-3.5088,-3.7963,-3.6752,-3.5559,-3.5455,-3.5966,-3.6375,-3.643,-3.6715,-3.6585,-3.6821,-3.6585,-3.5369,-3.1695,-3.2631,-3.1964,-2.6195,-2.7517,-2.8054,-2.479,-2.4511,-2.4372,-2.2866,-2.3342,-2.369,-2.3578,-2.3217,-2.3016,-2.3016,-2.296,-2.3171,-5.2511,-5.2823,-5.0745,-5.0174,-5.0693,-5.1213,-5.1706,-5.2252,-5.2771,-5.2693,-5.2252,-5.2771,-5.1836,-4.9836,-4.9317,0.0,-5.1447,-5.1473,-5.2044,-5.3057,-5.3268,-5.3294,-5.3135,-5.3187,-5.3213,-5.3213,-5.3239,-5.3265,-5.3265,-5.2771,-5.194,-5.1028,-5.0849,-5.046,-4.9681,-5.02,-5.1057,-5.2122,-5.2641,-5.2953,-5.2979,-5.3164,-5.3164,-5.3138,-5.3164,-5.2745,-5.22,-5.1706,-5.1187,-5.0642,-4.9135,-4.8019,-4.7369,0.0,0.0,0.0,0.0,0.0,0.0,0.0,0.0,0.0,0.0,0.0,0.0,0.0,0.0,-4.2695,-4.3344,0.0,-4.3708,-4.324,0.0,0.0,0.0,-4.1222,-3.8067,-4.1286,-4.082,-3.3586,0.0,0.0,-3.3273,-3.2842,-3.5725,-4.3511,-4.4416,-4.4111,-4.3686,-4.3638,-4.4162,-4.3176,-4.3013,-4.2734,-4.22,-4.2232,-4.114,-3.8256,-3.5496,-3.3566,-3.2434,-3.2825,-3.1475,-2.8175,-3.024,-3.0515,-2.3676,-2.5446,-2.704,-2.6599,-2.647,-2.6422,-2.6357,-2.6001,-2.6703,-5.3022,-5.6878,-5.5321,-5.3851,-5.2554,-5.2416,-5.1611,-5.059,-5.0486,-5.0096,-4.9603,-4.981,-4.9031,-4.7525,-4.7317,0.0,0.0,0.0,-4.9161,-4.9914,-5.0278,-5.0616,-5.0953,-5.1291,-5.1627,-5.1627,-5.181,-5.2148,-5.2485,-5.2252,-5.0174,-4.6434,0.0,-4.6538,-4.6045,-4.7577,-4.8798,-4.9577,-5.0486,-5.0953,-5.0953,-5.0953,-5.0953,-5.0953,-5.0953,-5.0823,-5.0616,-5.0382,-4.9862,-4.8928,-4.7915,-4.6798,0.0,0.0,0.0,0.0,0.0,0.0,0.0,0.0,0.0,0.0,0.0,-3.9682,-3.8098,0.0,0.0,0.0,-4.0487,-4.1137,-4.15,-4.163,0.0,0.0,0.0,0.0,0.0,0.0,0.0,-3.8645,-3.9889,-4.0716,-3.9959,-3.8992,-3.9567,-4.2825,-4.2954,-4.2643,-4.2409,0.0,-4.3292,-4.3396,-4.3214,-4.3188,-4.3526,-4.3006,-4.2362,-4.1471,-4.0189,-3.823,-3.4077,-3.4884,-3.4884,-3.1881,-3.171,-3.154,-2.8743,-3.0935,-3.2535,-3.0056,-2.9445,-2.9189,-2.8824,-2.866,-2.873,-5.4244,0.0,0.0,0.0,0.0,-5.4036,-5.2986,-5.1264,-5.0852,-5.0472,-4.9754,-4.9919,0.0,0.0,0.0,0.0,0.0,0.0,-4.7903,-4.7681,-4.859,-4.9109,-4.9369,-4.9785,-4.9966,-5.0116,-5.02,-5.0434,-5.0642,-5.1947,-5.0331,-4.6088,0.0,0.0,0.0,0.0,-4.8278,-4.8911,-4.9341,-4.9603,-4.9603,-4.9603,-4.9603,-4.9603,-4.9603,-4.9603,-4.9577,-4.8953,-4.8252,-4.7421,-4.5915,0.0,0.0,0.0,0.0,0.0,0.0,0.0,0.0,0.0,0.0,0.0,0.0,0.0,0.0,0.0,0.0,0.0,0.0,0.0,-3.9422,-3.9838,-3.9942,0.0,0.0,0.0,0.0,0.0,0.0,0.0,0.0,0.0,-4.3344,-4.2666,-4.2067,0.0,0.0,-4.1656,-4.1318,-4.163,-4.1968,-4.2227,-4.1968,0.0,-4.2513,-4.2071,-4.1786,-4.2175,-4.2851,-4.1551,-3.6217,-3.7283,-3.7713,-3.4146,-3.4262,-3.4572,-3.4124,-3.5724,-3.5871,-3.2838,-3.1617,-3.1372,-3.1188,-3.0924,-3.0981,0.0,0.0,0.0,0.0,-5.5994,0.0,0.0,0.0,-5.5222,-5.4817,0.0,-5.4848,0.0,0.0,0.0,0.0,-4.9222,-5.0238,0.0,0.0,-4.8814,-4.9265,-4.8892,-4.8866,-4.8944,-4.8772,-4.8345,-4.7824,-4.7533,-5.1327,0.0,0.0,0.0,0.0,0.0,0.0,-5.0582,-5.1452,-5.0333,-4.9577,-4.9699,-4.9699,-4.9551,-4.9699,-4.9551,-4.9525,-4.9499,-4.7589,-4.6417,-4.6339,-4.2666,0.0,0.0,0.0,0.0,0.0,0.0,0.0,0.0,0.0,0.0,0.0,0.0,0.0,0.0,0.0,0.0,0.0,0.0,0.0,0.0,-3.7734,0.0,0.0,0.0,0.0,0.0,0.0,0.0,0.0,0.0,-4.1111,-4.1214,-4.1578,-4.2224,-4.2617,0.0,0.0,0.0,0.0,-4.1833,-4.1188,-4.0176,-3.9682,-4.0254,-4.0721,-4.1059,-4.1085,0.0,0.0,-4.1768,-4.1225,-3.9629,-3.6201,-3.8602,-4.0967,-3.8447,-3.8038,-3.72,-3.4096,-3.3055,-3.2829,-3.3145,-3.292,-3.3428,0.0,0.0,0.0,0.0,0.0,0.0,0.0,0.0,0.0,-5.3628,-5.3185,-5.3375,0.0,0.0,0.0,0.0,0.0,0.0,0.0,0.0,-4.9303,-5.0034,-5.2066,-4.9537,-4.9565,-5.2007,-5.0843,-4.9547,0.0,0.0,0.0,0.0,0.0,0.0,0.0,0.0,-5.1723,-5.2117,-5.3398,-5.4047,-5.3938,-5.4047,-5.2966,-5.0789,-5.0789,-5.0148,-4.9068,-4.7363,-4.6447,0.0,0.0,0.0,0.0,0.0,0.0,0.0,0.0,0.0,0.0,0.0,0.0,0.0,0.0,0.0,0.0,0.0,0.0,0.0,0.0,0.0,0.0,0.0,-3.8004,0.0,0.0,0.0,0.0,0.0,0.0,0.0,0.0,0.0,-4.0487,-4.0331,-4.0565,-4.15,-4.1474,-4.137,-4.1344,0.0,0.0,0.0,0.0,0.0,0.0,0.0,-3.95,-3.9864,-3.963,-3.9708,-4.0617,-4.0617,-4.0123,-3.8856,0.0,0.0,-3.6637,-3.6566,-3.6494,-3.5362,-3.5264,-3.5079,-3.456,-3.4584,-3.4972,0.0,0.0,0.0,0.0,0.0,0.0,0.0,0.0,0.0,-5.5206,-5.4886,0.0,0.0,0.0,0.0,0.0,0.0,0.0,0.0,0.0,0.0,0.0,-5.2648,-5.0104,0.0,0.0,0.0,0.0,0.0,0.0,0.0,0.0,0.0,0.0,0.0,0.0,-5.3888,-5.3897,-5.5549,-5.6299,-5.6299,-5.6299,-5.5365,-5.3083,-5.2978,-5.2217,-5.0544,0.0,0.0,0.0,0.0,0.0,0.0,0.0,0.0,0.0,0.0,0.0,0.0,0.0,0.0,0.0,0.0,0.0,0.0,0.0,0.0,0.0,0.0,0.0,0.0,0.0,-3.6774,0.0,0.0,0.0,0.0,0.0,0.0,0.0,0.0,0.0,0.0,-3.8877,-3.9189,-4.0305,-4.0461,-4.0617,-4.0981,-4.0877,-4.0955,0.0,0.0,0.0,0.0,0.0,0.0,0.0,0.0,0.0,0.0,0.0,0.0,0.0,0.0,-3.6955,-3.4878,-3.48,-3.506,-3.5085,0.0,0.0,0.0,0.0,0.0,0.0,0.0,0.0,0.0,0.0,0.0,0.0,0.0,0.0,0.0,-6.0024,0.0,0.0,-5.8473,0.0,0.0,0.0,0.0,0.0,0.0,0.0,0.0,0.0,0.0,0.0,0.0,0.0,0.0,0.0,0.0,0.0,0.0,0.0,0.0,0.0,0.0,-5.6948,-5.7018,-5.6838,-5.6634,-5.6634,-5.6501,-5.6602,-5.6337,-5.6337,-5.5568,-5.3913,0.0,0.0,0.0,0.0,0.0,0.0,0.0,0.0,0.0,0.0,0.0,0.0,0.0,0.0,0.0,0.0,0.0,0.0,0.0,0.0,0.0,0.0,0.0,0.0,0.0,0.0,-3.2956,-3.4618,-3.6176,0.0,0.0,0.0,0.0,0.0,0.0,0.0,0.0,0.0,-3.9371,-4.0374,-4.1077,-4.1077,-4.0635,-4.0547,-4.0877,-3.9697,-3.8994,-3.9942,-4.0098,-3.976,0.0,0.0,0.0,0.0,0.0,0.0,0.0,0.0,0.0,0.0,0.0,0.0,0.0,0.0,0.0,0.0,0.0,0.0,0.0,0.0,0.0,0.0,0.0,0.0,0.0,0.0,0.0,0.0,0.0,0.0,0.0,0.0,0.0,0.0,0.0,0.0,0.0,0.0,0.0,0.0,0.0,0.0,0.0,0.0,0.0,0.0,0.0,0.0,0.0,0.0,0.0,0.0,0.0,0.0,-5.9094,-5.921,-6.1258,-6.232,-6.2356,-6.232,-6.1311,-5.8955,-5.8315,-5.6112,0.0,0.0,0.0,0.0,0.0,0.0,0.0,0.0,0.0,0.0,0.0,0.0,0.0,0.0,0.0,0.0,0.0,0.0,0.0,0.0,0.0,0.0,0.0,0.0,0.0,0.0,0.0,0.0,-3.5527,-3.5865,-3.5498,0.0,0.0,0.0,0.0,0.0,0.0,0.0,0.0,0.0,0.0,-4.1747,-4.273,-4.2194,-4.1192,-3.945,-4.0368,-4.0561,-3.8755,-3.8525,-3.815,-3.7423,0.0,0.0,0.0,0.0,0.0,0.0,0.0,0.0,0.0,0.0,0.0,0.0,0.0,0.0,0.0,0.0,0.0,0.0,0.0,0.0,0.0,0.0,0.0,0.0,0.0,0.0,0.0,0.0,0.0,0.0,0.0,0.0,0.0,0.0,0.0,0.0,0.0,0.0,0.0,0.0,0.0,0.0,0.0,0.0,0.0,0.0,0.0,0.0,0.0,0.0,0.0,0.0,0.0,-6.0062,-6.01,-6.3289,-6.4959,-6.4959,-6.4959,-6.3937,-6.1883,-6.1122,-5.8555,0.0,0.0,0.0,0.0,0.0,0.0,0.0,0.0,0.0,0.0,0.0,0.0,0.0,0.0,0.0,0.0,0.0,0.0,0.0,0.0,0.0,0.0,0.0,0.0,0.0,0.0,0.0,0.0,-3.534,-3.6229,-3.5747,0.0,0.0,0.0,0.0,0.0,0.0,0.0,0.0,0.0,0.0,-4.1656,-4.2665,-4.1587,0.0,0.0,-3.9599,-3.9978,-3.8309,-3.815,-3.7864,-3.667,-3.6176,0.0,0.0,0.0,0.0,0.0,0.0,0.0,0.0,0.0,0.0,0.0,0.0,0.0,0.0,0.0,0.0,0.0,0.0,0.0,0.0,0.0,0.0,0.0,0.0,0.0,0.0,0.0,0.0,0.0,0.0,0.0,0.0,0.0,0.0,0.0,0.0,0.0,0.0,0.0,0.0,0.0,0.0,0.0,0.0,0.0,0.0,0.0,0.0,0.0,0.0,0.0,0.0,-5.991,-6.0062,-6.3137,-6.4769,-6.4769,-6.4807,-6.4807,-6.4807,-6.3972,-6.196,0.0,0.0,0.0,0.0,0.0,0.0,0.0,0.0,0.0,0.0,0.0,0.0,0.0,0.0,0.0,0.0,0.0,0.0,0.0,0.0,0.0,0.0,0.0,0.0,0.0,0.0,0.0,0.0,0.0,0.0,0.0,0.0,0.0,0.0,0.0,0.0,0.0,0.0,0.0,0.0,0.0,-4.1066,-4.1704,-3.9684,-3.822,0.0,-3.8292,-3.8081,-3.8493,-3.8811,-3.8358,-3.6228,0.0,0.0,0.0,0.0,0.0,0.0,0.0,0.0,0.0,0.0,0.0,0.0,0.0,0.0,0.0,0.0,0.0,0.0,0.0,0.0,0.0,0.0,0.0,0.0,0.0,0.0,0.0,0.0,0.0,0.0,0.0,0.0,0.0,0.0,0.0,0.0,0.0,0.0,0.0,0.0,0.0,0.0,0.0,0.0,0.0,0.0,0.0,0.0,0.0,0.0,0.0,0.0,0.0,0.0,-5.9075,-6.1732,-6.3137,-6.3137,-6.3137,-6.3137,-6.3099,-6.1732,0.0,0.0,0.0,0.0,0.0,0.0,0.0,0.0,0.0,0.0,0.0,0.0,0.0,0.0,0.0,0.0,0.0,0.0,0.0,0.0,0.0,0.0,0.0,0.0,0.0,0.0,0.0,-3.7242,0.0,0.0,0.0,0.0,0.0,0.0,0.0,0.0,0.0,0.0,0.0,0.0,0.0,0.0,-4.3263,-4.416,-4.2569,-4.0913,0.0,0.0,-4.081,-3.9225,-3.7771,-3.6462,0.0,0.0,0.0,0.0,0.0,0.0,0.0,0.0,0.0,0.0,0.0,0.0,0.0,0.0,0.0,0.0,0.0,0.0,0.0,0.0,0.0,0.0,0.0,0.0,0.0,0.0,0.0,0.0,0.0,0.0,0.0,0.0,0.0,0.0,0.0,0.0,0.0,0.0,0.0,0.0,0.0,0.0,0.0,0.0,0.0,0.0,0.0,0.0,0.0,0.0,0.0,0.0,0.0,0.0,-5.7176,-5.8695,-6.0517,-6.1925,-6.2491,-6.2647,-6.2647,-6.2647,-6.0935,-5.9075,0.0,0.0,0.0,0.0,0.0,0.0,0.0,0.0,0.0,0.0,0.0,0.0,0.0,0.0,0.0,0.0,0.0,0.0,0.0,0.0,0.0,0.0,0.0,0.0,0.0,0.0,0.0,0.0,0.0,0.0,0.0,0.0,0.0,0.0,0.0,0.0,0.0,0.0,0.0,0.0,0.0,0.0,-4.5663,-4.3431,0.0,0.0,0.0,-3.9692,-3.7273,0.0,0.0,0.0,0.0,0.0,0.0,0.0,0.0,0.0,0.0,0.0,0.0,0.0,0.0,0.0,0.0,0.0,0.0,0.0,0.0,0.0,0.0,0.0,0.0,0.0,0.0,0.0,0.0,0.0,0.0,0.0,0.0,0.0,0.0,0.0,0.0,0.0,0.0,0.0,0.0,0.0,0.0,0.0,0.0,0.0,0.0,0.0,0.0,0.0,0.0,0.0,0.0,0.0,0.0,0.0,0.0,0.0,-5.8353,-5.9378,-6.0669,-6.215,-6.2226,-6.2264,-6.2226,-6.0707,-5.8657,0.0,0.0,0.0,0.0,0.0,0.0,0.0,0.0,0.0,0.0,0.0,0.0,0.0,0.0,0.0,0.0,0.0,0.0,0.0,0.0,0.0,0.0,0.0,0.0,0.0,0.0,0.0,0.0,0.0,0.0,0.0,0.0,0.0,0.0,0.0,0.0,0.0,0.0,0.0,0.0,0.0,-4.4928,-4.6547,-4.3275,-4.0303,0.0,0.0,-3.7578,-3.537,-3.5081,0.0,0.0,0.0,0.0,0.0,0.0,0.0,0.0,0.0,0.0,0.0,0.0,0.0,0.0,0.0,0.0,0.0,0.0,0.0,0.0,0.0,0.0,0.0,0.0,0.0,0.0,0.0,0.0,0.0,0.0,0.0,0.0,0.0,0.0,0.0,0.0,0.0,0.0,0.0,0.0,0.0,0.0,0.0,0.0,0.0,0.0,0.0,0.0,0.0,0.0,0.0,0.0,0.0,0.0,0.0,0.0,-5.6683,-5.8201,-5.9492,-6.0479,-6.0555,-6.0555,-6.0517,-5.953,-5.748,0.0,0.0,0.0,0.0,0.0,0.0,0.0,0.0,0.0,0.0,0.0,0.0,0.0,0.0,0.0,0.0,0.0,0.0,0.0,0.0,0.0,0.0,0.0,0.0,0.0,0.0,0.0,0.0,0.0,0.0,0.0,0.0,0.0,0.0,0.0,0.0,0.0,0.0,0.0,0.0,0.0,-4.4754,-4.5719,-4.4004,0.0,0.0,0.0,0.0,-3.9818,-3.737,0.0,0.0,0.0,0.0,0.0,0.0,0.0,0.0,0.0,0.0,0.0,0.0,0.0,0.0,0.0,0.0,0.0,0.0,0.0,0.0,0.0,0.0,0.0,0.0,0.0,0.0,0.0,0.0,0.0,0.0,0.0,0.0,0.0,0.0,0.0,0.0,0.0,0.0,0.0,0.0,0.0,0.0,0.0,0.0,0.0,0.0,0.0,0.0,0.0,0.0,0.0,0.0,0.0,0.0,0.0,0.0,-5.5506,-5.6075,-5.7138,-5.8733,-5.8809,-5.8809,-5.8771,-5.7974,-5.6151,0.0,0.0,0.0,0.0,0.0,0.0,0.0,0.0,0.0,0.0,0.0,0.0,0.0,0.0,0.0,0.0,0.0,0.0,0.0,0.0,0.0,0.0,0.0,0.0,0.0,0.0,0.0,0.0,0.0,0.0,0.0,0.0,0.0,0.0,0.0,0.0,0.0,0.0,0.0,0.0,-4.5605,-4.5053,-4.6304,0.0,0.0,0.0,0.0,0.0,0.0,-3.611,-3.4985,0.0,0.0,0.0,0.0,0.0,0.0,0.0,0.0,0.0,0.0,0.0,0.0,0.0,0.0,0.0,0.0,0.0,0.0,0.0,0.0,0.0,0.0,0.0,0.0,0.0,0.0,0.0,0.0,0.0,0.0,0.0,0.0,0.0,0.0,0.0,0.0,0.0,0.0,0.0,0.0,0.0,0.0,0.0,0.0,0.0,0.0,0.0,0.0,0.0,0.0,0.0,0.0,0.0,0.0,0.0,-5.5136,-5.4382,-5.505,-5.7214,-5.7512,-5.748,-5.748,-5.6645,-5.4936,-5.2241,0.0,0.0,0.0,0.0,0.0,0.0,0.0,0.0,0.0,0.0,0.0,0.0,0.0,0.0,0.0,0.0,0.0,0.0,0.0,0.0,0.0,0.0,0.0,0.0,0.0,0.0,0.0,0.0,0.0,0.0,0.0,0.0,0.0,0.0,0.0,0.0,0.0,0.0,0.0,-4.5445,-4.5435,0.0,0.0,0.0,0.0,0.0,0.0,0.0,0.0,-3.4458,0.0,0.0,0.0,0.0,0.0,0.0,0.0,0.0,0.0,0.0,0.0,0.0,0.0,0.0,0.0,0.0,0.0,0.0,0.0,0.0,0.0,0.0,0.0,0.0,0.0,0.0,0.0,0.0,0.0,0.0,0.0,0.0,0.0,0.0,0.0,0.0,0.0,0.0,0.0,0.0,0.0,0.0,0.0,0.0,0.0,0.0,0.0,0.0,0.0,0.0,0.0,0.0,0.0,0.0,0.0,0.0,-5.5221,-5.5316,-5.6379,-5.71,-5.748,-5.7589,-5.6645,-5.4405,-5.0475,0.0,0.0,0.0,0.0,0.0,0.0,0.0,0.0,0.0,0.0,0.0,0.0,0.0,0.0,0.0,0.0,0.0,0.0,0.0,0.0,0.0,0.0,0.0,0.0,0.0,0.0,0.0,0.0,0.0,0.0,0.0,0.0,0.0,0.0,0.0,0.0,0.0,0.0,-4.5094,-4.498,0.0,0.0,0.0,0.0,0.0,0.0,0.0,0.0,-3.5907,0.0,0.0,0.0,0.0,0.0,0.0,0.0,0.0,0.0,0.0,0.0,0.0,0.0,0.0,0.0,0.0,0.0,0.0,0.0,0.0,0.0,0.0,0.0,0.0,0.0,0.0,0.0,0.0,0.0,0.0,0.0,0.0,0.0,0.0,0.0,0.0,0.0,0.0,0.0,0.0,0.0,0.0,0.0,0.0,0.0,0.0,0.0,0.0,0.0,0.0,0.0,0.0,0.0,0.0,0.0,0.0,0.0,0.0,-5.5347,-5.5002,-5.5734,-5.6151,-5.6075,-5.4063,-5.1687,0.0,0.0,0.0,0.0,0.0,0.0,0.0,0.0,0.0,0.0,0.0,0.0,0.0,0.0,0.0,0.0,0.0,0.0,0.0,0.0,0.0,0.0,0.0,0.0,0.0,0.0,0.0,0.0,0.0,0.0,0.0,0.0,0.0,0.0,0.0,0.0,0.0,0.0,0.0,0.0,0.0,0.0,0.0,0.0,0.0,0.0,0.0,0.0,0.0,0.0,0.0,0.0,0.0,0.0,0.0,0.0,0.0,0.0,0.0,0.0,0.0,0.0,0.0,0.0,0.0,0.0,0.0,0.0,0.0,0.0,0.0,0.0,0.0,0.0,0.0,0.0,0.0,0.0,0.0,0.0,0.0,0.0,0.0,0.0,0.0,0.0,0.0,0.0,0.0,0.0,0.0,0.0,0.0,0.0,0.0,0.0,0.0,0.0,0.0,0.0,0.0,0.0,0.0,0.0,0.0,0.0,0.0,0.0,-5.5086,-5.3328,-5.4215,-5.4633,-5.4443,-5.1946,-4.9974,0.0,0.0,0.0,0.0,0.0,0.0,0.0,0.0,0.0,0.0,0.0,0.0,0.0,0.0,0.0,0.0,0.0,0.0,0.0,0.0,0.0,0.0,0.0,0.0,0.0,0.0,0.0,0.0,0.0,0.0,0.0,0.0,0.0,0.0,0.0,0.0,0.0,0.0,0.0,0.0,0.0,0.0,0.0,0.0,0.0,0.0,0.0,0.0,-3.5567,0.0,0.0,0.0,0.0,0.0,0.0,0.0,0.0,0.0,0.0,0.0,0.0,0.0,0.0,0.0,0.0,0.0,0.0,0.0,0.0,0.0,0.0,0.0,0.0,0.0,0.0,0.0,0.0,0.0,0.0,0.0,0.0,0.0,0.0,0.0,0.0,0.0,0.0,0.0,0.0,0.0,0.0,0.0,0.0,0.0,0.0,0.0,0.0,0.0,0.0,0.0,0.0,0.0,0.0,0.0,0.0,0.0,0.0,0.0,-5.453,-5.1693,-5.3176,-5.3532,-5.2772,-5.2918,-5.1286,0.0,0.0,0.0,0.0,0.0,0.0,0.0,0.0,0.0,0.0,0.0,0.0,0.0,0.0,0.0,0.0,0.0,0.0,0.0,0.0,0.0,0.0,0.0,0.0,0.0,0.0,0.0,0.0,0.0,0.0,0.0,0.0,0.0,0.0,0.0,0.0,0.0,0.0,0.0,0.0,0.0,0.0,0.0,0.0,0.0,0.0,0.0,0.0,0.0,0.0,0.0,0.0,0.0,0.0,0.0,0.0,0.0,0.0,0.0,0.0,0.0,0.0,0.0,0.0,0.0,0.0,0.0,0.0,0.0,0.0,0.0,0.0,0.0,0.0,0.0,0.0,0.0,0.0,0.0,0.0,0.0,0.0,0.0,0.0,0.0,0.0,0.0,0.0,0.0,0.0,0.0,0.0,0.0,0.0,0.0,0.0,0.0,0.0,0.0,0.0,0.0,0.0,0.0,0.0,0.0,0.0,0.0,0.0,-5.4713,-5.2484,-5.2353,-5.2353,-5.2381,-5.0369,-4.844,0.0,0.0,0.0,0.0,0.0,0.0,0.0,0.0,0.0,0.0,0.0,0.0,0.0,0.0,0.0,0.0,0.0,0.0,0.0,0.0,0.0,0.0,0.0,0.0,0.0,0.0,0.0,0.0,0.0,0.0,0.0,0.0,0.0,0.0,0.0,0.0,0.0,0.0,0.0,0.0,0.0,0.0,0.0,0.0,0.0,0.0,0.0,0.0,0.0,0.0,0.0,0.0,0.0,0.0,0.0,0.0,0.0,0.0,0.0,0.0,0.0,0.0,0.0,0.0,0.0,0.0,0.0,0.0,0.0,0.0,0.0,0.0,0.0,0.0,0.0,0.0,0.0,0.0,0.0,0.0,0.0,0.0,0.0,0.0,0.0,0.0,0.0,0.0,0.0,0.0,0.0,0.0,0.0,0.0,0.0,0.0,0.0,0.0,0.0,0.0,0.0,0.0,0.0,0.0,0.0,0.0,0.0,0.0,0.0,-5.3836,-5.1827,-5.1077,-5.1432,-4.9179,-4.7531,0.0,0.0,0.0,0.0,0.0,0.0,0.0,0.0,0.0,0.0,0.0,0.0,0.0,0.0,0.0,0.0,0.0,0.0,0.0,0.0,0.0,0.0,0.0,0.0,0.0,0.0,0.0,0.0,0.0,0.0,0.0,0.0,0.0,0.0,0.0,0.0,0.0,0.0,0.0,0.0,0.0,0.0,0.0,0.0,0.0,0.0,0.0,0.0,0.0,0.0,0.0,0.0,0.0,0.0,0.0,0.0,0.0,0.0,0.0,0.0,0.0,0.0,0.0,0.0,0.0,0.0,0.0,0.0,0.0,0.0,0.0,0.0,0.0,0.0,0.0,0.0,0.0,0.0,0.0,0.0,0.0,0.0,0.0,0.0,0.0,0.0,0.0,0.0,0.0,0.0,0.0,0.0,0.0,0.0,0.0,0.0,0.0,0.0,0.0,0.0,0.0,0.0,0.0,0.0,0.0,0.0,0.0,0.0,0.0,-5.5442,-5.1577,-4.9554,-4.9688,-5.1255,-5.0658,0.0,0.0,0.0,0.0,0.0,0.0,0.0,0.0,0.0,0.0,0.0,0.0,0.0,0.0,0.0,0.0,0.0,0.0,0.0,0.0,0.0,0.0,0.0,0.0,0.0,0.0,0.0,0.0,0.0,0.0,0.0,0.0,0.0,0.0,0.0,0.0,0.0,0.0,0.0,0.0,0.0,0.0,0.0,0.0,0.0,0.0,0.0,0.0,0.0,0.0,0.0,0.0,0.0,0.0,0.0,0.0,0.0,0.0,0.0,0.0,0.0,0.0,0.0,0.0,0.0,0.0,0.0,0.0,0.0,0.0,0.0,0.0,0.0,0.0,0.0,0.0,0.0,0.0,0.0,0.0,0.0,0.0,0.0,0.0,0.0,0.0,0.0,0.0,0.0,0.0,0.0,0.0,0.0,0.0,0.0,0.0,0.0,0.0,0.0,0.0,0.0,0.0,0.0,0.0,0.0,0.0,0.0,0.0,0.0,-5.7759,-5.3272,-5.1035,-5.1713,-5.1131,-4.8985,-4.5176,0.0,0.0,0.0,0.0,0.0,0.0,0.0,0.0,0.0,0.0,0.0,0.0,0.0,0.0,0.0,0.0,0.0,0.0,0.0,0.0,0.0,0.0,0.0,0.0,0.0,0.0,0.0,0.0,0.0,0.0,0.0,0.0,0.0,0.0,0.0,0.0,0.0,0.0,0.0,0.0,0.0,0.0,0.0,0.0,0.0,0.0,0.0,0.0,0.0,0.0,0.0,0.0,0.0,0.0,0.0,0.0,0.0,0.0,0.0,0.0,0.0,0.0,0.0,0.0,0.0,0.0,0.0,0.0,0.0,0.0,0.0,0.0,0.0,0.0,0.0,0.0,0.0,0.0,0.0,0.0,0.0,0.0,0.0,0.0,0.0,0.0,0.0,0.0,0.0,0.0,0.0,0.0,0.0,0.0,0.0,0.0,0.0,0.0,0.0,0.0,0.0,0.0,0.0,0.0,0.0,0.0,0.0,0.0,-5.7861,-5.4379,-5.2783,-5.3486,-5.1449,-4.8798,0.0,0.0,0.0,0.0,0.0,0.0,0.0,0.0,0.0,0.0,0.0,0.0,0.0,0.0,0.0,0.0,0.0,0.0,0.0,0.0,0.0,0.0,0.0,0.0,0.0,0.0,0.0,0.0,0.0,0.0,0.0,0.0,0.0,0.0,0.0,0.0,0.0,0.0,0.0,0.0,0.0,0.0,0.0,0.0,0.0,0.0,0.0,0.0,0.0,0.0,0.0,0.0,0.0,0.0,0.0,0.0,0.0,0.0,0.0,0.0,0.0,0.0,0.0,0.0,0.0,0.0,0.0,0.0,0.0,0.0,0.0,0.0,0.0,0.0,0.0,0.0,0.0,0.0,0.0,0.0,0.0,0.0,0.0,0.0,0.0,0.0,0.0,0.0,0.0,0.0,0.0,0.0,0.0,0.0,0.0,0.0,0.0,0.0,0.0,0.0,0.0,0.0,0.0,0.0,0.0,0.0,0.0,0.0,-5.6854,-5.487,-5.4591,-5.4481,-5.4513,-5.2507,-5.0599,0.0,0.0,0.0,0.0,0.0,0.0,0.0,0.0,0.0,0.0,0.0,0.0,0.0,0.0,0.0,0.0,0.0,0.0,0.0,0.0,0.0,0.0,0.0,0.0,0.0,0.0,0.0,0.0,0.0,0.0,0.0,0.0,0.0,0.0,0.0,0.0,0.0,0.0,0.0,0.0,0.0,0.0,0.0,0.0,0.0,0.0,0.0,0.0,0.0,0.0,0.0,0.0,0.0,0.0,0.0,0.0,0.0,0.0,0.0,0.0,0.0,0.0,0.0,0.0,0.0,0.0,0.0,0.0,0.0,0.0,0.0,0.0,0.0,0.0,0.0,0.0,0.0,0.0,0.0,0.0,0.0,0.0,0.0,0.0,0.0,0.0,0.0,0.0,0.0,0.0,0.0,0.0,0.0,0.0,0.0,0.0,0.0,0.0,0.0,0.0,0.0,0.0,0.0,0.0,0.0,0.0,0.0,0.0,0.0,-5.6806,-5.541,-5.3968,-5.2551,-5.1142,-4.8581,0.0,0.0,0.0,0.0,0.0,0.0,0.0,0.0,0.0,0.0,0.0,0.0,0.0,0.0,0.0,0.0,0.0,0.0,0.0,0.0,0.0,0.0,0.0,0.0,0.0,0.0,0.0,0.0,0.0,0.0,0.0,0.0,0.0,0.0,0.0,0.0,0.0,0.0,0.0,0.0,0.0,0.0,0.0,0.0,0.0,0.0,0.0,0.0,0.0,0.0,0.0,0.0,0.0,0.0,0.0,0.0,0.0,0.0,0.0,0.0,0.0,0.0,0.0,0.0,0.0,0.0,0.0,0.0,0.0,0.0,0.0,0.0,0.0,0.0,0.0,0.0,0.0,0.0,0.0,0.0,0.0,0.0,0.0,0.0,0.0,0.0,0.0,0.0,0.0,0.0,0.0,0.0,0.0,0.0,0.0,0.0,0.0,0.0,0.0,0.0,0.0,0.0,0.0,0.0,0.0,0.0,0.0,0.0,0.0,-5.7274,-5.631,-5.4962,-5.3233,-5.1403,-4.8411,0.0,0.0,0.0,0.0,0.0,0.0,0.0,0.0,0.0,0.0,0.0,0.0,0.0,0.0,0.0,0.0,0.0,0.0,0.0,0.0,0.0,0.0,0.0,0.0,0.0,0.0,0.0,0.0,0.0,0.0,0.0,0.0,0.0,0.0,0.0,0.0,0.0,0.0,0.0,0.0,0.0,0.0,0.0,0.0,0.0,0.0,0.0,0.0,0.0,0.0,0.0,0.0,0.0,0.0,0.0,0.0,0.0,0.0,0.0,0.0,0.0,0.0,0.0,0.0,0.0,0.0,0.0,0.0,0.0,0.0,0.0,0.0,0.0,0.0,0.0,0.0,0.0,0.0,0.0,0.0,0.0,0.0,0.0,0.0,0.0,0.0,0.0,0.0,0.0,0.0,0.0,0.0,0.0,0.0,0.0,0.0,0.0,0.0,0.0,0.0,0.0,0.0,0.0,0.0,0.0,0.0,0.0,0.0,0.0,-5.6422,-5.7398,-5.7323,-5.6006,-5.3045,-5.0051,0.0,0.0,0.0,0.0,0.0,0.0,0.0,0.0,0.0,0.0,0.0,0.0,0.0,0.0,0.0,0.0,0.0,0.0,0.0,0.0,0.0,0.0,0.0,0.0,0.0,0.0,0.0,0.0,0.0,0.0,0.0,0.0,0.0,0.0,0.0,0.0,0.0,0.0,0.0,0.0,0.0,0.0,0.0,0.0,0.0,0.0,0.0,0.0,0.0,0.0,0.0,0.0,0.0,0.0,0.0,0.0,0.0,0.0,0.0,0.0,0.0,0.0,0.0,0.0,0.0,0.0,0.0,0.0,0.0,0.0,0.0,0.0,0.0,0.0,0.0,0.0,0.0,0.0,0.0,0.0,0.0,0.0,0.0,0.0,0.0,0.0,0.0,0.0,0.0,0.0,0.0,0.0,0.0,0.0,0.0,0.0,0.0,0.0,0.0,0.0,0.0,0.0,0.0,0.0,0.0,0.0,0.0,0.0,0.0,0.0,-5.7739,-5.7013,-5.5035,-5.1181,-4.8211,-4.6206,0.0,0.0,0.0,0.0,0.0,0.0,0.0,0.0,0.0,0.0,0.0,0.0,0.0,0.0,0.0,0.0,0.0,0.0,0.0,0.0,0.0,0.0,0.0,0.0,0.0,0.0,0.0,0.0,0.0,0.0,0.0,0.0,0.0,0.0,0.0,0.0,0.0,0.0,0.0,0.0,0.0,0.0,0.0,0.0,0.0,0.0,0.0,0.0,0.0,0.0,0.0,0.0,0.0,0.0,0.0,0.0,0.0,0.0,0.0,0.0,0.0,0.0,0.0,0.0,0.0,0.0,0.0,0.0,0.0,0.0,0.0,0.0,0.0,0.0,0.0,0.0,0.0,0.0,0.0,0.0,0.0,0.0,0.0,0.0,0.0,0.0,0.0,0.0,0.0,0.0,0.0,0.0,0.0,0.0,0.0,0.0,0.0,0.0,0.0,0.0,0.0,0.0,0.0,0.0,0.0,0.0,0.0,0.0,0.0,0.0,-5.7116,-5.5257,-5.1928,-4.8581,0.0,0.0,0.0,0.0,0.0,0.0,0.0,0.0,0.0,0.0,0.0,0.0,0.0,0.0,0.0,0.0,0.0,0.0,0.0,0.0,0.0,0.0,0.0,0.0,0.0,0.0,0.0,0.0,0.0,0.0,0.0,0.0,0.0,0.0,0.0,0.0,0.0,0.0,0.0,0.0,0.0,0.0,0.0,0.0,0.0,0.0,0.0,0.0,0.0,0.0,0.0,0.0,0.0,0.0,0.0,0.0,0.0,0.0,0.0,0.0,0.0,0.0,0.0,0.0,0.0,0.0,0.0,0.0,0.0,0.0,0.0,0.0,0.0,0.0,0.0,0.0,0.0,0.0,0.0,0.0,0.0,0.0,0.0,0.0,0.0,0.0,0.0,0.0,0.0,0.0,0.0,0.0,0.0,0.0,0.0,0.0,0.0,0.0,0.0,0.0,0.0,0.0,0.0,0.0,0.0,0.0,0.0,0.0,0.0,0.0,0.0,-5.7349,-5.6348,-5.4311,0.0,-4.5353,0.0,0.0,0.0,0.0,0.0,0.0,0.0,0.0,0.0,0.0,0.0,0.0,0.0,0.0,0.0,0.0,0.0,0.0,0.0,0.0,0.0,0.0,0.0,0.0,0.0,0.0,0.0,0.0,0.0,0.0,0.0,0.0,0.0,0.0,0.0,0.0,0.0,0.0,0.0,0.0,0.0,0.0,0.0,0.0,0.0,0.0,0.0,0.0,0.0,0.0,0.0,0.0,0.0,0.0,0.0,0.0,0.0,0.0,0.0,0.0,0.0,0.0,0.0,0.0,0.0,0.0,0.0,0.0,0.0,0.0,0.0,0.0,0.0,0.0,0.0,0.0,0.0,0.0,0.0,0.0,0.0,0.0,0.0,0.0,0.0,0.0,0.0,0.0,0.0,0.0,0.0,0.0,0.0,0.0,0.0,0.0,0.0,0.0,0.0,0.0,0.0,0.0,0.0,0.0,0.0,0.0,0.0,0.0,0.0,0.0,0.0,0.0,-5.5399,-5.3198,-5.1052,0.0,0.0,0.0,0.0,0.0,0.0,0.0,0.0,0.0,0.0,0.0,0.0,0.0,0.0,0.0,0.0,0.0,0.0,0.0,0.0,0.0,0.0,0.0,0.0,0.0,0.0,0.0,0.0,0.0,0.0,0.0,0.0,0.0,0.0,0.0,0.0,0.0,0.0,0.0,0.0,0.0,0.0,0.0,0.0,0.0,0.0,0.0,0.0,0.0,0.0,0.0,0.0,0.0,0.0,0.0,0.0,0.0,0.0,0.0,0.0,0.0,0.0,0.0,0.0,0.0,0.0,0.0,0.0,0.0,0.0,0.0,0.0,0.0,0.0,0.0,0.0,0.0,0.0,0.0,0.0,0.0,0.0,0.0,0.0,0.0,0.0,0.0,0.0,0.0,0.0,0.0,0.0,0.0,0.0,0.0,0.0,0.0,0.0,0.0,0.0,0.0,0.0,0.0,0.0,0.0,0.0,0.0,0.0,0.0,0.0,-5.6763,-5.7837,-5.5296,-5.3039,-5.1173,0.0,0.0,0.0,0.0,0.0,0.0,0.0,0.0,0.0,0.0,0.0,0.0,0.0,0.0,0.0,0.0,0.0,0.0,0.0,0.0,0.0,0.0,0.0,0.0,0.0,0.0,0.0,0.0,0.0,0.0,0.0,0.0,0.0,0.0,0.0,0.0,0.0,0.0,0.0,0.0,0.0,0.0,0.0,0.0,0.0,0.0,0.0,0.0,0.0,0.0,0.0,0.0,0.0,0.0,0.0,0.0,0.0,0.0,0.0,0.0,0.0,0.0,0.0,0.0,0.0,0.0,0.0,0.0,0.0,0.0,0.0,0.0,0.0,0.0,0.0,0.0,0.0,0.0,0.0,0.0,0.0,0.0,0.0,0.0,0.0,0.0,0.0,0.0,0.0,0.0,0.0,0.0,0.0,0.0,0.0,0.0,0.0,0.0,0.0,0.0,0.0,0.0,0.0,0.0,0.0,0.0,0.0,0.0,0.0,0.0,-5.6616,0.0,0.0,0.0,-4.8807,0.0,0.0,0.0,0.0,0.0,0.0,0.0,0.0,0.0,0.0,0.0,0.0,0.0,0.0,0.0,0.0,0.0,0.0,0.0,0.0,0.0,0.0,0.0,0.0,0.0,0.0,0.0,0.0,0.0,0.0,0.0,0.0,0.0,0.0,0.0,0.0,0.0,0.0,0.0,0.0,0.0,0.0,0.0,0.0,0.0,0.0,0.0,0.0,0.0,0.0,0.0,0.0,0.0,0.0,0.0,0.0,0.0,0.0,0.0,0.0,0.0,0.0,0.0,0.0,0.0,0.0,0.0,0.0,0.0,0.0,0.0,0.0,0.0,0.0,0.0,0.0,0.0,0.0,0.0,0.0,0.0,0.0,0.0,0.0,0.0,0.0,0.0,0.0,0.0,0.0,0.0,0.0,0.0,0.0,0.0,0.0,0.0,0.0,0.0,0.0,0.0,0.0,0.0,0.0,0.0,0.0,0.0,0.0,0.0,0.0,0.0,0.0,0.0,0.0,0.0,0.0,0.0,0.0,0.0,0.0,0.0,0.0,0.0,0.0,0.0,0.0,0.0,0.0,0.0,0.0,0.0,0.0,0.0,0.0,0.0,0.0,0.0,0.0,0.0,0.0,0.0,0.0,0.0,0.0,0.0,0.0,0.0,0.0,0.0,0.0,0.0,0.0,0.0,0.0,0.0,0.0,0.0,0.0,0.0,0.0,0.0,0.0,0.0,0.0,0.0,0.0,0.0,0.0,0.0,0.0,0.0,0.0,0.0,0.0,0.0,0.0,0.0,0.0,0.0,0.0,0.0,0.0,0.0,0.0,0.0,0.0,0.0,0.0,0.0,0.0,0.0,0.0,0.0,0.0,0.0,0.0,0.0,0.0,0.0,0.0,0.0,0.0,0.0,0.0,0.0,0.0,0.0,0.0,0.0,0.0,0.0,0.0,0.0,0.0,0.0,0.0,0.0,0.0,0.0,0.0,0.0,0.0,0.0,0.0,0.0,0.0,0.0,0.0,0.0,0.0,0.0,0.0,0.0,0.0,0.0,0.0,0.0,0.0,0.0,0.0,0.0,0.0,0.0,0.0,0.0,0.0,0.0,0.0,0.0,0.0,0.0,0.0,0.0,0.0,0.0,0.0,0.0,0.0,0.0,0.0,0.0,0.0,0.0,0.0,0.0,0.0,0.0,0.0,0.0,0.0,0.0,0.0,0.0,0.0,0.0,0.0,0.0,0.0,0.0,0.0,0.0,0.0,0.0,0.0,0.0,0.0,0.0,0.0,0.0,0.0,0.0,0.0,0.0,0.0,0.0,0.0,0.0,0.0,0.0,0.0,0.0,0.0,0.0,0.0,0.0,0.0,0.0,0.0,0.0,0.0,0.0,0.0,0.0,0.0,0.0,0.0,0.0,0.0,0.0,0.0,0.0,0.0,0.0,0.0,0.0,0.0,0.0,0.0,0.0,0.0,0.0,0.0,0.0,0.0,0.0,0.0,0.0,0.0,0.0,0.0,0.0,0.0,0.0,0.0,0.0,0.0,0.0,0.0,0.0,0.0,0.0,0.0,0.0,0.0,0.0,0.0,0.0,0.0,0.0,0.0,0.0,0.0,0.0,0.0,0.0,0.0,0.0,0.0,0.0,0.0,0.0,0.0,0.0,0.0,0.0,0.0,0.0,0.0,0.0,0.0,0.0,0.0,0.0,0.0,0.0,0.0,0.0,0.0,0.0,0.0,0.0,0.0,0.0,0.0,0.0,0.0,0.0,0.0,0.0,0.0,0.0,0.0,0.0,0.0,0.0,0.0,0.0,0.0,0.0,0.0,0.0,0.0,0.0,0.0,0.0,0.0,0.0,0.0,0.0,0.0,0.0,0.0,0.0,0.0,0.0,0.0,0.0,0.0,0.0,0.0,0.0,0.0,0.0,0.0,0.0,0.0,0.0,0.0,0.0,0.0,0.0,0.0,0.0,0.0,0.0,0.0,0.0,0.0,0.0,0.0,0.0,0.0,0.0,0.0,0.0,0.0,0.0,0.0,0.0,0.0,0.0,0.0,0.0,0.0,0.0,0.0,0.0,0.0,0.0,0.0,0.0,0.0,0.0,0.0,0.0,0.0,0.0,0.0,0.0,0.0,0.0,0.0,0.0,0.0,0.0,0.0,0.0,0.0,0.0,0.0,0.0,0.0,0.0,0.0,0.0,0.0,0.0,0.0,0.0,0.0,0.0,0.0,0.0,0.0,0.0,0.0,0.0,0.0,0.0,0.0,0.0,0.0,0.0,0.0,0.0,0.0,0.0,0.0,0.0,0.0,0.0,0.0,0.0,0.0,0.0,0.0,0.0,0.0,0.0,0.0,0.0,0.0,0.0,0.0,0.0,0.0,0.0,0.0,0.0,0.0,0.0,0.0,0.0,0.0,0.0,0.0,0.0,0.0,0.0,0.0,0.0,0.0,0.0,0.0,0.0,0.0,0.0,0.0,0.0,0.0,0.0,0.0,0.0,0.0,0.0,0.0,0.0,0.0,0.0,0.0,0.0,0.0,0.0,0.0,0.0,0.0,0.0,0.0,0.0,0.0,0.0,0.0,0.0,0.0,0.0,0.0,0.0,0.0,0.0,0.0,0.0,0.0,0.0,0.0,0.0,0.0,0.0,0.0,0.0,0.0,0.0,0.0,0.0,0.0,0.0,0.0,0.0,0.0,0.0,0.0,0.0,0.0,0.0,0.0,0.0,0.0,0.0,0.0,0.0,0.0,0.0,0.0,0.0,0.0,0.0,0.0,0.0,0.0,0.0,0.0,0.0,0.0,0.0,0.0,0.0,0.0,0.0,0.0,0.0,0.0,0.0,0.0,0.0,0.0,0.0,0.0,0.0,0.0,0.0,0.0,0.0,0.0,0.0,0.0,0.0,0.0,0.0,0.0,0.0,0.0,0.0,0.0,0.0,0.0,0.0,0.0,0.0,0.0,0.0,0.0,0.0,0.0,0.0,0.0,0.0,0.0,0.0,0.0,0.0,0.0,0.0,0.0,0.0,0.0,0.0,0.0,0.0,0.0,0.0,0.0,0.0,0.0,0.0,0.0,0.0,0.0,0.0,0.0,0.0,0.0,0.0,0.0,0.0,0.0,0.0,0.0,0.0,0.0,0.0,0.0,0.0,0.0,0.0,0.0,0.0,0.0,0.0,0.0,0.0,0.0,0.0,0.0,0.0,0.0,0.0,0.0,0.0,0.0,0.0,0.0,0.0,0.0,0.0,0.0,0.0,0.0,0.0,0.0,0.0,0.0,0.0,0.0,0.0,0.0,0.0,0.0,0.0,0.0,0.0,0.0,0.0,0.0,0.0,0.0,0.0,0.0,0.0,0.0,0.0,0.0,0.0,0.0,0.0,0.0,0.0,0.0,0.0,0.0,0.0,0.0,0.0,0.0,0.0,0.0,0.0,0.0,0.0,0.0,0.0,0.0,0.0,0.0,0.0,0.0,0.0,0.0,0.0,0.0,0.0,0.0,0.0,0.0,0.0,0.0,0.0,0.0,0.0,0.0,0.0,0.0,0.0,0.0,0.0,0.0,0.0,0.0,0.0,0.0,0.0,0.0,0.0,0.0,0.0,0.0,0.0,0.0,0.0,0.0,0.0,0.0,0.0,0.0,0.0,0.0,0.0,0.0,0.0,0.0,0.0,0.0,0.0,0.0,0.0,0.0,0.0,0.0,0.0,0.0,0.0,0.0,0.0,0.0,0.0,0.0,0.0,0.0,0.0,0.0,0.0,0.0,0.0,0.0,0.0,0.0,0.0,0.0,0.0,0.0,0.0,0.0,0.0,0.0,0.0,0.0,0.0,0.0,0.0,0.0,0.0,0.0,0.0,0.0,0.0,0.0,0.0,0.0,0.0,0.0,0.0,0.0,0.0,0.0,0.0,0.0,0.0,0.0,0.0,0.0,0.0,0.0,0.0,0.0,0.0,0.0,0.0,0.0,0.0,0.0,0.0,0.0,0.0,0.0,0.0,0.0,0.0,0.0,0.0,0.0,0.0,0.0,0.0,0.0,0.0,0.0,0.0,0.0,0.0,0.0,0.0,0.0,0.0,0.0,0.0,0.0,0.0,0.0,0.0,0.0,0.0,0.0,0.0,0.0,0.0,0.0,0.0,0.0,0.0,0.0,0.0,0.0,0.0,0.0,0.0,0.0,0.0,0.0,0.0,0.0,0.0,0.0,0.0,0.0,0.0,0.0,0.0,0.0,0.0,0.0,0.0,0.0,0.0,0.0,0.0,0.0,0.0,0.0,0.0,0.0,0.0,0.0,0.0,0.0,0.0,0.0,0.0,0.0,0.0,0.0,0.0,0.0,0.0,0.0,0.0,0.0,0.0,0.0,0.0,0.0]}],[{"header":{"parameterUnit":"kt","parameterCategory":2,"dx":1,"dy":1,"la1":29.587661999999998,"la2":31.0,"lo1":-88.76705300000003,"lo2":-86.6583820000003,"nx":115,"ny":88,"refTime":"2022-11-01T18:00:00:Z","depth":0,"parameterNumber":2,"parameterNumberName":"V-component_of_WINDS"},"data":[16.0542,16.1826,16.3753,16.5323,16.6892,16.8462,16.9176,16.9176,16.9176,16.9176,16.9176,16.9176,16.9176,16.9176,16.9176,16.9176,16.9176,16.9176,16.9176,16.9675,17.2101,17.3243,17.4384,17.5883,17.7381,17.8023,17.8237,17.8095,17.7524,17.7667,17.7809,17.7238,17.5954,17.5597,17.5169,17.3671,17.1816,17.1388,17.0389,16.939,16.9176,16.9176,16.9176,16.9176,16.9176,16.9176,16.9176,16.9176,16.9176,16.9176,16.9176,16.9176,16.9176,16.9176,16.9176,16.9176,16.9176,16.9176,16.9176,16.9176,16.9881,17.0678,17.1148,17.2075,17.3316,17.3699,17.2465,17.2051,17.0418,16.8624,16.8175,16.7502,16.7352,16.7352,16.7352,16.7352,16.7352,16.7352,16.7352,16.7352,16.7352,16.7352,16.7352,16.7352,16.7352,16.7352,16.7352,16.7352,16.7352,16.7352,16.7352,16.7352,16.7352,16.7352,16.7352,16.7352,16.7352,16.7352,16.7352,16.7352,16.7352,16.7352,16.7352,16.7352,16.7352,16.7352,16.7352,16.7352,16.7352,16.7352,16.7352,16.7352,16.7352,16.7352,16.7352,15.99,16.0542,16.3253,16.5323,16.6892,16.8462,16.9176,16.9176,16.9176,16.9176,16.9176,16.9176,16.9176,16.9176,16.9176,16.9176,16.9176,16.9176,16.9961,17.0674,17.1602,17.2458,17.3457,17.4315,17.5526,17.6525,17.7381,17.7096,17.6454,17.6311,17.5811,17.4598,17.4242,17.4099,17.36,17.2458,17.1245,17.0745,17.0103,16.9318,16.9176,16.9176,16.9176,16.9176,16.9176,16.9176,16.9176,16.9176,16.9176,16.9176,16.9176,16.9176,16.9176,16.9176,16.9176,16.9176,16.9176,16.9176,16.9176,16.9243,17.0001,17.0909,17.1088,17.2166,17.3951,17.36,17.1954,17.0568,16.8824,16.7652,16.7577,16.7352,16.7352,16.7352,16.7352,16.7352,16.7352,16.7352,16.7352,16.7352,16.7352,16.7352,16.7352,16.7352,16.7352,16.7352,16.7352,16.7352,16.7352,16.7352,16.7352,16.7352,16.7352,16.7352,16.7352,16.7352,16.7352,16.7352,16.7352,16.7352,16.7352,16.7352,16.7352,16.7352,16.7352,16.7352,16.7352,16.7352,16.7352,16.7352,16.7352,16.7352,16.7352,16.7352,16.7352,15.9757,16.0185,16.3182,16.4823,16.5893,16.8105,16.9176,16.9176,16.9176,16.9176,16.9176,16.9176,16.9176,16.9176,16.9176,16.9176,16.9176,16.9176,16.9746,17.0389,17.0959,17.1816,17.2601,17.3528,17.417,17.4598,17.5526,17.574,17.4955,17.4741,17.4529,17.3887,17.2886,17.2458,17.2244,17.1102,17.0103,17.0175,16.9532,16.9176,16.9176,16.9176,16.9176,16.9176,16.9176,16.9176,16.9176,16.9176,16.9176,16.9176,16.9176,16.9176,16.9176,16.9176,16.9176,16.9176,16.9176,16.9176,16.9176,16.9432,17.0191,17.17,17.2421,17.2755,17.4417,17.3557,17.1797,16.9891,16.8143,16.7427,16.7352,16.7352,16.7352,16.7352,16.7352,16.7352,16.7352,16.7352,16.7352,16.7352,16.7352,16.7352,16.7352,16.7352,16.7352,16.7352,16.7352,16.7352,16.7352,16.7352,16.7352,16.7352,16.7352,16.7352,16.7352,16.7352,16.7352,16.7352,16.7352,16.7352,16.7352,16.7352,16.7352,16.7352,16.7352,16.7352,16.7352,16.7352,16.7352,16.7352,16.7352,16.7352,16.7352,16.7352,16.7352,15.9757,15.9971,16.2326,16.3824,16.4823,16.782,16.9176,16.9176,16.9176,16.9176,16.9176,16.9176,16.9176,16.9176,16.9176,16.9176,16.9176,16.9176,16.9176,16.9675,17.0175,17.0745,17.1174,17.1744,17.2672,17.31,17.3314,17.36,17.3742,17.3457,17.31,17.2389,17.1673,17.0888,17.0817,17.0103,16.939,16.9461,16.9176,16.9176,16.9176,16.9176,16.9176,16.9176,16.9176,16.9176,16.9176,16.9176,16.9176,16.9176,16.9176,16.9176,16.9176,16.9176,16.9176,16.9176,16.9176,16.9176,16.9176,16.9305,17.0555,17.2148,17.3219,17.3847,17.3855,17.3022,17.1615,16.9671,16.825,16.7726,16.7352,16.7352,16.7352,16.7352,16.7352,16.7352,16.7352,16.7352,16.7352,16.7352,16.7352,16.7352,16.7352,16.7352,16.7352,16.7352,16.7352,16.7352,16.7352,16.7352,16.7352,16.7352,16.7352,16.7352,16.7352,16.7352,16.7352,16.7352,16.7352,16.7352,16.7352,16.7352,16.7352,16.7352,16.7352,16.7352,16.7352,16.7352,16.7352,16.7352,16.7352,16.7352,16.7352,16.7352,16.7352,15.9757,15.9829,16.0043,16.1969,16.4681,16.782,16.9176,16.9176,16.9176,16.9176,16.9176,16.9176,16.9176,16.9176,16.9176,16.9176,16.9176,16.9176,16.9176,16.9247,16.9675,16.9675,16.9675,16.9604,17.0817,17.1388,17.1744,17.203,17.2886,17.2387,17.1031,16.9532,16.9532,16.9675,16.9746,16.9247,16.9176,16.9176,16.9176,16.9176,16.9176,16.9176,16.9176,16.9176,16.9176,16.9176,16.9176,16.9176,16.9176,16.9176,16.9176,16.9176,16.9176,16.9176,16.9176,16.9176,16.9176,16.9176,16.9176,16.9438,17.0909,17.2239,17.3216,17.3835,17.3744,17.3043,17.0717,16.8698,16.8025,16.7502,16.7352,16.7352,16.7352,16.7352,16.7352,16.7352,16.7352,16.7352,16.7352,16.7352,16.7352,16.7352,16.7352,16.7352,16.7352,16.7352,16.7352,16.7352,16.7352,16.7352,16.7352,16.7352,16.7352,16.7352,16.7352,16.7352,16.7352,16.7352,16.7352,16.7352,16.7352,16.7352,16.7352,16.7352,16.7352,16.7352,16.7352,16.7352,16.7352,16.7352,16.7352,16.7352,16.7352,16.7352,16.7352,15.9757,15.9757,15.9757,16.1612,16.4681,16.7749,16.9176,16.9176,16.9176,16.9176,16.9176,16.9176,16.9176,16.9176,16.9176,16.9176,16.9176,16.9176,16.9176,16.9176,16.9247,16.9176,16.9176,16.9318,16.9604,16.9746,17.0175,17.0603,17.0531,17.0103,16.9961,16.9176,16.9176,16.9176,16.9176,16.9176,16.9176,16.9176,16.9176,16.9176,16.9176,16.9176,16.9176,16.9176,16.9176,16.9176,16.9176,16.9176,16.9176,16.9176,16.9176,16.9176,16.9176,16.9176,16.9176,16.9176,16.9176,16.9176,16.9238,16.9752,17.1369,17.2827,17.3948,17.3922,17.3519,17.2736,17.0493,16.825,16.7726,16.7352,16.7352,16.7352,16.7352,16.7352,16.7352,16.7352,16.7352,16.7352,16.7352,16.7352,16.7352,16.7352,16.7352,16.7352,16.7352,16.7352,16.7352,16.7352,16.7352,16.7352,16.7352,16.7352,16.7352,16.7352,16.7352,16.7352,16.7352,16.7352,16.7352,16.7352,16.7352,16.7352,16.7352,16.7352,16.7352,16.7352,16.7352,16.7352,16.7352,16.7352,16.7352,16.7352,16.7352,16.7352,16.7352,15.9757,15.9757,15.9757,16.1327,16.4038,16.6607,16.8391,16.9104,16.9176,16.9176,16.9176,16.9176,16.9176,16.9176,16.9176,16.9176,16.9176,16.9176,16.9176,16.9176,16.9176,16.9176,16.9176,16.9176,16.9176,16.9247,16.9247,16.939,16.9318,16.9247,16.9247,16.9176,16.9176,16.9176,16.9176,16.9176,16.9176,16.9176,16.9176,16.9176,16.9176,16.9176,16.9176,16.9176,16.9176,16.9176,16.9176,16.9176,16.9176,16.9176,16.9176,16.9176,16.9176,16.9176,16.9176,16.9176,16.9176,16.9171,16.9371,17.0442,17.1829,17.3086,17.4871,17.4376,17.3136,17.2063,17.0867,16.8773,16.7427,16.7352,16.7352,16.7352,16.7352,16.7352,16.7352,16.7352,16.7352,16.7352,16.7352,16.7352,16.7352,16.7352,16.7352,16.7352,16.7352,16.7352,16.7352,16.7352,16.7352,16.7352,16.7352,16.7352,16.7352,16.7352,16.7352,16.7352,16.7352,16.7352,16.7352,16.7352,16.7352,16.7352,16.7352,16.7352,16.7352,16.7352,16.7352,16.7352,16.7352,16.7352,16.7352,16.7352,16.7352,16.7352,16.7352,15.9757,15.9757,15.9757,16.0756,16.2397,16.4181,16.6464,16.8962,16.9104,16.9176,16.9176,16.9176,16.9176,16.9176,16.9176,16.9176,16.9176,16.9176,16.9176,16.9176,16.9176,16.9176,16.9176,16.9176,16.9176,16.9176,16.9176,16.9176,16.9176,16.9176,16.9176,16.9176,16.9176,16.9176,16.9176,16.9176,16.9176,16.9176,16.9176,16.9176,16.9176,16.9176,16.9176,16.9176,16.9176,16.9176,16.9176,16.9176,16.9176,16.9176,16.9176,16.9176,16.9176,16.9176,16.9176,16.9176,16.9176,16.9238,16.9563,17.08,17.2092,17.3637,17.5505,17.4782,17.3409,17.1989,17.0344,16.8474,16.7352,16.7352,16.7352,16.7352,16.7352,16.7352,16.7352,16.7352,16.7352,16.7352,16.7352,16.7352,16.7352,16.7352,16.7352,16.7352,16.7352,16.7352,16.7352,16.7352,16.7352,16.7352,16.7352,16.7352,16.7352,16.7352,16.7352,16.7352,16.7352,16.7352,16.7352,16.7352,16.7352,16.7352,16.7352,16.7352,16.7352,16.7352,16.7352,16.7352,16.7352,16.7352,16.7352,16.7352,16.7352,16.7352,16.6605,15.9757,15.9757,15.9757,16.0685,16.2255,16.3753,16.4966,16.625,16.8248,16.9176,16.9176,16.9176,16.9176,16.9176,16.9176,16.9176,16.9176,16.9176,16.9176,16.9176,16.9176,16.9176,16.9176,16.9176,16.9176,16.9176,16.9176,16.9176,16.9176,16.9176,16.9176,16.9176,16.9176,16.9176,16.9176,16.9176,16.9176,16.9176,16.9176,16.9176,16.9176,16.9176,16.9176,16.9176,16.9176,16.9176,16.9176,16.9176,16.9176,16.9176,16.9176,16.9176,16.9176,16.9176,16.9176,16.9176,16.9171,16.9629,17.0432,17.1586,17.2763,17.4007,17.4969,17.4504,17.2961,17.1465,16.9596,16.825,16.7502,16.7352,16.7352,16.7352,16.7352,16.7352,16.7352,16.7352,16.7352,16.7352,16.7352,16.7352,16.7352,16.7352,16.7352,16.7352,16.7352,16.7352,16.7352,16.7352,16.7352,16.7352,16.7352,16.7352,16.7352,16.7352,16.7352,16.7352,16.7352,16.7352,16.7352,16.7352,16.7352,16.7352,16.7352,16.7352,16.7352,16.7352,16.7352,16.7352,16.7352,16.7352,16.7203,16.7128,16.7352,16.6679,16.5707,15.9757,15.9757,15.9757,16.0399,16.1541,16.3539,16.4466,16.5037,16.7606,16.9176,16.9176,16.9176,16.9176,16.9176,16.9176,16.9176,16.9176,16.9176,16.9176,16.9176,16.9176,16.9176,16.9176,16.9176,16.9176,16.9176,16.9176,16.9176,16.9176,16.9176,16.9176,16.9176,16.9176,16.9176,16.9176,16.9176,16.9176,16.9176,16.9176,16.9176,16.9176,16.9176,16.9176,16.9176,16.9176,16.9176,16.9176,16.9176,16.9176,16.9176,16.9176,16.9176,16.9176,16.9176,16.9176,16.9176,16.9176,16.9629,17.0483,17.1764,17.3117,17.3922,17.4005,17.2696,17.1806,17.0418,16.9147,16.7876,16.7427,16.7352,16.7352,16.7352,16.7352,16.7352,16.7352,16.7352,16.7352,16.7352,16.7352,16.7352,16.7352,16.7352,16.7352,16.7352,16.7352,16.7352,16.7352,16.7352,16.7352,16.7352,16.7352,16.7352,16.7352,16.7352,16.7352,16.7352,16.7352,16.7352,16.7352,16.7352,16.7352,16.7352,16.7352,16.7352,16.7352,16.7352,16.7352,16.7352,16.7352,16.6979,16.6455,16.6231,16.6006,16.5333,16.4361,15.9757,15.9757,15.9757,15.9757,16.0257,16.3111,16.4395,16.4823,16.7535,16.8962,16.9104,16.9176,16.9176,16.9176,16.9176,16.9176,16.9176,16.9176,16.9176,16.9176,16.9176,16.9176,16.9176,16.9176,16.9176,16.9176,16.9176,16.9176,16.9176,16.9176,16.9176,16.9176,16.9176,16.9176,16.9176,16.9176,16.9176,16.9176,16.9176,16.9176,16.9176,16.9176,16.9176,16.9176,16.9176,16.9176,16.9176,16.9176,16.9176,16.9176,16.9176,16.9176,16.9176,16.9176,16.9176,16.9171,16.9238,16.9371,16.9492,17.0525,17.2474,17.4302,17.2925,17.1359,17.036,16.9596,16.8848,16.7652,16.7352,16.7352,16.7352,16.7352,16.7352,16.7352,16.7352,16.7352,16.7352,16.7352,16.7352,16.7352,16.7352,16.7352,16.7352,16.7352,16.7352,16.7352,16.7352,16.7352,16.7352,16.7352,16.7352,16.7352,16.7352,16.7352,16.7352,16.7352,16.7352,16.7352,16.7352,16.7352,16.7352,16.7352,16.7352,16.7352,16.7352,16.7352,16.7352,16.7352,16.6904,16.653,16.5857,16.5109,16.4511,16.3838,16.2492,15.9757,15.9757,15.9757,15.9757,16.0043,16.1969,16.3468,16.4681,16.6678,16.8034,16.9104,16.9176,16.9176,16.9176,16.9176,16.9176,16.9176,16.9176,16.9176,16.9176,16.9176,16.9176,16.9176,16.9176,16.9176,16.9176,16.9176,16.9176,16.9176,16.9176,16.9176,16.9176,16.9176,16.9176,16.9176,16.9176,16.9176,16.9176,16.9176,16.9176,16.9176,16.9176,16.9176,16.9176,16.9176,16.9176,16.9176,16.9176,16.9176,16.9176,16.9176,16.9176,16.9176,16.9176,16.9176,16.9432,16.9945,17.0617,17.1238,17.2375,17.4186,17.4,17.24,17.0901,16.9979,16.8773,16.8325,16.7352,16.7352,16.7352,16.7352,16.7352,16.7352,16.7352,16.7352,16.7352,16.7352,16.7352,16.7352,16.7352,16.7352,16.7352,16.7352,16.7352,16.7352,16.7352,16.7352,16.7352,16.7352,16.7352,16.7352,16.7352,16.7352,16.7352,16.7352,16.7352,16.7352,16.7352,16.7352,16.7352,16.7352,16.7352,16.7352,16.7352,16.7352,16.7352,16.7278,16.7053,16.6605,16.6006,16.5184,16.4436,16.3614,16.1968,16.0622,15.9757,15.9757,15.9757,15.9757,15.99,16.147,16.3039,16.4609,16.6108,16.7677,16.9176,16.9176,16.9176,16.9176,16.9176,16.9176,16.9176,16.9176,16.9176,16.9176,16.9176,16.9176,16.9176,16.9176,16.9176,16.9176,16.9176,16.9176,16.9176,16.9176,16.9176,16.9176,16.9176,16.9176,16.9176,16.9176,16.9176,16.9176,16.9176,16.9176,16.9176,16.9176,16.9176,16.9176,16.9176,16.9176,16.9176,16.9176,16.9176,16.9176,16.9176,16.9176,16.9176,16.9176,16.9176,16.9238,17.0442,17.0969,17.1601,17.3922,17.4778,17.3702,17.1133,16.9374,16.8815,16.8025,16.7502,16.7352,16.7352,16.7352,16.7352,16.7352,16.7352,16.7352,16.7352,16.7352,16.7352,16.7352,16.7352,16.7352,16.7352,16.7352,16.7352,16.7352,16.7352,16.7352,16.7352,16.7352,16.7352,16.7352,16.7352,16.7352,16.7352,16.7352,16.7352,16.7352,16.7352,16.7352,16.7352,16.7352,16.7352,16.7352,16.7352,16.7352,16.7352,16.7352,16.7203,16.6829,16.6231,16.5408,16.4586,16.3539,16.1894,16.0249,15.9351,15.9757,15.9757,15.9757,15.9757,15.99,16.1398,16.2897,16.4538,16.5965,16.7463,16.8962,16.9176,16.9176,16.9176,16.9176,16.9176,16.9176,16.9176,16.9176,16.9176,16.9176,16.9176,16.9176,16.9176,16.9176,16.9176,16.9176,16.9176,16.9176,16.9176,16.9176,16.9176,16.9176,16.9176,16.9176,16.9176,16.9176,16.9176,16.9176,16.9176,16.9176,16.9176,16.9176,16.9176,16.9176,16.9176,16.9176,16.9176,16.9176,16.9176,16.9176,16.9176,16.9171,16.9504,16.9694,17.0001,17.1135,17.2092,17.2722,17.4692,17.4601,17.1467,16.8898,16.7933,16.7886,16.7427,16.7352,16.7352,16.7352,16.7352,16.7352,16.7352,16.7352,16.7352,16.7352,16.7352,16.7352,16.7352,16.7352,16.7352,16.7352,16.7352,16.7352,16.7352,16.7352,16.7352,16.7352,16.7352,16.7352,16.7352,16.7352,16.7352,16.7352,16.7352,16.7352,16.7352,16.7352,16.7352,16.7352,16.7352,16.7352,16.7352,16.7352,16.7352,16.7352,16.7352,16.7278,16.6231,16.5333,16.466,16.3464,16.1819,16.0174,15.9127,15.8454,15.9757,15.9757,15.9757,15.9757,15.9829,16.0185,16.1898,16.4324,16.4966,16.6607,16.8534,16.9176,16.9176,16.9176,16.9176,16.9176,16.9176,16.9176,16.9176,16.9176,16.9176,16.9176,16.9176,16.9176,16.9176,16.9176,16.9176,16.9176,16.9176,16.9176,16.9176,16.9176,16.9176,16.9176,16.9176,16.9176,16.9176,16.9176,16.9176,16.9176,16.9176,16.9176,16.9176,16.9176,16.9176,16.9176,16.9176,16.9176,16.9176,16.9176,16.9176,16.9176,16.9305,16.9945,17.0504,17.0909,17.2806,17.3975,17.4738,17.5471,17.5603,17.3957,17.1792,16.9185,16.8025,16.7352,16.7352,16.7352,16.7352,16.7352,16.7352,16.7352,16.7352,16.7352,16.7352,16.7352,16.7352,16.7352,16.7352,16.7352,16.7352,16.7352,16.7352,16.7352,16.7352,16.7352,16.7352,16.7352,16.7352,16.7352,16.7352,16.7352,16.7352,16.7352,16.7352,16.7352,16.7352,16.7352,16.7352,16.7352,16.7352,16.7352,16.7352,16.7352,16.7352,16.7203,16.6754,16.5558,16.4436,16.2941,16.1445,15.9949,15.9052,15.8304,15.7781,15.9757,15.9757,15.9757,15.9757,15.9757,15.9757,16.1541,16.3967,16.4466,16.625,16.8748,16.9176,16.9176,16.9176,16.9176,16.9176,16.9176,16.9176,16.9176,16.9176,16.9176,16.9176,16.9176,16.9176,16.9176,16.9176,16.9176,16.9176,16.9176,16.9176,16.9176,16.9176,16.9176,16.9176,16.9176,16.9176,16.9176,16.9176,16.9176,16.9176,16.9176,16.9176,16.9176,16.9176,16.9176,16.9176,16.9176,16.9176,16.9176,16.9176,16.9176,16.9176,16.9432,17.0379,17.1325,17.1616,17.421,17.5894,17.6124,17.6833,17.57,17.4124,17.2736,17.0867,16.8325,16.7352,16.7352,16.7352,16.7352,16.7352,16.7352,16.7352,16.7352,16.7352,16.7352,16.7352,16.7352,16.7352,16.7352,16.7352,16.7352,16.7352,16.7352,16.7352,16.7352,16.7352,16.7352,16.7352,16.7352,16.7352,16.7352,16.7352,16.7352,16.7352,16.7352,16.7352,16.7352,16.7352,16.7352,16.7352,16.7352,16.7352,16.7352,16.7352,16.7203,16.6679,16.6156,16.4885,16.3015,16.1221,15.9501,15.8903,15.8304,15.7631,15.7631,15.9757,15.9757,15.9757,15.9757,15.9757,15.9757,16.1541,16.4252,16.4466,16.625,16.9104,16.9176,16.9176,16.9176,16.9176,16.9176,16.9176,16.9176,16.9176,16.9176,16.9176,16.9176,16.9176,16.9176,16.9176,16.9176,16.9176,16.9176,16.9176,16.9176,16.9176,16.9176,16.9176,16.9176,16.9176,16.9176,16.9176,16.9176,16.9176,16.9176,16.9176,16.9176,16.9176,16.9176,16.9176,16.9176,16.9176,16.9176,16.9176,16.9176,16.9176,16.9176,16.9438,17.0555,17.1383,17.2795,17.4812,17.7264,17.712,17.7189,17.6101,17.3409,17.2512,17.0568,16.8474,16.7352,16.7352,16.7352,16.7352,16.7352,16.7352,16.7352,16.7352,16.7352,16.7352,16.7352,16.7352,16.7352,16.7352,16.7352,16.7352,16.7352,16.7352,16.7352,16.7352,16.7352,16.7352,16.7352,16.7352,16.7352,16.7352,16.7352,16.7352,16.7352,16.7352,16.7352,16.7352,16.7352,16.7352,16.7352,16.7352,16.7352,16.7352,16.7053,16.6829,16.6455,16.4586,16.2941,16.1595,16.0174,15.8903,15.8155,15.7631,15.7631,15.7631,15.9757,15.9757,15.9757,15.9757,15.9757,15.9757,16.1541,16.4038,16.4466,16.625,16.889,16.9176,16.9176,16.9176,16.9176,16.9176,16.9176,16.9176,16.9176,16.9176,16.9176,16.9176,16.9176,16.9176,16.9176,16.9176,16.9176,16.9176,16.9176,16.9176,16.9176,16.9176,16.9176,16.9176,16.9176,16.9176,16.9176,16.9176,16.9176,16.9176,16.9176,16.9176,16.9176,16.9176,16.9176,16.9176,16.9176,16.9176,16.9176,16.9176,16.9176,16.9176,16.9563,17.1413,17.3216,17.444,17.6199,17.7085,17.7223,17.7148,17.5578,17.2437,17.2363,17.0493,16.8399,16.7352,16.7352,16.7352,16.7352,16.7352,16.7352,16.7352,16.7352,16.7352,16.7352,16.7352,16.7352,16.7352,16.7352,16.7352,16.7352,16.7352,16.7352,16.7352,16.7352,16.7352,16.7352,16.7352,16.7352,16.7352,16.7352,16.7352,16.7352,16.7352,16.7352,16.7352,16.7352,16.7352,16.7352,16.7352,16.7352,16.7352,16.6979,16.6679,16.6231,16.4735,16.2342,16.0398,15.9949,15.9276,15.823,15.7631,15.7631,15.7631,15.7631,15.9757,15.9757,15.9757,15.9757,15.9757,15.9757,16.1541,16.4181,16.4538,16.6179,16.8391,16.9176,16.9176,16.9176,16.9176,16.9176,16.9176,16.9176,16.9176,16.9176,16.9176,16.9176,16.9176,16.9176,16.9176,16.9176,16.9176,16.9176,16.9176,16.9176,16.9176,16.9176,16.9176,16.9176,16.9176,16.9176,16.9176,16.9176,16.9176,16.9176,16.9176,16.9176,16.9176,16.9176,16.9176,16.9176,16.9176,16.9176,16.9176,16.9176,16.9176,16.9498,17.0493,17.2019,17.3783,17.5044,17.6427,17.6999,17.6176,17.5952,17.4606,17.1764,17.1166,16.9895,16.8175,16.7352,16.7352,16.7352,16.7352,16.7352,16.7352,16.7352,16.7352,16.7352,16.7352,16.7352,16.7352,16.7352,16.7352,16.7352,16.7352,16.7352,16.7352,16.7352,16.7352,16.7352,16.7352,16.7352,16.7352,16.7352,16.7352,16.7352,16.7352,16.7352,16.7352,16.7352,16.7352,16.7352,16.7352,16.7352,16.7352,16.7352,16.6979,16.5707,16.4361,16.3015,16.1071,15.9725,15.8903,15.8155,15.7856,15.7631,15.7631,15.7631,15.7631,15.9757,15.9757,15.9757,15.9757,15.9757,15.9757,16.1541,16.411,16.4466,16.625,16.889,16.9176,16.9176,16.9176,16.9176,16.9176,16.9176,16.9176,16.9176,16.9176,16.9176,16.9176,16.9176,16.9176,16.9176,16.9176,16.9176,16.9176,16.9176,16.9176,16.9176,16.9176,16.9176,16.9176,16.9176,16.9176,16.9176,16.9176,16.9176,16.9176,16.9176,16.9176,16.9176,16.9176,16.9176,16.9176,16.9176,16.9176,16.9176,16.9176,16.9176,17.0191,17.1813,17.3034,17.4081,17.5018,17.6051,17.5877,17.4681,17.4382,17.2811,17.0792,17.0044,16.9147,16.7951,16.7352,16.7352,16.7352,16.7352,16.7352,16.7352,16.7352,16.7352,16.7352,16.7352,16.7352,16.7352,16.7352,16.7352,16.7352,16.7352,16.7352,16.7352,16.7352,16.7352,16.7352,16.7352,16.7352,16.7352,16.7352,16.7352,16.7352,16.7352,16.7352,16.7352,16.7352,16.7352,16.7352,16.7278,16.7278,16.6829,16.6979,16.5782,16.3614,16.2043,16.1146,16.0473,15.9576,15.8678,15.8005,15.7781,15.7631,15.7631,15.7631,15.7631,15.9757,15.9757,15.9757,15.9757,15.9757,15.9757,16.1541,16.4181,16.4466,16.6108,16.8748,16.9176,16.9176,16.9176,16.9176,16.9176,16.9176,16.9176,16.9176,16.9176,16.9176,16.9176,16.9176,16.9176,16.9176,16.9176,16.9176,16.9176,16.9176,16.9176,16.9176,16.9176,16.9176,16.9176,16.9176,16.9176,16.9176,16.9176,16.9176,16.9176,16.9176,16.9176,16.9176,16.9176,16.9176,16.9176,16.9176,16.9176,16.9243,16.9176,16.9176,17.1062,17.3465,17.4766,17.4936,17.4782,17.4958,17.4382,17.311,17.2587,17.1989,17.0194,16.982,16.8998,16.7801,16.7352,16.7352,16.7352,16.7352,16.7352,16.7352,16.7352,16.7352,16.7352,16.7352,16.7352,16.7352,16.7352,16.7352,16.7352,16.7352,16.7352,16.7352,16.7352,16.7352,16.7352,16.7352,16.7352,16.7352,16.7352,16.7352,16.7352,16.7352,16.7352,16.7352,16.7352,16.7352,16.7352,16.7203,16.6605,16.5707,16.5109,16.3763,16.152,16.0174,15.9501,15.8828,15.8603,15.8379,15.793,15.7631,15.7631,15.7631,15.7631,15.7482,15.9757,15.9757,15.9757,15.9757,15.9757,15.9829,16.1113,16.3111,16.4038,16.5751,16.7677,16.8819,16.9176,16.9176,16.9176,16.9176,16.9176,16.9176,16.9176,16.9176,16.9176,16.9176,16.9176,16.9176,16.9176,16.9176,16.9176,16.9176,16.9176,16.9176,16.9176,16.9176,16.9176,16.9176,16.9176,16.9176,16.9176,16.9176,16.9176,16.9176,16.9176,16.9176,16.9176,16.9176,16.9176,16.9176,16.9176,16.9176,16.9563,17.0254,17.0956,17.2543,17.4591,17.4357,17.4293,17.4401,17.4082,17.2736,17.154,17.0942,17.0344,16.8624,16.8549,16.8025,16.7652,16.7352,16.7352,16.7352,16.7352,16.7352,16.7352,16.7352,16.7352,16.7352,16.7352,16.7352,16.7352,16.7352,16.7352,16.7352,16.7352,16.7352,16.7352,16.7352,16.7352,16.7352,16.7352,16.7352,16.7352,16.7352,16.7352,16.7352,16.7352,16.7352,16.7352,16.7352,16.7352,16.7053,16.6605,16.5483,16.4361,16.309,16.1744,16.0249,15.8828,15.808,15.808,15.7856,15.7706,15.7631,15.7631,15.7631,15.7557,15.7257,15.7108,15.9757,15.9757,15.9757,15.9757,15.9757,15.9757,16.0685,16.219,16.3396,16.4966,16.675,16.8034,16.8748,16.9176,16.9176,16.9176,16.9176,16.9176,16.9176,16.9176,16.9176,16.9176,16.9176,16.9176,16.9176,16.9176,16.9176,16.9176,16.9176,16.9176,16.9176,16.9176,16.9176,16.9176,16.9176,16.9176,16.9176,16.9176,16.9176,16.9176,16.9176,16.9176,16.9176,16.9176,16.9176,16.9176,16.9104,16.9366,17.0254,17.1471,17.2324,17.2999,17.4251,17.3337,17.2731,17.2947,17.2363,17.1091,16.9745,16.9297,16.8773,16.7652,16.7577,16.7352,16.7352,16.7352,16.7352,16.7352,16.7352,16.7352,16.7352,16.7352,16.7352,16.7352,16.7352,16.7352,16.7352,16.7352,16.7352,16.7352,16.7352,16.7352,16.7352,16.7352,16.7352,16.7352,16.7352,16.7352,16.7352,16.7352,16.7352,16.7352,16.7352,16.7352,16.7352,16.7352,16.6979,16.6455,16.5259,16.4062,16.2866,16.1595,16.0099,15.8753,15.7631,15.7631,15.7781,15.7631,15.7631,15.7631,15.7631,15.7183,15.6809,15.6884,15.6584,15.9757,15.9757,15.9757,15.9757,15.9757,15.9757,16.0613,16.1969,16.2397,16.4038,16.6179,16.6892,16.782,16.9176,16.9033,16.9176,16.9176,16.9176,16.9176,16.9176,16.9176,16.9176,16.9176,16.9176,16.9176,16.9176,16.9176,16.9176,16.9176,16.9176,16.9176,16.9176,16.9176,16.9176,16.9176,16.9176,16.9176,16.9176,16.9176,16.9176,16.9176,16.9176,16.9176,16.9176,16.9176,16.9176,16.9438,17.0317,17.1427,17.2879,17.1721,17.2564,17.4079,17.2133,17.1025,17.07,17.0418,16.9446,16.8025,16.7876,16.7577,16.7427,16.7352,16.7352,16.7352,16.7352,16.7352,16.7352,16.7352,16.7352,16.7352,16.7352,16.7352,16.7352,16.7352,16.7352,16.7352,16.7352,16.7352,16.7352,16.7352,16.7352,16.7352,16.7352,16.7352,16.7352,16.7352,16.7352,16.7352,16.7352,16.7352,16.7352,16.7352,16.7352,16.7203,16.7203,16.638,16.5408,16.3913,16.2716,16.152,16.0024,15.8529,15.7781,15.7706,15.7631,15.7631,15.7631,15.7631,15.7557,15.7033,15.651,15.5911,15.5911,15.4939,15.9757,15.9757,15.9757,15.9757,15.9757,15.9757,16.0185,16.0827,16.1684,16.2968,16.4252,16.5893,16.7106,16.782,16.8748,16.9176,16.9176,16.9176,16.9176,16.9176,16.9176,16.9176,16.9176,16.9176,16.9176,16.9176,16.9176,16.9176,16.9176,16.9176,16.9176,16.9176,16.9176,16.9176,16.9176,16.9176,16.9176,16.9176,16.9176,16.9176,16.9176,16.9176,16.9176,16.9176,16.9176,16.9176,16.9305,17.0432,17.15,17.1838,17.2118,17.2503,17.3291,17.1398,17.012,16.9904,16.8923,16.8175,16.7502,16.7352,16.7352,16.7352,16.7352,16.7352,16.7352,16.7352,16.7352,16.7352,16.7352,16.7352,16.7352,16.7352,16.7352,16.7352,16.7352,16.7352,16.7352,16.7352,16.7352,16.7352,16.7352,16.7352,16.7352,16.7352,16.7352,16.7352,16.7352,16.7352,16.7352,16.7352,16.7352,16.7352,16.7352,16.6605,16.6231,16.5932,16.5259,16.3913,16.2567,16.1595,16.0174,15.8454,15.7781,15.7706,15.7631,15.7631,15.7631,15.7631,15.7482,15.7033,15.6435,15.5911,15.5164,15.479,15.3219,15.9757,15.9757,15.9757,15.9757,15.9757,15.9757,15.9757,15.9971,16.1042,16.1684,16.2611,16.4609,16.5822,16.6821,16.8034,16.8748,16.9033,16.9176,16.9176,16.9176,16.9176,16.9176,16.9176,16.9176,16.9176,16.9176,16.9176,16.9176,16.9176,16.9176,16.9176,16.9176,16.9176,16.9176,16.9176,16.9176,16.9176,16.9176,16.9176,16.9176,16.9176,16.9176,16.9176,16.9176,16.9176,16.9176,16.9238,17.0128,17.0655,17.0731,17.0992,17.1084,17.1136,16.9611,16.8662,16.8857,16.81,16.7352,16.7352,16.7352,16.7352,16.7352,16.7352,16.7352,16.7352,16.7352,16.7352,16.7352,16.7352,16.7352,16.7352,16.7352,16.7352,16.7352,16.7352,16.7352,16.7352,16.7352,16.7352,16.7352,16.7352,16.7352,16.7352,16.7352,16.7352,16.7352,16.7352,16.7352,16.7352,16.7352,16.6904,16.7053,16.653,16.5707,16.496,16.4586,16.3763,16.2342,16.1221,16.0174,15.8903,15.7706,15.7631,15.7631,15.7557,15.7557,15.7557,15.7332,15.7033,15.6659,15.5762,15.464,15.4042,15.307,15.15,15.9757,15.9757,15.9757,15.9757,15.9757,15.9757,15.9757,15.9757,15.9971,16.0827,16.1898,16.2611,16.411,16.625,16.6678,16.7677,16.889,16.8962,16.889,16.889,16.9176,16.9176,16.9176,16.9176,16.9176,16.9176,16.9176,16.9176,16.9176,16.9176,16.9176,16.9176,16.9176,16.9176,16.9176,16.9176,16.9176,16.9176,16.9176,16.9176,16.9176,16.9176,16.9176,16.9176,16.9176,16.9176,16.9104,16.9157,16.9148,16.8818,16.7532,16.7409,16.7808,16.6613,16.6596,16.7619,16.7502,16.7352,16.7352,16.7352,16.7352,16.7352,16.7352,16.7352,16.7352,16.7352,16.7352,16.7352,16.7352,16.7352,16.7352,16.7352,16.7352,16.7352,16.7352,16.7352,16.7352,16.7352,16.7352,16.7352,16.7352,16.7352,16.7352,16.7352,16.7352,16.7352,16.7203,16.7053,16.7053,16.653,16.638,16.5857,16.5184,16.4212,16.2941,16.2567,16.2043,16.0697,15.9501,15.8753,15.793,15.7631,15.7631,15.7557,15.7482,15.7482,15.7332,15.6734,15.6285,15.5463,15.4341,15.3369,15.2322,15.12,14.9854,15.9757,15.9757,15.9757,15.9757,15.9757,15.9757,15.9757,15.9757,15.9757,16.0114,16.0827,16.1684,16.2825,16.3896,16.4895,16.6179,16.7535,16.7677,16.7606,16.7749,16.8534,16.9104,16.9176,16.9176,16.9176,16.9176,16.9176,16.9176,16.9176,16.9176,16.9176,16.9176,16.9176,16.9176,16.9176,16.9176,16.9176,16.9176,16.9176,16.9176,16.9176,16.9176,16.9176,16.9176,16.9176,16.9176,16.9033,16.8177,16.7221,16.6213,16.5545,16.5578,16.6591,16.6776,16.6837,16.7288,16.7352,16.7352,16.7352,16.7352,16.7352,16.7352,16.7352,16.7352,16.7352,16.7352,16.7352,16.7352,16.7352,16.7352,16.7352,16.7352,16.7352,16.7352,16.7352,16.7352,16.7352,16.7352,16.7352,16.7352,16.7352,16.7352,16.7352,16.7352,16.7352,16.7203,16.653,16.5932,16.5707,16.5034,16.4287,16.3688,16.3389,16.2567,16.1221,16.0622,16.0174,15.9202,15.8155,15.7856,15.7631,15.7631,15.7407,15.7332,15.6734,15.6584,15.5911,15.5538,15.4865,15.3668,15.2546,15.1724,15.0976,14.9705,14.8733,15.9757,15.9757,15.9757,15.9757,15.9757,15.9757,15.9757,15.9757,15.9757,15.9757,15.9971,16.0899,16.1684,16.2326,16.3182,16.4609,16.5965,16.5537,16.5893,16.6821,16.7891,16.8605,16.9033,16.9176,16.9176,16.9176,16.9176,16.9176,16.9176,16.9176,16.9176,16.9176,16.9176,16.9176,16.9176,16.9176,16.9176,16.9176,16.9176,16.9176,16.9176,16.9176,16.9176,16.9176,16.9176,16.8605,16.7677,16.6678,16.5323,16.3824,16.3753,16.4177,16.5318,16.6595,16.732,16.7352,16.7352,16.7352,16.7352,16.7352,16.7352,16.7352,16.7352,16.7352,16.7352,16.7352,16.7352,16.7352,16.7352,16.7352,16.7352,16.7352,16.7352,16.7352,16.7352,16.7352,16.7352,16.7352,16.7352,16.7352,16.7352,16.7352,16.7352,16.6679,16.653,16.638,16.5184,16.4287,16.4137,16.3389,16.2492,16.1744,16.152,16.1146,15.9949,15.9127,15.8903,15.8304,15.7856,15.7631,15.7631,15.7557,15.7183,15.6734,15.5837,15.5164,15.4416,15.3668,15.2995,15.1948,15.1275,15.0453,14.963,14.8658,14.7761,15.9757,15.9757,15.9757,15.9757,15.9757,15.9757,15.9757,15.9757,15.9757,15.9757,15.9757,15.9829,16.0756,16.1826,16.204,16.2968,16.3896,16.3182,16.3967,16.6179,16.6678,16.7535,16.8676,16.8676,16.8605,16.8676,16.9033,16.9104,16.9176,16.9176,16.9176,16.9176,16.9176,16.9176,16.9176,16.9176,16.9176,16.9176,16.9176,16.9176,16.9176,16.9176,16.9104,16.8962,16.8819,16.7463,16.4681,16.4538,16.3753,16.2397,16.2183,16.2652,16.3974,16.6112,16.7352,16.7352,16.7352,16.7352,16.7352,16.7352,16.7352,16.7352,16.7352,16.7352,16.7352,16.7352,16.7352,16.7352,16.7352,16.7352,16.7352,16.7352,16.7352,16.7352,16.7352,16.7352,16.7352,16.7352,16.7352,16.7128,16.6829,16.7203,16.6979,16.5932,16.5034,16.4735,16.3614,16.2492,16.2417,16.2043,16.152,16.0473,15.9949,15.965,15.8603,15.7631,15.7631,15.7631,15.7482,15.7332,15.7183,15.6958,15.651,15.5388,15.4491,15.3818,15.2995,15.1799,15.1051,15.0527,15.0228,14.9555,14.8508,14.7536,14.6639,15.9757,15.9757,15.9757,15.9757,15.9757,15.9757,15.9757,15.9757,15.9757,15.9757,15.9757,15.9757,16.0043,16.0471,16.0542,16.0827,16.1256,16.1969,16.2683,16.3682,16.4752,16.5465,16.5893,16.5965,16.5965,16.6108,16.7035,16.8105,16.9033,16.9176,16.9176,16.9104,16.9176,16.9176,16.9176,16.9176,16.9176,16.9176,16.9176,16.9104,16.9176,16.9176,16.8605,16.7535,16.6536,16.4966,16.3039,16.2897,16.2183,16.0756,16.0542,16.1513,16.3608,16.6038,16.7352,16.7352,16.7352,16.7352,16.7352,16.7352,16.7352,16.7352,16.7352,16.7352,16.7352,16.7352,16.7352,16.7352,16.7352,16.7352,16.7352,16.7352,16.7352,16.7352,16.7352,16.7352,16.7352,16.7278,16.6829,16.5857,16.496,16.4212,16.3987,16.3614,16.3389,16.3314,16.1894,16.0847,16.0622,15.9949,15.8903,15.8529,15.8529,15.8155,15.7631,15.7108,15.6958,15.7033,15.6958,15.6659,15.636,15.5986,15.5313,15.3967,15.307,15.2397,15.1425,15.0079,14.9256,14.8733,14.8434,14.7985,14.6938,14.6116,14.5143,15.9757,15.9757,15.9757,15.9757,15.9757,15.9757,15.9757,15.9757,15.9757,15.9757,15.9757,15.9757,15.9757,15.9757,15.9757,15.9757,15.9829,16.0756,16.1612,16.219,16.3182,16.3896,16.4395,16.4466,16.4466,16.4609,16.5465,16.6464,16.7392,16.7463,16.7463,16.7463,16.7463,16.7463,16.7463,16.7463,16.7463,16.7392,16.7463,16.7463,16.7392,16.7463,16.6678,16.5109,16.411,16.2897,16.1327,16.1256,16.0827,15.9829,15.9757,16.0995,16.3438,16.5176,16.6409,16.7255,16.7352,16.7352,16.7352,16.7352,16.7352,16.7352,16.7352,16.7352,16.7352,16.7352,16.7352,16.7352,16.7352,16.6979,16.6754,16.653,16.6306,16.5782,16.5633,16.5483,16.5558,16.5558,16.5259,16.4212,16.324,16.2492,16.2567,16.1968,16.1595,16.1445,16.0174,15.9276,15.8977,15.8379,15.7781,15.7631,15.7631,15.7482,15.6958,15.636,15.5911,15.5911,15.5837,15.5164,15.479,15.4341,15.3593,15.2247,15.1799,15.1126,14.9854,14.8583,14.791,14.7312,14.6789,14.6116,14.4695,14.447,14.3648,15.9757,15.9757,15.9757,15.9757,15.9757,15.9757,15.9757,15.9757,15.9757,15.9757,15.9757,15.9757,15.9757,15.9757,15.9757,15.9757,15.9757,15.9829,16.0685,16.1826,16.204,16.2825,16.4181,16.4252,16.4181,16.3824,16.4181,16.4395,16.4466,16.4538,16.4466,16.4538,16.4752,16.4609,16.4681,16.4752,16.4538,16.4823,16.4823,16.4609,16.4609,16.4395,16.3539,16.2326,16.204,16.1398,16.0043,15.9757,15.9757,15.9757,15.9757,16.0878,16.3192,16.3656,16.4796,16.6912,16.732,16.7352,16.7352,16.7352,16.7352,16.7352,16.7352,16.7352,16.7352,16.7352,16.7352,16.7352,16.7053,16.6306,16.5184,16.4885,16.4287,16.3015,16.2716,16.2716,16.2641,16.3015,16.2567,16.2417,16.2268,16.1968,16.1968,16.0847,16.0024,15.965,15.8678,15.7781,15.7856,15.7781,15.7631,15.7631,15.7407,15.6884,15.5238,15.4341,15.3294,15.3294,15.3668,15.2846,15.2621,15.2322,15.15,15.0752,15.0303,14.9481,14.8284,14.7312,14.6639,14.6116,14.5592,14.447,14.305,14.2825,14.2003,15.9757,15.9757,15.9757,15.9757,15.9757,15.9757,15.9757,15.9757,15.9757,15.9757,15.9757,15.9757,15.9757,15.9757,15.9757,15.9757,15.9757,15.9757,16.0043,16.0328,16.0471,16.0685,16.1042,16.1042,16.1042,16.1256,16.2255,16.2754,16.2897,16.3824,16.4466,16.4466,16.4466,16.4466,16.4466,16.4466,16.4466,16.4395,16.4466,16.4466,16.411,16.2255,16.0827,16.0471,16.0399,16.0257,15.9757,15.9757,15.9757,15.9757,15.9757,16.0532,16.2127,16.2234,16.3389,16.5733,16.6837,16.7352,16.7352,16.7352,16.7352,16.7352,16.7352,16.7352,16.7352,16.7352,16.7352,16.7128,16.5184,16.3838,16.324,16.3165,16.3015,16.2567,16.2492,16.2492,16.2417,16.2492,16.1894,16.0847,16.0697,16.0323,15.9202,15.8678,15.8304,15.8304,15.7856,15.7631,15.7631,15.7482,15.7482,15.7631,15.651,15.5238,15.3668,15.2621,15.2725,15.2576,15.2351,15.1948,15.1126,15.0976,15.0378,14.8882,14.8583,14.7985,14.7162,14.634,14.5517,14.5069,14.4246,14.2975,14.1405,14.1031,14.0283,15.9757,15.9757,15.9757,15.9757,15.9757,15.9757,15.9757,15.9757,15.9757,15.9757,15.9757,15.9757,15.9757,15.9757,15.9757,15.9757,15.9757,15.9757,15.9757,15.9757,15.9757,15.9757,15.9757,15.9757,15.9757,15.99,16.0685,16.1184,16.1327,16.2112,16.254,16.254,16.254,16.254,16.254,16.254,16.254,16.254,16.254,16.254,16.2326,16.0685,15.9757,15.9757,15.9757,15.9757,15.9757,15.9757,15.9757,15.9757,15.9757,16.0361,16.1651,16.1707,16.284,16.5185,16.6114,16.6803,16.732,16.7352,16.7128,16.6455,16.638,16.6081,16.5483,16.5333,16.5408,16.5184,16.3614,16.2193,16.1595,16.1445,16.1221,16.0622,16.0473,16.0473,16.0548,16.0473,16.0174,15.9276,15.9052,15.8603,15.7856,15.7631,15.7332,15.6659,15.5911,15.5388,15.5538,15.5612,15.5612,15.5388,15.4192,15.2771,15.1873,15.1126,15.0602,15.0527,15.0602,15.0453,14.9406,14.9256,14.8658,14.7013,14.6789,14.6564,14.6041,14.4844,14.4246,14.3872,14.2975,14.133,13.961,13.8787,13.774,15.9757,15.9757,15.9757,15.9757,15.9757,15.9757,15.9757,15.9757,15.9757,15.9757,15.9757,15.9757,15.9757,15.9757,15.9757,15.9757,15.9757,15.9757,15.9757,15.9757,15.9757,15.9757,15.9757,15.9757,15.9757,15.9757,15.9829,15.99,15.99,15.99,15.9829,15.9757,15.9757,15.99,15.9829,15.9829,15.9829,15.9757,15.9757,15.9757,15.9757,15.9757,15.9757,15.9757,15.9757,15.9757,15.9757,15.9757,15.9757,15.9757,15.9757,16.03,16.1313,16.1338,16.2416,16.4797,16.4658,16.5365,16.6699,16.6904,16.6231,16.5034,16.481,16.4212,16.2791,16.2268,16.2043,16.2043,16.2043,16.1221,15.9949,15.98,15.9202,15.7856,15.7557,15.7332,15.7183,15.7183,15.7183,15.7183,15.6958,15.7183,15.6809,15.6734,15.636,15.5014,15.3892,15.3145,15.3145,15.3145,15.307,15.2098,15.1051,15.0154,14.9929,14.8658,14.8209,14.7686,14.7536,14.7387,14.7162,14.7013,14.6789,14.5293,14.4994,14.462,14.3648,14.2676,14.2676,14.2377,14.1255,13.961,13.7965,13.6469,13.4899,15.9757,15.9757,15.9757,15.9757,15.9757,15.9757,15.9757,15.9757,15.9757,15.9757,15.9757,15.9757,15.9757,15.9757,15.9757,15.9757,15.9757,15.9757,15.9757,15.9757,15.9757,15.9757,15.9757,15.9757,15.9757,15.9757,15.9757,15.9757,15.9757,15.9757,15.9757,15.9757,15.9757,15.9757,15.9757,15.9757,15.9757,15.9757,15.9757,15.9757,15.9757,15.9757,15.9757,15.9757,15.9757,15.9757,15.9757,15.9757,15.9757,15.9757,15.9757,15.9947,16.0177,15.9103,15.9579,16.1529,16.0071,16.0258,16.3206,16.3614,16.3464,16.309,16.309,16.2941,16.2342,16.0249,15.8753,15.8753,15.8753,15.8603,15.8155,15.8155,15.7482,15.5986,15.5687,15.5238,15.3967,15.3743,15.3743,15.3743,15.3668,15.3818,15.3743,15.3743,15.3593,15.3294,15.2846,15.2576,15.2576,15.2576,15.1425,14.9705,14.8583,14.8284,14.8284,14.7835,14.7162,14.5891,14.5816,14.5368,14.4545,14.4097,14.3723,14.3573,14.3424,14.3124,14.2825,14.1778,14.0881,14.0657,13.9386,13.7815,13.632,13.4749,13.3104,15.9757,15.9757,15.9757,15.9757,15.9757,15.9757,15.9757,15.9757,15.9757,15.9757,15.9757,15.9757,15.9757,15.9757,15.9757,15.9757,15.9757,15.9757,15.9757,15.9757,15.9757,15.9757,15.9757,15.9757,15.9757,15.9757,15.9757,15.9757,15.9757,15.9757,15.9757,15.9757,15.9757,15.9757,15.9757,15.9757,15.9757,15.9686,15.7688,15.6546,15.6546,15.5833,15.5405,15.5476,15.6903,15.7617,15.7617,15.7617,15.7331,15.6618,15.6618,15.6546,15.6546,15.5761,15.6485,15.9034,15.7862,15.8437,16.146,16.1709,16.1581,16.1414,16.137,16.0473,15.823,15.6285,15.5313,15.5313,15.5313,15.5313,15.5313,15.5313,15.4939,15.4042,15.3967,15.3593,15.2771,15.2576,15.2576,15.2576,15.2576,15.2576,15.2576,15.2576,15.2426,15.1574,15.15,15.1126,15.0378,15.0303,14.963,14.8135,14.7088,14.6639,14.6564,14.6041,14.5218,14.4396,14.4171,14.3797,14.3124,14.2873,14.2601,14.1928,14.1704,14.1479,14.0507,13.9236,13.8339,13.7965,13.6768,13.5572,13.46,13.3702,13.2132,15.9115,15.9115,15.9115,15.9115,15.9186,15.9329,15.9472,15.94,15.9186,15.9258,15.9472,15.9472,15.9615,15.9757,15.9757,15.9757,15.9757,15.9757,15.9757,15.9757,15.9757,15.9757,15.9757,15.9757,15.9757,15.9757,15.9757,15.9757,15.9757,15.9757,15.9757,15.9757,15.9757,15.9757,15.9757,15.9757,15.9686,15.94,15.5476,15.3478,15.3407,15.2051,15.085,15.0136,15.3121,15.4549,15.3835,15.4192,15.3621,15.1908,15.1766,15.1766,15.1766,15.1552,15.2763,15.5734,15.5607,15.6535,15.892,15.896,15.8792,15.8489,15.8609,15.688,15.2472,15.2248,15.2458,15.2546,15.2771,15.2576,15.2576,15.2725,15.2621,15.2322,15.2247,15.2173,15.1724,15.1724,15.1649,15.1649,15.1873,15.1799,15.1574,15.1649,15.1126,15.0228,14.9854,14.9406,14.8284,14.7387,14.7088,14.6863,14.5816,14.4994,14.477,14.3723,14.3124,14.2601,14.2526,14.2377,14.1826,14.1704,14.118,13.9909,13.946,13.8862,13.7441,13.6021,13.5422,13.5273,13.4375,13.3104,13.273,13.2282,13.131,15.5904,15.5904,15.5966,15.5904,15.5976,15.7331,15.7902,15.7759,15.6475,0.0,0.0,15.7902,15.8616,15.9757,15.9757,15.9757,15.9757,15.9757,15.9757,15.9757,15.9757,15.9757,15.9757,15.9757,15.9757,15.9757,15.9757,15.9757,15.9757,15.9757,15.9757,15.9757,15.9757,15.9757,15.9757,15.9757,15.9115,15.7902,15.7046,15.6618,15.6618,15.6332,15.3692,14.8484,15.148,15.1338,14.7556,14.9768,14.9839,14.7057,14.6914,14.6914,14.6842,14.563,14.6797,15.0668,14.8908,14.8763,15.1087,15.0446,15.0253,15.1068,15.208,15.1624,14.943,15.051,15.1675,15.2517,15.2576,15.2546,15.2576,15.2546,15.2098,15.0827,15.0677,15.0079,14.8808,14.8583,14.8583,14.8583,14.8583,14.8583,14.8583,14.8583,14.8434,14.8209,14.806,14.7985,14.7536,14.5517,14.4022,14.4022,14.3723,14.3246,14.3199,14.2825,14.2377,14.0956,14.0732,14.0283,13.9161,13.8713,13.804,13.6694,13.6394,13.5721,13.4301,13.3702,13.3452,13.3403,13.3153,13.2581,13.116,12.9889,12.8917,15.5181,15.5181,15.5181,15.5181,0.0,15.5904,15.5833,15.5119,15.5048,15.5476,15.6261,15.6261,15.6689,15.7403,15.7403,15.7403,15.7474,15.8259,15.8616,15.8687,15.94,15.9757,15.9757,15.9757,15.9757,15.9757,15.9757,15.9757,15.9757,15.9757,15.94,15.8616,15.8616,15.7403,15.5119,15.6618,15.619,15.3774,15.305,15.2622,15.2551,15.1908,14.9982,14.6985,14.9839,0.0,0.0,0.0,0.0,0.0,0.0,0.0,0.0,14.2633,0.0,14.3894,14.0647,13.9653,14.2151,14.1882,14.2723,14.5494,14.6286,14.4595,13.9889,14.157,14.3089,14.3622,14.4324,14.5105,14.5921,14.5961,14.5664,14.4957,14.5326,14.5327,14.4613,14.4915,14.5293,14.5293,14.5293,14.5293,14.5218,14.5218,14.5293,14.5293,14.5293,14.5218,14.5069,14.3872,14.2873,14.2798,14.2227,14.1629,14.1554,14.1031,13.9685,13.8339,13.789,13.7217,13.5647,13.5348,13.5123,13.445,13.4226,13.4002,13.3104,13.2207,13.1684,13.1609,13.101,13.0113,12.944,12.8618,12.8094,15.3906,15.4192,15.4192,15.4192,15.412,15.3835,15.305,15.198,15.3478,15.4192,15.4192,15.4477,15.4834,15.5109,15.5181,15.5181,15.5191,15.6475,15.7046,15.7046,15.833,15.8901,15.8901,15.8901,15.8901,15.8901,15.8901,15.8901,15.8901,15.8901,15.8259,15.7046,15.7046,15.4905,15.1064,0.0,0.0,0.0,14.9054,14.884,14.8769,14.7627,14.6414,14.5273,14.8139,0.0,14.8139,14.8626,14.7984,14.5915,14.5701,0.0,0.0,0.0,0.0,0.0,0.0,0.0,0.0,0.0,0.0,0.0,13.9096,13.6551,13.1174,13.2758,13.4112,13.4085,13.5956,13.7533,13.8193,13.8487,13.8814,13.9148,13.9914,14.0638,14.1106,14.1788,14.2468,14.2742,14.2686,14.2657,14.292,14.2873,14.29,14.3022,14.2873,14.249,14.1529,14.1111,14.1246,14.1201,13.9517,13.8667,13.8472,13.729,13.6049,13.5189,13.4842,13.4525,13.3478,13.3104,13.3029,13.2506,13.2506,13.2431,13.1983,13.0936,12.9964,12.9989,12.8991,12.8094,12.8094,12.787,12.7646,14.9625,15.085,15.085,15.091,15.0838,14.9411,14.8769,14.8698,15.0267,15.085,15.0992,15.2479,15.3835,15.5109,15.5181,15.5181,15.5181,15.5333,15.5405,15.5405,15.5619,15.569,15.569,15.5752,15.569,15.569,15.569,15.569,15.569,15.569,15.5547,15.5405,15.5333,15.4406,15.2479,15.1409,14.934,14.6343,15.0125,15.2123,15.2194,15.198,14.9197,14.3988,14.6557,14.5701,14.0436,14.2704,14.2133,13.8066,13.7781,13.7638,13.7424,13.564,13.4499,0.0,13.2715,0.0,0.0,0.0,0.0,0.0,0.0,0.0,0.0,13.0611,13.1216,13.0852,13.4707,13.625,13.3644,13.4672,13.6029,13.7312,13.765,13.8659,14.0747,14.0431,14.0722,14.2686,14.2019,14.1788,14.2433,14.2873,14.2798,14.249,14.2163,14.0262,13.6777,13.5784,13.5821,13.5707,13.4421,13.3461,13.2317,13.213,13.2322,13.216,13.2618,13.3228,13.278,13.278,13.2406,13.116,13.0786,13.0337,12.8917,12.8618,12.8468,12.8468,12.8094,12.787,12.772,12.6823,12.6,14.7057,14.7699,14.764,14.764,14.764,14.6985,14.6628,14.67,14.7355,14.7699,14.777,14.8484,14.9197,14.9839,14.9839,14.9839,14.9911,15.0767,15.1124,15.1195,15.198,15.2408,15.2479,15.3407,15.3764,15.3835,15.4691,15.5181,15.5181,15.5181,15.4691,15.3835,15.3835,15.041,14.3917,14.4559,14.4845,14.4345,14.6414,14.7913,14.8769,14.8769,14.7485,14.4702,14.5915,14.5344,14.2633,14.3846,14.3632,14.1562,14.1491,14.0635,13.8922,13.4142,13.1002,0.0,0.0,0.0,0.0,0.0,0.0,0.0,0.0,0.0,0.0,0.0,12.3294,12.3181,12.7454,12.9654,12.8323,12.883,12.9075,12.8858,12.9393,13.0262,13.1394,13.239,13.3391,13.4343,13.4033,13.452,13.6713,13.6335,13.6335,13.812,13.5331,13.2285,13.0044,13.0299,13.0848,13.0848,13.0922,13.0813,13.0152,13.0373,13.0571,13.0228,12.9963,13.002,13.0184,12.9802,12.9367,12.9215,12.9141,12.8917,12.8244,12.8094,12.8094,12.787,12.6599,12.5402,12.5327,12.4654,12.4206,14.5273,14.5487,14.3988,14.356,14.3988,14.4345,14.4702,14.5059,14.5415,14.5415,14.5059,14.5487,14.4773,14.3346,14.2989,14.3418,14.4559,14.5772,14.6628,14.7413,14.8626,14.9138,14.9209,15.0481,15.1052,15.1124,15.2265,15.2836,15.2836,15.2479,15.1338,14.9483,14.9411,14.4987,13.6711,13.8994,14.1348,14.3204,14.3632,14.4417,14.55,14.5572,14.5572,14.5572,14.5572,14.5429,14.5059,14.4702,14.4345,14.3988,14.2918,14.1063,13.8209,13.143,0.0,0.0,0.0,0.0,0.0,0.0,0.0,0.0,0.0,11.7684,11.1452,0.0,11.7017,0.0,12.1084,12.3439,12.3439,12.3082,0.0,0.0,12.2017,12.2504,12.3163,12.5078,12.6541,12.7069,12.6884,12.7761,13.0335,12.9638,12.9816,13.1851,12.817,12.5036,12.4671,12.5947,12.6856,12.6525,12.6995,12.7586,12.736,12.7586,12.7535,12.7715,12.7322,12.7021,12.7328,12.6738,12.6542,12.7531,12.7585,12.7612,12.8045,12.7495,12.7045,12.6448,12.4507,12.2691,12.2691,12.2392,12.2043,14.4274,14.513,13.9422,13.7852,13.9279,14.0706,14.2062,14.356,14.4987,14.4773,14.356,14.4987,14.2419,13.6925,13.5498,0.0,14.1348,14.142,14.2989,14.5772,14.5857,14.5928,14.5986,14.6129,14.62,14.62,14.6272,14.6343,14.6343,14.4987,14.2704,13.9723,13.9707,13.8637,13.6496,13.7923,14.0278,14.3204,14.4631,14.5487,14.5558,14.5572,14.5572,14.55,14.5572,14.4916,14.3418,14.2062,14.0635,13.9136,13.4998,13.193,13.0146,0.0,0.0,0.0,0.0,0.0,0.0,0.0,0.0,0.0,0.0,0.0,0.0,0.0,0.0,11.7303,11.9087,0.0,12.0085,11.8801,0.0,0.0,0.0,11.8874,12.1195,12.2062,12.3339,12.5345,0.0,0.0,12.5821,12.5856,12.5621,12.5474,12.4995,12.4136,12.2515,12.3659,12.4279,12.2776,12.1464,12.0677,12.1267,12.0934,12.1631,12.3681,12.4817,12.5271,12.5413,12.5232,12.5657,12.6437,12.596,12.5893,12.7743,12.5776,12.3889,12.2508,12.1915,12.1692,12.1395,12.0385,11.9219,13.7677,13.5224,13.1925,13.204,13.4275,13.3922,13.5778,13.8994,13.8708,13.7638,13.6282,13.6853,13.4713,13.0574,13.0003,0.0,0.0,0.0,13.5069,13.7139,13.8138,13.9065,13.9993,14.092,14.1363,14.1363,14.2347,14.3275,14.4202,14.356,13.7852,12.7577,0.0,12.7863,12.6507,13.0717,13.407,13.6211,13.8708,13.9993,13.9993,13.9993,13.9993,13.9993,13.9993,13.9636,13.9065,13.8423,13.6996,13.4427,13.1645,12.8576,0.0,0.0,0.0,0.0,0.0,0.0,0.0,0.0,0.0,0.0,0.0,10.9026,10.4673,0.0,0.0,0.0,11.1238,11.3022,11.4021,11.4377,0.0,0.0,0.0,0.0,0.0,0.0,0.0,11.8938,11.9648,12.0812,12.2982,12.0901,11.9115,11.8871,11.8016,11.716,11.6518,0.0,11.8944,11.9229,11.873,11.8658,11.9586,11.8159,11.7585,11.9591,12.0988,12.2179,12.3401,12.3176,12.3176,12.383,12.3168,12.2507,12.3271,12.1251,11.9336,11.9437,11.865,11.7618,11.6692,11.6028,11.5229,13.0153,0.0,0.0,0.0,0.0,12.7687,12.9112,13.2252,13.119,12.9789,12.8358,12.8782,0.0,0.0,0.0,0.0,0.0,0.0,12.8979,13.1002,13.35,13.4927,13.564,13.6782,13.7281,13.7227,13.7923,13.8566,13.9136,13.7113,12.9844,11.8133,0.0,0.0,0.0,0.0,12.8271,13.0386,13.4195,13.6282,13.6282,13.6282,13.6282,13.6282,13.6282,13.6282,13.6211,13.4499,13.2572,13.0289,12.615,0.0,0.0,0.0,0.0,0.0,0.0,0.0,0.0,0.0,0.0,0.0,0.0,0.0,0.0,0.0,0.0,0.0,0.0,0.0,10.8312,10.9454,10.9739,0.0,0.0,0.0,0.0,0.0,0.0,0.0,0.0,0.0,11.9087,11.6828,11.5188,0.0,0.0,11.4449,11.3521,11.4377,11.5305,11.6018,11.5305,0.0,11.6803,11.559,11.4805,11.5876,11.7731,11.9402,12.0334,11.9611,11.9157,12.007,11.9484,11.813,11.6599,11.4609,11.3767,11.4521,11.3525,11.2174,11.1516,11.1038,11.0312,0.0,0.0,0.0,0.0,12.2513,0.0,0.0,0.0,12.2946,12.2045,0.0,12.2115,0.0,0.0,0.0,0.0,12.0315,12.3181,0.0,0.0,13.3661,13.5355,13.3875,13.3803,13.4017,13.3999,13.2377,13.095,12.9278,12.2402,0.0,0.0,0.0,0.0,0.0,0.0,12.4025,12.695,13.2852,13.6211,13.6086,13.6086,13.614,13.6086,13.614,13.6068,13.5997,13.0308,12.7099,12.6885,11.6828,0.0,0.0,0.0,0.0,0.0,0.0,0.0,0.0,0.0,0.0,0.0,0.0,0.0,0.0,0.0,0.0,0.0,0.0,0.0,0.0,10.3675,0.0,0.0,0.0,0.0,0.0,0.0,0.0,0.0,0.0,11.295,11.3236,11.4235,11.5616,11.7089,0.0,0.0,0.0,0.0,11.4546,11.3164,11.0382,10.9026,11.0596,11.188,11.2808,11.2879,0.0,0.0,11.5539,11.4039,11.3479,11.4379,11.4954,11.3325,10.7453,10.631,10.6525,10.732,10.6453,10.5728,10.6743,10.6018,10.4823,0.0,0.0,0.0,0.0,0.0,0.0,0.0,0.0,0.0,11.6998,11.5698,11.6112,0.0,0.0,0.0,0.0,0.0,0.0,0.0,0.0,12.2413,12.3838,12.3409,12.3383,12.3453,12.3269,12.0876,11.7796,0.0,0.0,0.0,0.0,0.0,0.0,0.0,0.0,11.6857,11.8094,12.3914,12.694,12.7069,12.694,12.7477,12.8524,12.8524,12.7715,12.5773,12.1793,11.9053,0.0,0.0,0.0,0.0,0.0,0.0,0.0,0.0,0.0,0.0,0.0,0.0,0.0,0.0,0.0,0.0,0.0,0.0,0.0,0.0,0.0,0.0,0.0,10.4061,0.0,0.0,0.0,0.0,0.0,0.0,0.0,0.0,0.0,11.1238,11.081,11.1452,11.4021,11.3949,11.3664,11.3592,0.0,0.0,0.0,0.0,0.0,0.0,0.0,10.8526,10.9525,10.8883,10.9097,11.1595,11.1595,11.137,11.1657,0.0,0.0,10.1003,10.0464,10.1297,10.1618,10.2053,10.1876,10.0369,10.044,10.0145,0.0,0.0,0.0,0.0,0.0,0.0,0.0,0.0,0.0,11.1028,11.0085,0.0,0.0,0.0,0.0,0.0,0.0,0.0,0.0,0.0,0.0,0.0,11.5526,11.5577,0.0,0.0,0.0,0.0,0.0,0.0,0.0,0.0,0.0,0.0,0.0,0.0,11.2348,11.268,11.8787,12.2122,12.2122,12.2122,12.2548,12.3554,12.3681,12.2273,11.9436,0.0,0.0,0.0,0.0,0.0,0.0,0.0,0.0,0.0,0.0,0.0,0.0,0.0,0.0,0.0,0.0,0.0,0.0,0.0,0.0,0.0,0.0,0.0,0.0,0.0,10.1034,0.0,0.0,0.0,0.0,0.0,0.0,0.0,0.0,0.0,0.0,10.6814,10.767,11.0738,11.1166,11.1595,11.2594,11.2308,11.2522,0.0,0.0,0.0,0.0,0.0,0.0,0.0,0.0,0.0,0.0,0.0,0.0,0.0,0.0,10.1534,9.5826,9.5612,9.6325,9.6397,0.0,0.0,0.0,0.0,0.0,0.0,0.0,0.0,0.0,0.0,0.0,0.0,0.0,0.0,0.0,10.3964,0.0,0.0,10.179,0.0,0.0,0.0,0.0,0.0,0.0,0.0,0.0,0.0,0.0,0.0,0.0,0.0,0.0,0.0,0.0,0.0,0.0,0.0,0.0,0.0,0.0,11.0572,11.0707,11.7838,12.1799,12.1799,12.1861,12.173,12.1854,12.1854,12.0536,11.762,0.0,0.0,0.0,0.0,0.0,0.0,0.0,0.0,0.0,0.0,0.0,0.0,0.0,0.0,0.0,0.0,0.0,0.0,0.0,0.0,0.0,0.0,0.0,0.0,0.0,0.0,9.0546,9.5112,9.9393,0.0,0.0,0.0,0.0,0.0,0.0,0.0,0.0,0.0,10.7442,11.0552,11.2477,11.2477,11.1265,11.065,11.2308,10.8697,10.6772,10.9739,11.0168,10.924,0.0,0.0,0.0,0.0,0.0,0.0,0.0,0.0,0.0,0.0,0.0,0.0,0.0,0.0,0.0,0.0,0.0,0.0,0.0,0.0,0.0,0.0,0.0,0.0,0.0,0.0,0.0,0.0,0.0,0.0,0.0,0.0,0.0,0.0,0.0,0.0,0.0,0.0,0.0,0.0,0.0,0.0,0.0,0.0,0.0,0.0,0.0,0.0,0.0,0.0,0.0,0.0,0.0,0.0,10.6062,10.5998,11.2239,11.5378,11.5445,11.5378,11.5918,11.6964,11.601,11.473,0.0,0.0,0.0,0.0,0.0,0.0,0.0,0.0,0.0,0.0,0.0,0.0,0.0,0.0,0.0,0.0,0.0,0.0,0.0,0.0,0.0,0.0,0.0,0.0,0.0,0.0,0.0,0.0,9.761,9.8537,9.7862,0.0,0.0,0.0,0.0,0.0,0.0,0.0,0.0,0.0,0.0,10.5644,10.7786,10.6773,10.6269,10.7656,10.5853,10.464,10.5403,10.5488,10.4816,10.2818,0.0,0.0,0.0,0.0,0.0,0.0,0.0,0.0,0.0,0.0,0.0,0.0,0.0,0.0,0.0,0.0,0.0,0.0,0.0,0.0,0.0,0.0,0.0,0.0,0.0,0.0,0.0,0.0,0.0,0.0,0.0,0.0,0.0,0.0,0.0,0.0,0.0,0.0,0.0,0.0,0.0,0.0,0.0,0.0,0.0,0.0,0.0,0.0,0.0,0.0,0.0,0.0,0.0,10.403,10.4096,10.9619,11.2513,11.2513,11.2513,11.3009,11.3974,11.2573,11.0417,0.0,0.0,0.0,0.0,0.0,0.0,0.0,0.0,0.0,0.0,0.0,0.0,0.0,0.0,0.0,0.0,0.0,0.0,0.0,0.0,0.0,0.0,0.0,0.0,0.0,0.0,0.0,0.0,9.4522,9.4998,9.4044,0.0,0.0,0.0,0.0,0.0,0.0,0.0,0.0,0.0,0.0,10.1506,10.3964,10.391,0.0,0.0,10.4521,10.3807,10.4192,10.4816,10.4031,10.0749,9.9393,0.0,0.0,0.0,0.0,0.0,0.0,0.0,0.0,0.0,0.0,0.0,0.0,0.0,0.0,0.0,0.0,0.0,0.0,0.0,0.0,0.0,0.0,0.0,0.0,0.0,0.0,0.0,0.0,0.0,0.0,0.0,0.0,0.0,0.0,0.0,0.0,0.0,0.0,0.0,0.0,0.0,0.0,0.0,0.0,0.0,0.0,0.0,0.0,0.0,0.0,0.0,0.0,10.3767,10.403,10.9356,11.2184,11.2184,11.225,11.225,11.225,11.0803,10.7318,0.0,0.0,0.0,0.0,0.0,0.0,0.0,0.0,0.0,0.0,0.0,0.0,0.0,0.0,0.0,0.0,0.0,0.0,0.0,0.0,0.0,0.0,0.0,0.0,0.0,0.0,0.0,0.0,0.0,0.0,0.0,0.0,0.0,0.0,0.0,0.0,0.0,0.0,0.0,0.0,0.0,9.9449,10.0993,10.2048,10.3254,0.0,10.3794,10.3224,10.4691,10.6272,10.5387,9.9536,0.0,0.0,0.0,0.0,0.0,0.0,0.0,0.0,0.0,0.0,0.0,0.0,0.0,0.0,0.0,0.0,0.0,0.0,0.0,0.0,0.0,0.0,0.0,0.0,0.0,0.0,0.0,0.0,0.0,0.0,0.0,0.0,0.0,0.0,0.0,0.0,0.0,0.0,0.0,0.0,0.0,0.0,0.0,0.0,0.0,0.0,0.0,0.0,0.0,0.0,0.0,0.0,0.0,0.0,10.232,10.6923,10.9356,10.9356,10.9356,10.9356,10.929,10.6923,0.0,0.0,0.0,0.0,0.0,0.0,0.0,0.0,0.0,0.0,0.0,0.0,0.0,0.0,0.0,0.0,0.0,0.0,0.0,0.0,0.0,0.0,0.0,0.0,0.0,0.0,0.0,8.3159,0.0,0.0,0.0,0.0,0.0,0.0,0.0,0.0,0.0,0.0,0.0,0.0,0.0,0.0,9.6603,9.8031,9.6745,9.6385,0.0,0.0,9.5852,9.7085,9.9367,10.0178,0.0,0.0,0.0,0.0,0.0,0.0,0.0,0.0,0.0,0.0,0.0,0.0,0.0,0.0,0.0,0.0,0.0,0.0,0.0,0.0,0.0,0.0,0.0,0.0,0.0,0.0,0.0,0.0,0.0,0.0,0.0,0.0,0.0,0.0,0.0,0.0,0.0,0.0,0.0,0.0,0.0,0.0,0.0,0.0,0.0,0.0,0.0,0.0,0.0,0.0,0.0,0.0,0.0,0.0,9.9032,10.1662,10.4819,10.6987,10.8238,10.8236,10.8236,10.8236,10.5542,10.232,0.0,0.0,0.0,0.0,0.0,0.0,0.0,0.0,0.0,0.0,0.0,0.0,0.0,0.0,0.0,0.0,0.0,0.0,0.0,0.0,0.0,0.0,0.0,0.0,0.0,0.0,0.0,0.0,0.0,0.0,0.0,0.0,0.0,0.0,0.0,0.0,0.0,0.0,0.0,0.0,0.0,0.0,9.4144,9.2349,0.0,0.0,0.0,9.2944,9.4022,0.0,0.0,0.0,0.0,0.0,0.0,0.0,0.0,0.0,0.0,0.0,0.0,0.0,0.0,0.0,0.0,0.0,0.0,0.0,0.0,0.0,0.0,0.0,0.0,0.0,0.0,0.0,0.0,0.0,0.0,0.0,0.0,0.0,0.0,0.0,0.0,0.0,0.0,0.0,0.0,0.0,0.0,0.0,0.0,0.0,0.0,0.0,0.0,0.0,0.0,0.0,0.0,0.0,0.0,0.0,0.0,0.0,10.1071,10.2846,10.5082,10.7646,10.7778,10.7844,10.7778,10.5148,10.1597,0.0,0.0,0.0,0.0,0.0,0.0,0.0,0.0,0.0,0.0,0.0,0.0,0.0,0.0,0.0,0.0,0.0,0.0,0.0,0.0,0.0,0.0,0.0,0.0,0.0,0.0,0.0,0.0,0.0,0.0,0.0,0.0,0.0,0.0,0.0,0.0,0.0,0.0,0.0,0.0,0.0,8.7467,9.0135,8.8973,8.8692,0.0,0.0,9.1853,9.305,9.4457,0.0,0.0,0.0,0.0,0.0,0.0,0.0,0.0,0.0,0.0,0.0,0.0,0.0,0.0,0.0,0.0,0.0,0.0,0.0,0.0,0.0,0.0,0.0,0.0,0.0,0.0,0.0,0.0,0.0,0.0,0.0,0.0,0.0,0.0,0.0,0.0,0.0,0.0,0.0,0.0,0.0,0.0,0.0,0.0,0.0,0.0,0.0,0.0,0.0,0.0,0.0,0.0,0.0,0.0,0.0,0.0,9.8177,10.0808,10.3043,10.4753,10.4885,10.4885,10.4819,10.3109,9.9558,0.0,0.0,0.0,0.0,0.0,0.0,0.0,0.0,0.0,0.0,0.0,0.0,0.0,0.0,0.0,0.0,0.0,0.0,0.0,0.0,0.0,0.0,0.0,0.0,0.0,0.0,0.0,0.0,0.0,0.0,0.0,0.0,0.0,0.0,0.0,0.0,0.0,0.0,0.0,0.0,0.0,8.7129,8.8768,8.683,0.0,0.0,0.0,0.0,8.8911,8.9391,0.0,0.0,0.0,0.0,0.0,0.0,0.0,0.0,0.0,0.0,0.0,0.0,0.0,0.0,0.0,0.0,0.0,0.0,0.0,0.0,0.0,0.0,0.0,0.0,0.0,0.0,0.0,0.0,0.0,0.0,0.0,0.0,0.0,0.0,0.0,0.0,0.0,0.0,0.0,0.0,0.0,0.0,0.0,0.0,0.0,0.0,0.0,0.0,0.0,0.0,0.0,0.0,0.0,0.0,0.0,0.0,9.6139,9.7125,9.8966,10.1728,10.186,10.186,10.1794,10.0413,9.7257,0.0,0.0,0.0,0.0,0.0,0.0,0.0,0.0,0.0,0.0,0.0,0.0,0.0,0.0,0.0,0.0,0.0,0.0,0.0,0.0,0.0,0.0,0.0,0.0,0.0,0.0,0.0,0.0,0.0,0.0,0.0,0.0,0.0,0.0,0.0,0.0,0.0,0.0,0.0,0.0,8.1852,8.3194,8.5281,0.0,0.0,0.0,0.0,0.0,0.0,8.7448,8.7414,0.0,0.0,0.0,0.0,0.0,0.0,0.0,0.0,0.0,0.0,0.0,0.0,0.0,0.0,0.0,0.0,0.0,0.0,0.0,0.0,0.0,0.0,0.0,0.0,0.0,0.0,0.0,0.0,0.0,0.0,0.0,0.0,0.0,0.0,0.0,0.0,0.0,0.0,0.0,0.0,0.0,0.0,0.0,0.0,0.0,0.0,0.0,0.0,0.0,0.0,0.0,0.0,0.0,0.0,0.0,9.407,9.3719,9.535,9.9098,9.9364,9.9558,9.9558,9.8112,9.5152,9.0484,0.0,0.0,0.0,0.0,0.0,0.0,0.0,0.0,0.0,0.0,0.0,0.0,0.0,0.0,0.0,0.0,0.0,0.0,0.0,0.0,0.0,0.0,0.0,0.0,0.0,0.0,0.0,0.0,0.0,0.0,0.0,0.0,0.0,0.0,0.0,0.0,0.0,0.0,0.0,7.8713,7.8894,0.0,0.0,0.0,0.0,0.0,0.0,0.0,0.0,8.5825,0.0,0.0,0.0,0.0,0.0,0.0,0.0,0.0,0.0,0.0,0.0,0.0,0.0,0.0,0.0,0.0,0.0,0.0,0.0,0.0,0.0,0.0,0.0,0.0,0.0,0.0,0.0,0.0,0.0,0.0,0.0,0.0,0.0,0.0,0.0,0.0,0.0,0.0,0.0,0.0,0.0,0.0,0.0,0.0,0.0,0.0,0.0,0.0,0.0,0.0,0.0,0.0,0.0,0.0,0.0,0.0,9.305,9.581,9.7651,9.8901,9.9558,9.9495,9.8112,9.4232,8.7645,0.0,0.0,0.0,0.0,0.0,0.0,0.0,0.0,0.0,0.0,0.0,0.0,0.0,0.0,0.0,0.0,0.0,0.0,0.0,0.0,0.0,0.0,0.0,0.0,0.0,0.0,0.0,0.0,0.0,0.0,0.0,0.0,0.0,0.0,0.0,0.0,0.0,0.0,7.8302,7.8104,0.0,0.0,0.0,0.0,0.0,0.0,0.0,0.0,8.3827,0.0,0.0,0.0,0.0,0.0,0.0,0.0,0.0,0.0,0.0,0.0,0.0,0.0,0.0,0.0,0.0,0.0,0.0,0.0,0.0,0.0,0.0,0.0,0.0,0.0,0.0,0.0,0.0,0.0,0.0,0.0,0.0,0.0,0.0,0.0,0.0,0.0,0.0,0.0,0.0,0.0,0.0,0.0,0.0,0.0,0.0,0.0,0.0,0.0,0.0,0.0,0.0,0.0,0.0,0.0,0.0,0.0,0.0,9.2799,9.5027,9.6533,9.7257,9.7125,9.364,8.9751,0.0,0.0,0.0,0.0,0.0,0.0,0.0,0.0,0.0,0.0,0.0,0.0,0.0,0.0,0.0,0.0,0.0,0.0,0.0,0.0,0.0,0.0,0.0,0.0,0.0,0.0,0.0,0.0,0.0,0.0,0.0,0.0,0.0,0.0,0.0,0.0,0.0,0.0,0.0,0.0,0.0,0.0,0.0,0.0,0.0,0.0,0.0,0.0,0.0,0.0,0.0,0.0,0.0,0.0,0.0,0.0,0.0,0.0,0.0,0.0,0.0,0.0,0.0,0.0,0.0,0.0,0.0,0.0,0.0,0.0,0.0,0.0,0.0,0.0,0.0,0.0,0.0,0.0,0.0,0.0,0.0,0.0,0.0,0.0,0.0,0.0,0.0,0.0,0.0,0.0,0.0,0.0,0.0,0.0,0.0,0.0,0.0,0.0,0.0,0.0,0.0,0.0,0.0,0.0,0.0,0.0,0.0,0.0,8.9672,9.2135,9.3903,9.4626,9.4298,8.9074,8.5478,0.0,0.0,0.0,0.0,0.0,0.0,0.0,0.0,0.0,0.0,0.0,0.0,0.0,0.0,0.0,0.0,0.0,0.0,0.0,0.0,0.0,0.0,0.0,0.0,0.0,0.0,0.0,0.0,0.0,0.0,0.0,0.0,0.0,0.0,0.0,0.0,0.0,0.0,0.0,0.0,0.0,0.0,0.0,0.0,0.0,0.0,0.0,0.0,8.4301,0.0,0.0,0.0,0.0,0.0,0.0,0.0,0.0,0.0,0.0,0.0,0.0,0.0,0.0,0.0,0.0,0.0,0.0,0.0,0.0,0.0,0.0,0.0,0.0,0.0,0.0,0.0,0.0,0.0,0.0,0.0,0.0,0.0,0.0,0.0,0.0,0.0,0.0,0.0,0.0,0.0,0.0,0.0,0.0,0.0,0.0,0.0,0.0,0.0,0.0,0.0,0.0,0.0,0.0,0.0,0.0,0.0,0.0,0.0,8.8767,8.9309,9.1872,9.2719,9.1404,8.6993,8.3897,0.0,0.0,0.0,0.0,0.0,0.0,0.0,0.0,0.0,0.0,0.0,0.0,0.0,0.0,0.0,0.0,0.0,0.0,0.0,0.0,0.0,0.0,0.0,0.0,0.0,0.0,0.0,0.0,0.0,0.0,0.0,0.0,0.0,0.0,0.0,0.0,0.0,0.0,0.0,0.0,0.0,0.0,0.0,0.0,0.0,0.0,0.0,0.0,0.0,0.0,0.0,0.0,0.0,0.0,0.0,0.0,0.0,0.0,0.0,0.0,0.0,0.0,0.0,0.0,0.0,0.0,0.0,0.0,0.0,0.0,0.0,0.0,0.0,0.0,0.0,0.0,0.0,0.0,0.0,0.0,0.0,0.0,0.0,0.0,0.0,0.0,0.0,0.0,0.0,0.0,0.0,0.0,0.0,0.0,0.0,0.0,0.0,0.0,0.0,0.0,0.0,0.0,0.0,0.0,0.0,0.0,0.0,0.0,8.425,8.6279,8.91,8.91,8.5898,8.3211,8.1623,0.0,0.0,0.0,0.0,0.0,0.0,0.0,0.0,0.0,0.0,0.0,0.0,0.0,0.0,0.0,0.0,0.0,0.0,0.0,0.0,0.0,0.0,0.0,0.0,0.0,0.0,0.0,0.0,0.0,0.0,0.0,0.0,0.0,0.0,0.0,0.0,0.0,0.0,0.0,0.0,0.0,0.0,0.0,0.0,0.0,0.0,0.0,0.0,0.0,0.0,0.0,0.0,0.0,0.0,0.0,0.0,0.0,0.0,0.0,0.0,0.0,0.0,0.0,0.0,0.0,0.0,0.0,0.0,0.0,0.0,0.0,0.0,0.0,0.0,0.0,0.0,0.0,0.0,0.0,0.0,0.0,0.0,0.0,0.0,0.0,0.0,0.0,0.0,0.0,0.0,0.0,0.0,0.0,0.0,0.0,0.0,0.0,0.0,0.0,0.0,0.0,0.0,0.0,0.0,0.0,0.0,0.0,0.0,0.0,8.3099,8.499,8.438,8.1123,7.9666,7.8715,0.0,0.0,0.0,0.0,0.0,0.0,0.0,0.0,0.0,0.0,0.0,0.0,0.0,0.0,0.0,0.0,0.0,0.0,0.0,0.0,0.0,0.0,0.0,0.0,0.0,0.0,0.0,0.0,0.0,0.0,0.0,0.0,0.0,0.0,0.0,0.0,0.0,0.0,0.0,0.0,0.0,0.0,0.0,0.0,0.0,0.0,0.0,0.0,0.0,0.0,0.0,0.0,0.0,0.0,0.0,0.0,0.0,0.0,0.0,0.0,0.0,0.0,0.0,0.0,0.0,0.0,0.0,0.0,0.0,0.0,0.0,0.0,0.0,0.0,0.0,0.0,0.0,0.0,0.0,0.0,0.0,0.0,0.0,0.0,0.0,0.0,0.0,0.0,0.0,0.0,0.0,0.0,0.0,0.0,0.0,0.0,0.0,0.0,0.0,0.0,0.0,0.0,0.0,0.0,0.0,0.0,0.0,0.0,0.0,7.992,7.9044,7.8538,7.8183,7.6708,7.528,0.0,0.0,0.0,0.0,0.0,0.0,0.0,0.0,0.0,0.0,0.0,0.0,0.0,0.0,0.0,0.0,0.0,0.0,0.0,0.0,0.0,0.0,0.0,0.0,0.0,0.0,0.0,0.0,0.0,0.0,0.0,0.0,0.0,0.0,0.0,0.0,0.0,0.0,0.0,0.0,0.0,0.0,0.0,0.0,0.0,0.0,0.0,0.0,0.0,0.0,0.0,0.0,0.0,0.0,0.0,0.0,0.0,0.0,0.0,0.0,0.0,0.0,0.0,0.0,0.0,0.0,0.0,0.0,0.0,0.0,0.0,0.0,0.0,0.0,0.0,0.0,0.0,0.0,0.0,0.0,0.0,0.0,0.0,0.0,0.0,0.0,0.0,0.0,0.0,0.0,0.0,0.0,0.0,0.0,0.0,0.0,0.0,0.0,0.0,0.0,0.0,0.0,0.0,0.0,0.0,0.0,0.0,0.0,0.0,7.4261,7.4856,7.5484,7.6308,7.4223,7.3659,7.4815,0.0,0.0,0.0,0.0,0.0,0.0,0.0,0.0,0.0,0.0,0.0,0.0,0.0,0.0,0.0,0.0,0.0,0.0,0.0,0.0,0.0,0.0,0.0,0.0,0.0,0.0,0.0,0.0,0.0,0.0,0.0,0.0,0.0,0.0,0.0,0.0,0.0,0.0,0.0,0.0,0.0,0.0,0.0,0.0,0.0,0.0,0.0,0.0,0.0,0.0,0.0,0.0,0.0,0.0,0.0,0.0,0.0,0.0,0.0,0.0,0.0,0.0,0.0,0.0,0.0,0.0,0.0,0.0,0.0,0.0,0.0,0.0,0.0,0.0,0.0,0.0,0.0,0.0,0.0,0.0,0.0,0.0,0.0,0.0,0.0,0.0,0.0,0.0,0.0,0.0,0.0,0.0,0.0,0.0,0.0,0.0,0.0,0.0,0.0,0.0,0.0,0.0,0.0,0.0,0.0,0.0,0.0,0.0,7.0977,7.2163,7.3152,7.3955,7.2798,7.2688,0.0,0.0,0.0,0.0,0.0,0.0,0.0,0.0,0.0,0.0,0.0,0.0,0.0,0.0,0.0,0.0,0.0,0.0,0.0,0.0,0.0,0.0,0.0,0.0,0.0,0.0,0.0,0.0,0.0,0.0,0.0,0.0,0.0,0.0,0.0,0.0,0.0,0.0,0.0,0.0,0.0,0.0,0.0,0.0,0.0,0.0,0.0,0.0,0.0,0.0,0.0,0.0,0.0,0.0,0.0,0.0,0.0,0.0,0.0,0.0,0.0,0.0,0.0,0.0,0.0,0.0,0.0,0.0,0.0,0.0,0.0,0.0,0.0,0.0,0.0,0.0,0.0,0.0,0.0,0.0,0.0,0.0,0.0,0.0,0.0,0.0,0.0,0.0,0.0,0.0,0.0,0.0,0.0,0.0,0.0,0.0,0.0,0.0,0.0,0.0,0.0,0.0,0.0,0.0,0.0,0.0,0.0,0.0,6.9741,7.1025,7.1144,7.1323,7.1203,7.2602,7.2096,0.0,0.0,0.0,0.0,0.0,0.0,0.0,0.0,0.0,0.0,0.0,0.0,0.0,0.0,0.0,0.0,0.0,0.0,0.0,0.0,0.0,0.0,0.0,0.0,0.0,0.0,0.0,0.0,0.0,0.0,0.0,0.0,0.0,0.0,0.0,0.0,0.0,0.0,0.0,0.0,0.0,0.0,0.0,0.0,0.0,0.0,0.0,0.0,0.0,0.0,0.0,0.0,0.0,0.0,0.0,0.0,0.0,0.0,0.0,0.0,0.0,0.0,0.0,0.0,0.0,0.0,0.0,0.0,0.0,0.0,0.0,0.0,0.0,0.0,0.0,0.0,0.0,0.0,0.0,0.0,0.0,0.0,0.0,0.0,0.0,0.0,0.0,0.0,0.0,0.0,0.0,0.0,0.0,0.0,0.0,0.0,0.0,0.0,0.0,0.0,0.0,0.0,0.0,0.0,0.0,0.0,0.0,0.0,0.0,6.9682,7.0604,7.1617,7.2663,7.2364,7.2194,0.0,0.0,0.0,0.0,0.0,0.0,0.0,0.0,0.0,0.0,0.0,0.0,0.0,0.0,0.0,0.0,0.0,0.0,0.0,0.0,0.0,0.0,0.0,0.0,0.0,0.0,0.0,0.0,0.0,0.0,0.0,0.0,0.0,0.0,0.0,0.0,0.0,0.0,0.0,0.0,0.0,0.0,0.0,0.0,0.0,0.0,0.0,0.0,0.0,0.0,0.0,0.0,0.0,0.0,0.0,0.0,0.0,0.0,0.0,0.0,0.0,0.0,0.0,0.0,0.0,0.0,0.0,0.0,0.0,0.0,0.0,0.0,0.0,0.0,0.0,0.0,0.0,0.0,0.0,0.0,0.0,0.0,0.0,0.0,0.0,0.0,0.0,0.0,0.0,0.0,0.0,0.0,0.0,0.0,0.0,0.0,0.0,0.0,0.0,0.0,0.0,0.0,0.0,0.0,0.0,0.0,0.0,0.0,0.0,6.8408,6.9693,7.0665,7.1125,7.1899,7.1942,0.0,0.0,0.0,0.0,0.0,0.0,0.0,0.0,0.0,0.0,0.0,0.0,0.0,0.0,0.0,0.0,0.0,0.0,0.0,0.0,0.0,0.0,0.0,0.0,0.0,0.0,0.0,0.0,0.0,0.0,0.0,0.0,0.0,0.0,0.0,0.0,0.0,0.0,0.0,0.0,0.0,0.0,0.0,0.0,0.0,0.0,0.0,0.0,0.0,0.0,0.0,0.0,0.0,0.0,0.0,0.0,0.0,0.0,0.0,0.0,0.0,0.0,0.0,0.0,0.0,0.0,0.0,0.0,0.0,0.0,0.0,0.0,0.0,0.0,0.0,0.0,0.0,0.0,0.0,0.0,0.0,0.0,0.0,0.0,0.0,0.0,0.0,0.0,0.0,0.0,0.0,0.0,0.0,0.0,0.0,0.0,0.0,0.0,0.0,0.0,0.0,0.0,0.0,0.0,0.0,0.0,0.0,0.0,0.0,6.7241,6.8404,6.8467,6.7489,7.136,7.1646,0.0,0.0,0.0,0.0,0.0,0.0,0.0,0.0,0.0,0.0,0.0,0.0,0.0,0.0,0.0,0.0,0.0,0.0,0.0,0.0,0.0,0.0,0.0,0.0,0.0,0.0,0.0,0.0,0.0,0.0,0.0,0.0,0.0,0.0,0.0,0.0,0.0,0.0,0.0,0.0,0.0,0.0,0.0,0.0,0.0,0.0,0.0,0.0,0.0,0.0,0.0,0.0,0.0,0.0,0.0,0.0,0.0,0.0,0.0,0.0,0.0,0.0,0.0,0.0,0.0,0.0,0.0,0.0,0.0,0.0,0.0,0.0,0.0,0.0,0.0,0.0,0.0,0.0,0.0,0.0,0.0,0.0,0.0,0.0,0.0,0.0,0.0,0.0,0.0,0.0,0.0,0.0,0.0,0.0,0.0,0.0,0.0,0.0,0.0,0.0,0.0,0.0,0.0,0.0,0.0,0.0,0.0,0.0,0.0,0.0,6.8811,6.9316,7.0126,7.3264,7.3533,7.0308,0.0,0.0,0.0,0.0,0.0,0.0,0.0,0.0,0.0,0.0,0.0,0.0,0.0,0.0,0.0,0.0,0.0,0.0,0.0,0.0,0.0,0.0,0.0,0.0,0.0,0.0,0.0,0.0,0.0,0.0,0.0,0.0,0.0,0.0,0.0,0.0,0.0,0.0,0.0,0.0,0.0,0.0,0.0,0.0,0.0,0.0,0.0,0.0,0.0,0.0,0.0,0.0,0.0,0.0,0.0,0.0,0.0,0.0,0.0,0.0,0.0,0.0,0.0,0.0,0.0,0.0,0.0,0.0,0.0,0.0,0.0,0.0,0.0,0.0,0.0,0.0,0.0,0.0,0.0,0.0,0.0,0.0,0.0,0.0,0.0,0.0,0.0,0.0,0.0,0.0,0.0,0.0,0.0,0.0,0.0,0.0,0.0,0.0,0.0,0.0,0.0,0.0,0.0,0.0,0.0,0.0,0.0,0.0,0.0,0.0,6.9133,6.9467,7.1802,7.2194,0.0,0.0,0.0,0.0,0.0,0.0,0.0,0.0,0.0,0.0,0.0,0.0,0.0,0.0,0.0,0.0,0.0,0.0,0.0,0.0,0.0,0.0,0.0,0.0,0.0,0.0,0.0,0.0,0.0,0.0,0.0,0.0,0.0,0.0,0.0,0.0,0.0,0.0,0.0,0.0,0.0,0.0,0.0,0.0,0.0,0.0,0.0,0.0,0.0,0.0,0.0,0.0,0.0,0.0,0.0,0.0,0.0,0.0,0.0,0.0,0.0,0.0,0.0,0.0,0.0,0.0,0.0,0.0,0.0,0.0,0.0,0.0,0.0,0.0,0.0,0.0,0.0,0.0,0.0,0.0,0.0,0.0,0.0,0.0,0.0,0.0,0.0,0.0,0.0,0.0,0.0,0.0,0.0,0.0,0.0,0.0,0.0,0.0,0.0,0.0,0.0,0.0,0.0,0.0,0.0,0.0,0.0,0.0,0.0,0.0,0.0,6.8346,6.7302,6.8279,0.0,6.9505,0.0,0.0,0.0,0.0,0.0,0.0,0.0,0.0,0.0,0.0,0.0,0.0,0.0,0.0,0.0,0.0,0.0,0.0,0.0,0.0,0.0,0.0,0.0,0.0,0.0,0.0,0.0,0.0,0.0,0.0,0.0,0.0,0.0,0.0,0.0,0.0,0.0,0.0,0.0,0.0,0.0,0.0,0.0,0.0,0.0,0.0,0.0,0.0,0.0,0.0,0.0,0.0,0.0,0.0,0.0,0.0,0.0,0.0,0.0,0.0,0.0,0.0,0.0,0.0,0.0,0.0,0.0,0.0,0.0,0.0,0.0,0.0,0.0,0.0,0.0,0.0,0.0,0.0,0.0,0.0,0.0,0.0,0.0,0.0,0.0,0.0,0.0,0.0,0.0,0.0,0.0,0.0,0.0,0.0,0.0,0.0,0.0,0.0,0.0,0.0,0.0,0.0,0.0,0.0,0.0,0.0,0.0,0.0,0.0,0.0,0.0,0.0,6.6907,6.7029,6.9151,0.0,0.0,0.0,0.0,0.0,0.0,0.0,0.0,0.0,0.0,0.0,0.0,0.0,0.0,0.0,0.0,0.0,0.0,0.0,0.0,0.0,0.0,0.0,0.0,0.0,0.0,0.0,0.0,0.0,0.0,0.0,0.0,0.0,0.0,0.0,0.0,0.0,0.0,0.0,0.0,0.0,0.0,0.0,0.0,0.0,0.0,0.0,0.0,0.0,0.0,0.0,0.0,0.0,0.0,0.0,0.0,0.0,0.0,0.0,0.0,0.0,0.0,0.0,0.0,0.0,0.0,0.0,0.0,0.0,0.0,0.0,0.0,0.0,0.0,0.0,0.0,0.0,0.0,0.0,0.0,0.0,0.0,0.0,0.0,0.0,0.0,0.0,0.0,0.0,0.0,0.0,0.0,0.0,0.0,0.0,0.0,0.0,0.0,0.0,0.0,0.0,0.0,0.0,0.0,0.0,0.0,0.0,0.0,0.0,0.0,6.7648,6.8928,6.7679,6.7735,6.9156,0.0,0.0,0.0,0.0,0.0,0.0,0.0,0.0,0.0,0.0,0.0,0.0,0.0,0.0,0.0,0.0,0.0,0.0,0.0,0.0,0.0,0.0,0.0,0.0,0.0,0.0,0.0,0.0,0.0,0.0,0.0,0.0,0.0,0.0,0.0,0.0,0.0,0.0,0.0,0.0,0.0,0.0,0.0,0.0,0.0,0.0,0.0,0.0,0.0,0.0,0.0,0.0,0.0,0.0,0.0,0.0,0.0,0.0,0.0,0.0,0.0,0.0,0.0,0.0,0.0,0.0,0.0,0.0,0.0,0.0,0.0,0.0,0.0,0.0,0.0,0.0,0.0,0.0,0.0,0.0,0.0,0.0,0.0,0.0,0.0,0.0,0.0,0.0,0.0,0.0,0.0,0.0,0.0,0.0,0.0,0.0,0.0,0.0,0.0,0.0,0.0,0.0,0.0,0.0,0.0,0.0,0.0,0.0,0.0,0.0,6.7772,0.0,0.0,0.0,6.89,0.0,0.0,0.0,0.0,0.0,0.0,0.0,0.0,0.0,0.0,0.0,0.0,0.0,0.0,0.0,0.0,0.0,0.0,0.0,0.0,0.0,0.0,0.0,0.0,0.0,0.0,0.0,0.0,0.0,0.0,0.0,0.0,0.0,0.0,0.0,0.0,0.0,0.0,0.0,0.0,0.0,0.0,0.0,0.0,0.0,0.0,0.0,0.0,0.0,0.0,0.0,0.0,0.0,0.0,0.0,0.0,0.0,0.0,0.0,0.0,0.0,0.0,0.0,0.0,0.0,0.0,0.0,0.0,0.0,0.0,0.0,0.0,0.0,0.0,0.0,0.0,0.0,0.0,0.0,0.0,0.0,0.0,0.0,0.0,0.0,0.0,0.0,0.0,0.0,0.0,0.0,0.0,0.0,0.0,0.0,0.0,0.0,0.0,0.0,0.0,0.0,0.0,0.0,0.0,0.0,0.0,0.0,0.0,0.0,0.0,0.0,0.0,0.0,0.0,0.0,0.0,0.0,0.0,0.0,0.0,0.0,0.0,0.0,0.0,0.0,0.0,0.0,0.0,0.0,0.0,0.0,0.0,0.0,0.0,0.0,0.0,0.0,0.0,0.0,0.0,0.0,0.0,0.0,0.0,0.0,0.0,0.0,0.0,0.0,0.0,0.0,0.0,0.0,0.0,0.0,0.0,0.0,0.0,0.0,0.0,0.0,0.0,0.0,0.0,0.0,0.0,0.0,0.0,0.0,0.0,0.0,0.0,0.0,0.0,0.0,0.0,0.0,0.0,0.0,0.0,0.0,0.0,0.0,0.0,0.0,0.0,0.0,0.0,0.0,0.0,0.0,0.0,0.0,0.0,0.0,0.0,0.0,0.0,0.0,0.0,0.0,0.0,0.0,0.0,0.0,0.0,0.0,0.0,0.0,0.0,0.0,0.0,0.0,0.0,0.0,0.0,0.0,0.0,0.0,0.0,0.0,0.0,0.0,0.0,0.0,0.0,0.0,0.0,0.0,0.0,0.0,0.0,0.0,0.0,0.0,0.0,0.0,0.0,0.0,0.0,0.0,0.0,0.0,0.0,0.0,0.0,0.0,0.0,0.0,0.0,0.0,0.0,0.0,0.0,0.0,0.0,0.0,0.0,0.0,0.0,0.0,0.0,0.0,0.0,0.0,0.0,0.0,0.0,0.0,0.0,0.0,0.0,0.0,0.0,0.0,0.0,0.0,0.0,0.0,0.0,0.0,0.0,0.0,0.0,0.0,0.0,0.0,0.0,0.0,0.0,0.0,0.0,0.0,0.0,0.0,0.0,0.0,0.0,0.0,0.0,0.0,0.0,0.0,0.0,0.0,0.0,0.0,0.0,0.0,0.0,0.0,0.0,0.0,0.0,0.0,0.0,0.0,0.0,0.0,0.0,0.0,0.0,0.0,0.0,0.0,0.0,0.0,0.0,0.0,0.0,0.0,0.0,0.0,0.0,0.0,0.0,0.0,0.0,0.0,0.0,0.0,0.0,0.0,0.0,0.0,0.0,0.0,0.0,0.0,0.0,0.0,0.0,0.0,0.0,0.0,0.0,0.0,0.0,0.0,0.0,0.0,0.0,0.0,0.0,0.0,0.0,0.0,0.0,0.0,0.0,0.0,0.0,0.0,0.0,0.0,0.0,0.0,0.0,0.0,0.0,0.0,0.0,0.0,0.0,0.0,0.0,0.0,0.0,0.0,0.0,0.0,0.0,0.0,0.0,0.0,0.0,0.0,0.0,0.0,0.0,0.0,0.0,0.0,0.0,0.0,0.0,0.0,0.0,0.0,0.0,0.0,0.0,0.0,0.0,0.0,0.0,0.0,0.0,0.0,0.0,0.0,0.0,0.0,0.0,0.0,0.0,0.0,0.0,0.0,0.0,0.0,0.0,0.0,0.0,0.0,0.0,0.0,0.0,0.0,0.0,0.0,0.0,0.0,0.0,0.0,0.0,0.0,0.0,0.0,0.0,0.0,0.0,0.0,0.0,0.0,0.0,0.0,0.0,0.0,0.0,0.0,0.0,0.0,0.0,0.0,0.0,0.0,0.0,0.0,0.0,0.0,0.0,0.0,0.0,0.0,0.0,0.0,0.0,0.0,0.0,0.0,0.0,0.0,0.0,0.0,0.0,0.0,0.0,0.0,0.0,0.0,0.0,0.0,0.0,0.0,0.0,0.0,0.0,0.0,0.0,0.0,0.0,0.0,0.0,0.0,0.0,0.0,0.0,0.0,0.0,0.0,0.0,0.0,0.0,0.0,0.0,0.0,0.0,0.0,0.0,0.0,0.0,0.0,0.0,0.0,0.0,0.0,0.0,0.0,0.0,0.0,0.0,0.0,0.0,0.0,0.0,0.0,0.0,0.0,0.0,0.0,0.0,0.0,0.0,0.0,0.0,0.0,0.0,0.0,0.0,0.0,0.0,0.0,0.0,0.0,0.0,0.0,0.0,0.0,0.0,0.0,0.0,0.0,0.0,0.0,0.0,0.0,0.0,0.0,0.0,0.0,0.0,0.0,0.0,0.0,0.0,0.0,0.0,0.0,0.0,0.0,0.0,0.0,0.0,0.0,0.0,0.0,0.0,0.0,0.0,0.0,0.0,0.0,0.0,0.0,0.0,0.0,0.0,0.0,0.0,0.0,0.0,0.0,0.0,0.0,0.0,0.0,0.0,0.0,0.0,0.0,0.0,0.0,0.0,0.0,0.0,0.0,0.0,0.0,0.0,0.0,0.0,0.0,0.0,0.0,0.0,0.0,0.0,0.0,0.0,0.0,0.0,0.0,0.0,0.0,0.0,0.0,0.0,0.0,0.0,0.0,0.0,0.0,0.0,0.0,0.0,0.0,0.0,0.0,0.0,0.0,0.0,0.0,0.0,0.0,0.0,0.0,0.0,0.0,0.0,0.0,0.0,0.0,0.0,0.0,0.0,0.0,0.0,0.0,0.0,0.0,0.0,0.0,0.0,0.0,0.0,0.0,0.0,0.0,0.0,0.0,0.0,0.0,0.0,0.0,0.0,0.0,0.0,0.0,0.0,0.0,0.0,0.0,0.0,0.0,0.0,0.0,0.0,0.0,0.0,0.0,0.0,0.0,0.0,0.0,0.0,0.0,0.0,0.0,0.0,0.0,0.0,0.0,0.0,0.0,0.0,0.0,0.0,0.0,0.0,0.0,0.0,0.0,0.0,0.0,0.0,0.0,0.0,0.0,0.0,0.0,0.0,0.0,0.0,0.0,0.0,0.0,0.0,0.0,0.0,0.0,0.0,0.0,0.0,0.0,0.0,0.0,0.0,0.0,0.0,0.0,0.0,0.0,0.0,0.0,0.0,0.0,0.0,0.0,0.0,0.0,0.0,0.0,0.0,0.0,0.0,0.0,0.0,0.0,0.0,0.0,0.0,0.0,0.0,0.0,0.0,0.0,0.0,0.0,0.0,0.0,0.0,0.0,0.0,0.0,0.0,0.0,0.0,0.0,0.0,0.0,0.0,0.0,0.0,0.0,0.0,0.0,0.0,0.0,0.0,0.0,0.0,0.0,0.0,0.0,0.0,0.0,0.0,0.0,0.0,0.0,0.0,0.0,0.0,0.0,0.0,0.0,0.0,0.0,0.0,0.0,0.0,0.0,0.0,0.0,0.0,0.0,0.0,0.0,0.0,0.0,0.0,0.0,0.0,0.0,0.0,0.0,0.0,0.0,0.0,0.0,0.0,0.0,0.0,0.0,0.0,0.0,0.0,0.0,0.0,0.0,0.0,0.0,0.0,0.0,0.0,0.0,0.0,0.0,0.0,0.0,0.0,0.0,0.0,0.0,0.0,0.0,0.0,0.0,0.0,0.0,0.0,0.0,0.0,0.0,0.0,0.0,0.0,0.0,0.0,0.0,0.0,0.0,0.0,0.0,0.0,0.0,0.0,0.0,0.0,0.0,0.0,0.0,0.0,0.0,0.0,0.0,0.0,0.0,0.0,0.0,0.0,0.0,0.0,0.0,0.0,0.0,0.0,0.0,0.0,0.0,0.0,0.0,0.0,0.0,0.0,0.0,0.0,0.0,0.0,0.0,0.0,0.0,0.0,0.0,0.0,0.0,0.0,0.0,0.0,0.0,0.0,0.0,0.0,0.0,0.0,0.0,0.0,0.0,0.0,0.0,0.0,0.0,0.0,0.0,0.0,0.0,0.0,0.0,0.0,0.0,0.0,0.0,0.0,0.0,0.0,0.0,0.0,0.0,0.0,0.0,0.0,0.0,0.0,0.0,0.0,0.0,0.0,0.0,0.0,0.0,0.0,0.0,0.0,0.0,0.0,0.0,0.0,0.0,0.0,0.0,0.0,0.0,0.0,0.0,0.0,0.0,0.0]}]]]